<?xml version="1.0" encoding="UTF-8"?>
<gpx version="1.1" creator="https://www.youtrack.es" xsi:schemaLocation="http://www.topografix.com/GPX/1/1 http://www.topografix.com/GPX/1/1/gpx.xsd http://www.garmin.com/xmlschemas/GpxExtensions/v3 http://www.garmin.com/xmlschemas/GpxExtensionsv3.xsd http://www.garmin.com/xmlschemas/TrackPointExtension/v1 http://www.garmin.com/xmlschemas/TrackPointExtensionv1.xsd" xmlns:gpxtpx="http://www.garmin.com/xmlschemas/TrackPointExtension/v1" xmlns:gpxx="http://www.garmin.com/xmlschemas/GpxExtensions/v3" xmlns:xsi="http://www.w3.org/2001/XMLSchema-instance">
  <metadata>
    <link href="https://www.youtrack.es">
      <text>YouTrack.es</text>
    </link>
    <time>2026-05-10T17:34:52Z</time>
  </metadata>
  <trk>
    <src>https://www.youtrack.es</src>
    <link href="https://www.youtrack.es/ruta/7258-06lekunberri-zariquitiegui">
      <text>YouTrack.es</text>
    </link>
    <trkseg>
      <trkpt lat="43.00034400" lon="-1.88825200">
        <ele>574.00000</ele>
        <time>2010-01-01T00:00:00Z</time>
      </trkpt>
      <trkpt lat="43.00032300" lon="-1.88828400">
        <ele>574.00000</ele>
        <time>2010-01-01T00:00:01Z</time>
      </trkpt>
      <trkpt lat="43.00035200" lon="-1.88836400">
        <ele>573.00000</ele>
        <time>2010-01-01T00:00:03Z</time>
      </trkpt>
      <trkpt lat="43.00033200" lon="-1.88839600">
        <ele>573.00000</ele>
        <time>2010-01-01T00:00:05Z</time>
      </trkpt>
      <trkpt lat="43.00029200" lon="-1.88838700">
        <ele>573.00000</ele>
        <time>2010-01-01T00:00:06Z</time>
      </trkpt>
      <trkpt lat="43.00029000" lon="-1.88838500">
        <ele>573.00000</ele>
        <time>2010-01-01T00:00:06Z</time>
      </trkpt>
      <trkpt lat="42.99989500" lon="-1.88817800">
        <ele>570.00000</ele>
        <time>2010-01-01T00:00:23Z</time>
      </trkpt>
      <trkpt lat="42.99946000" lon="-1.88821700">
        <ele>569.00000</ele>
        <time>2010-01-01T00:00:41Z</time>
      </trkpt>
      <trkpt lat="42.99920200" lon="-1.88835400">
        <ele>567.00000</ele>
        <time>2010-01-01T00:00:52Z</time>
      </trkpt>
      <trkpt lat="42.99905300" lon="-1.88837900">
        <ele>568.00000</ele>
        <time>2010-01-01T00:00:58Z</time>
      </trkpt>
      <trkpt lat="42.99894000" lon="-1.88836800">
        <ele>570.00000</ele>
        <time>2010-01-01T00:01:02Z</time>
      </trkpt>
      <trkpt lat="42.99871600" lon="-1.88841700">
        <ele>575.00000</ele>
        <time>2010-01-01T00:01:11Z</time>
      </trkpt>
      <trkpt lat="42.99831700" lon="-1.88854000">
        <ele>575.00000</ele>
        <time>2010-01-01T00:01:28Z</time>
      </trkpt>
      <trkpt lat="42.99799900" lon="-1.88852200">
        <ele>575.00000</ele>
        <time>2010-01-01T00:01:41Z</time>
      </trkpt>
      <trkpt lat="42.99773200" lon="-1.88834600">
        <ele>579.00000</ele>
        <time>2010-01-01T00:01:52Z</time>
      </trkpt>
      <trkpt lat="42.99772200" lon="-1.88831400">
        <ele>580.00000</ele>
        <time>2010-01-01T00:01:53Z</time>
      </trkpt>
      <trkpt lat="42.99768400" lon="-1.88833300">
        <ele>580.00000</ele>
        <time>2010-01-01T00:01:55Z</time>
      </trkpt>
      <trkpt lat="42.99751300" lon="-1.88825100">
        <ele>585.00000</ele>
        <time>2010-01-01T00:02:02Z</time>
      </trkpt>
      <trkpt lat="42.99719000" lon="-1.88823500">
        <ele>588.00000</ele>
        <time>2010-01-01T00:02:15Z</time>
      </trkpt>
      <trkpt lat="42.99678300" lon="-1.88827600">
        <ele>589.00000</ele>
        <time>2010-01-01T00:02:32Z</time>
      </trkpt>
      <trkpt lat="42.99643000" lon="-1.88834300">
        <ele>590.00000</ele>
        <time>2010-01-01T00:02:46Z</time>
      </trkpt>
      <trkpt lat="42.99609300" lon="-1.88857600">
        <ele>593.00000</ele>
        <time>2010-01-01T00:03:01Z</time>
      </trkpt>
      <trkpt lat="42.99581200" lon="-1.88885800">
        <ele>594.00000</ele>
        <time>2010-01-01T00:03:15Z</time>
      </trkpt>
      <trkpt lat="42.99558800" lon="-1.88899300">
        <ele>594.00000</ele>
        <time>2010-01-01T00:03:25Z</time>
      </trkpt>
      <trkpt lat="42.99530100" lon="-1.88886400">
        <ele>597.00000</ele>
        <time>2010-01-01T00:03:37Z</time>
      </trkpt>
      <trkpt lat="42.99508200" lon="-1.88860400">
        <ele>604.00000</ele>
        <time>2010-01-01T00:03:48Z</time>
      </trkpt>
      <trkpt lat="42.99485300" lon="-1.88830400">
        <ele>607.00000</ele>
        <time>2010-01-01T00:04:01Z</time>
      </trkpt>
      <trkpt lat="42.99470400" lon="-1.88797700">
        <ele>607.00000</ele>
        <time>2010-01-01T00:04:12Z</time>
      </trkpt>
      <trkpt lat="42.99464700" lon="-1.88784300">
        <ele>607.00000</ele>
        <time>2010-01-01T00:04:17Z</time>
      </trkpt>
      <trkpt lat="42.99452700" lon="-1.88736800">
        <ele>611.00000</ele>
        <time>2010-01-01T00:04:32Z</time>
      </trkpt>
      <trkpt lat="42.99435900" lon="-1.88709100">
        <ele>613.00000</ele>
        <time>2010-01-01T00:04:42Z</time>
      </trkpt>
      <trkpt lat="42.99401700" lon="-1.88674600">
        <ele>612.00000</ele>
        <time>2010-01-01T00:04:59Z</time>
      </trkpt>
      <trkpt lat="42.99370300" lon="-1.88622500">
        <ele>615.00000</ele>
        <time>2010-01-01T00:05:19Z</time>
      </trkpt>
      <trkpt lat="42.99350900" lon="-1.88576300">
        <ele>618.00000</ele>
        <time>2010-01-01T00:05:35Z</time>
      </trkpt>
      <trkpt lat="42.99333900" lon="-1.88538300">
        <ele>618.00000</ele>
        <time>2010-01-01T00:05:48Z</time>
      </trkpt>
      <trkpt lat="42.99320400" lon="-1.88477400">
        <ele>621.00000</ele>
        <time>2010-01-01T00:06:06Z</time>
      </trkpt>
      <trkpt lat="42.99301000" lon="-1.88442500">
        <ele>623.00000</ele>
        <time>2010-01-01T00:06:19Z</time>
      </trkpt>
      <trkpt lat="42.99275300" lon="-1.88418800">
        <ele>625.00000</ele>
        <time>2010-01-01T00:06:31Z</time>
      </trkpt>
      <trkpt lat="42.99242600" lon="-1.88384000">
        <ele>630.00000</ele>
        <time>2010-01-01T00:06:48Z</time>
      </trkpt>
      <trkpt lat="42.99210600" lon="-1.88353900">
        <ele>632.00000</ele>
        <time>2010-01-01T00:07:04Z</time>
      </trkpt>
      <trkpt lat="42.99200200" lon="-1.88343200">
        <ele>630.00000</ele>
        <time>2010-01-01T00:07:09Z</time>
      </trkpt>
      <trkpt lat="42.99194300" lon="-1.88326400">
        <ele>629.00000</ele>
        <time>2010-01-01T00:07:14Z</time>
      </trkpt>
      <trkpt lat="42.99183500" lon="-1.88303200">
        <ele>627.00000</ele>
        <time>2010-01-01T00:07:22Z</time>
      </trkpt>
      <trkpt lat="42.99178800" lon="-1.88248100">
        <ele>628.00000</ele>
        <time>2010-01-01T00:07:39Z</time>
      </trkpt>
      <trkpt lat="42.99178600" lon="-1.88238600">
        <ele>628.00000</ele>
        <time>2010-01-01T00:07:41Z</time>
      </trkpt>
      <trkpt lat="42.99178900" lon="-1.88237700">
        <ele>628.00000</ele>
        <time>2010-01-01T00:07:42Z</time>
      </trkpt>
      <trkpt lat="42.99203200" lon="-1.88204100">
        <ele>627.00000</ele>
        <time>2010-01-01T00:07:55Z</time>
      </trkpt>
      <trkpt lat="42.99218200" lon="-1.88162200">
        <ele>625.00000</ele>
        <time>2010-01-01T00:08:09Z</time>
      </trkpt>
      <trkpt lat="42.99223300" lon="-1.88112000">
        <ele>624.00000</ele>
        <time>2010-01-01T00:08:24Z</time>
      </trkpt>
      <trkpt lat="42.99237500" lon="-1.88056800">
        <ele>625.00000</ele>
        <time>2010-01-01T00:08:41Z</time>
      </trkpt>
      <trkpt lat="42.99248300" lon="-1.88014200">
        <ele>627.00000</ele>
        <time>2010-01-01T00:08:54Z</time>
      </trkpt>
      <trkpt lat="42.99258500" lon="-1.87976600">
        <ele>629.00000</ele>
        <time>2010-01-01T00:09:06Z</time>
      </trkpt>
      <trkpt lat="42.99292800" lon="-1.87932400">
        <ele>628.00000</ele>
        <time>2010-01-01T00:09:25Z</time>
      </trkpt>
      <trkpt lat="42.99320600" lon="-1.87895500">
        <ele>628.00000</ele>
        <time>2010-01-01T00:09:40Z</time>
      </trkpt>
      <trkpt lat="42.99349200" lon="-1.87863800">
        <ele>628.00000</ele>
        <time>2010-01-01T00:09:55Z</time>
      </trkpt>
      <trkpt lat="42.99372000" lon="-1.87806300">
        <ele>629.00000</ele>
        <time>2010-01-01T00:10:14Z</time>
      </trkpt>
      <trkpt lat="42.99369800" lon="-1.87783300">
        <ele>629.00000</ele>
        <time>2010-01-01T00:10:21Z</time>
      </trkpt>
      <trkpt lat="42.99358400" lon="-1.87753100">
        <ele>629.00000</ele>
        <time>2010-01-01T00:10:31Z</time>
      </trkpt>
      <trkpt lat="42.99349200" lon="-1.87731300">
        <ele>627.00000</ele>
        <time>2010-01-01T00:10:38Z</time>
      </trkpt>
      <trkpt lat="42.99344300" lon="-1.87699600">
        <ele>627.00000</ele>
        <time>2010-01-01T00:10:48Z</time>
      </trkpt>
      <trkpt lat="42.99342500" lon="-1.87686300">
        <ele>627.00000</ele>
        <time>2010-01-01T00:10:52Z</time>
      </trkpt>
      <trkpt lat="42.99310200" lon="-1.87598100">
        <ele>627.00000</ele>
        <time>2010-01-01T00:11:21Z</time>
      </trkpt>
      <trkpt lat="42.99306000" lon="-1.87586700">
        <ele>627.00000</ele>
        <time>2010-01-01T00:11:24Z</time>
      </trkpt>
      <trkpt lat="42.99287200" lon="-1.87532700">
        <ele>628.00000</ele>
        <time>2010-01-01T00:11:42Z</time>
      </trkpt>
      <trkpt lat="42.99282700" lon="-1.87516100">
        <ele>627.00000</ele>
        <time>2010-01-01T00:11:47Z</time>
      </trkpt>
      <trkpt lat="42.99260700" lon="-1.87454500">
        <ele>626.00000</ele>
        <time>2010-01-01T00:12:07Z</time>
      </trkpt>
      <trkpt lat="42.99240900" lon="-1.87393800">
        <ele>625.00000</ele>
        <time>2010-01-01T00:12:27Z</time>
      </trkpt>
      <trkpt lat="42.99212800" lon="-1.87314800">
        <ele>617.00000</ele>
        <time>2010-01-01T00:12:52Z</time>
      </trkpt>
      <trkpt lat="42.99189300" lon="-1.87250800">
        <ele>614.00000</ele>
        <time>2010-01-01T00:13:13Z</time>
      </trkpt>
      <trkpt lat="42.99168100" lon="-1.87209000">
        <ele>610.00000</ele>
        <time>2010-01-01T00:13:28Z</time>
      </trkpt>
      <trkpt lat="42.99149400" lon="-1.87178600">
        <ele>607.00000</ele>
        <time>2010-01-01T00:13:40Z</time>
      </trkpt>
      <trkpt lat="42.99130500" lon="-1.87146700">
        <ele>603.00000</ele>
        <time>2010-01-01T00:13:52Z</time>
      </trkpt>
      <trkpt lat="42.99123000" lon="-1.87133100">
        <ele>602.00000</ele>
        <time>2010-01-01T00:13:57Z</time>
      </trkpt>
      <trkpt lat="42.99097700" lon="-1.87106100">
        <ele>600.00000</ele>
        <time>2010-01-01T00:14:10Z</time>
      </trkpt>
      <trkpt lat="42.99092900" lon="-1.87104100">
        <ele>600.00000</ele>
        <time>2010-01-01T00:14:12Z</time>
      </trkpt>
      <trkpt lat="42.99023600" lon="-1.87050800">
        <ele>593.00000</ele>
        <time>2010-01-01T00:14:44Z</time>
      </trkpt>
      <trkpt lat="42.98961900" lon="-1.86991600">
        <ele>596.00000</ele>
        <time>2010-01-01T00:15:14Z</time>
      </trkpt>
      <trkpt lat="42.98903500" lon="-1.86909500">
        <ele>594.00000</ele>
        <time>2010-01-01T00:15:47Z</time>
      </trkpt>
      <trkpt lat="42.98851800" lon="-1.86807400">
        <ele>595.00000</ele>
        <time>2010-01-01T00:16:24Z</time>
      </trkpt>
      <trkpt lat="42.98801700" lon="-1.86702000">
        <ele>596.00000</ele>
        <time>2010-01-01T00:17:00Z</time>
      </trkpt>
      <trkpt lat="42.98751900" lon="-1.86598400">
        <ele>592.00000</ele>
        <time>2010-01-01T00:17:37Z</time>
      </trkpt>
      <trkpt lat="42.98707400" lon="-1.86503700">
        <ele>593.00000</ele>
        <time>2010-01-01T00:18:10Z</time>
      </trkpt>
      <trkpt lat="42.98654800" lon="-1.86406000">
        <ele>594.00000</ele>
        <time>2010-01-01T00:18:45Z</time>
      </trkpt>
      <trkpt lat="42.98597700" lon="-1.86307100">
        <ele>595.00000</ele>
        <time>2010-01-01T00:19:22Z</time>
      </trkpt>
      <trkpt lat="42.98576800" lon="-1.86277200">
        <ele>595.00000</ele>
        <time>2010-01-01T00:19:34Z</time>
      </trkpt>
      <trkpt lat="42.98529000" lon="-1.86207300">
        <ele>595.00000</ele>
        <time>2010-01-01T00:20:02Z</time>
      </trkpt>
      <trkpt lat="42.98486100" lon="-1.86141800">
        <ele>600.00000</ele>
        <time>2010-01-01T00:20:28Z</time>
      </trkpt>
      <trkpt lat="42.98446600" lon="-1.86081700">
        <ele>601.00000</ele>
        <time>2010-01-01T00:20:52Z</time>
      </trkpt>
      <trkpt lat="42.98394600" lon="-1.86005200">
        <ele>600.00000</ele>
        <time>2010-01-01T00:21:22Z</time>
      </trkpt>
      <trkpt lat="42.98368100" lon="-1.85965800">
        <ele>598.00000</ele>
        <time>2010-01-01T00:21:38Z</time>
      </trkpt>
      <trkpt lat="42.98362600" lon="-1.85957800">
        <ele>598.00000</ele>
        <time>2010-01-01T00:21:41Z</time>
      </trkpt>
      <trkpt lat="42.98352100" lon="-1.85942300">
        <ele>596.00000</ele>
        <time>2010-01-01T00:21:47Z</time>
      </trkpt>
      <trkpt lat="42.98339500" lon="-1.85928200">
        <ele>595.00000</ele>
        <time>2010-01-01T00:21:54Z</time>
      </trkpt>
      <trkpt lat="42.98332700" lon="-1.85921500">
        <ele>594.00000</ele>
        <time>2010-01-01T00:21:57Z</time>
      </trkpt>
      <trkpt lat="42.98289000" lon="-1.85914400">
        <ele>587.00000</ele>
        <time>2010-01-01T00:22:15Z</time>
      </trkpt>
      <trkpt lat="42.98257000" lon="-1.85957600">
        <ele>584.00000</ele>
        <time>2010-01-01T00:22:33Z</time>
      </trkpt>
      <trkpt lat="42.98243700" lon="-1.85986900">
        <ele>585.00000</ele>
        <time>2010-01-01T00:22:43Z</time>
      </trkpt>
      <trkpt lat="42.98196600" lon="-1.86015400">
        <ele>583.00000</ele>
        <time>2010-01-01T00:23:04Z</time>
      </trkpt>
      <trkpt lat="42.98171600" lon="-1.85986800">
        <ele>581.00000</ele>
        <time>2010-01-01T00:23:17Z</time>
      </trkpt>
      <trkpt lat="42.98143700" lon="-1.85934700">
        <ele>582.00000</ele>
        <time>2010-01-01T00:23:36Z</time>
      </trkpt>
      <trkpt lat="42.98131800" lon="-1.85910800">
        <ele>580.00000</ele>
        <time>2010-01-01T00:23:44Z</time>
      </trkpt>
      <trkpt lat="42.98112300" lon="-1.85873800">
        <ele>577.00000</ele>
        <time>2010-01-01T00:23:57Z</time>
      </trkpt>
      <trkpt lat="42.98097400" lon="-1.85849700">
        <ele>573.00000</ele>
        <time>2010-01-01T00:24:07Z</time>
      </trkpt>
      <trkpt lat="42.98060200" lon="-1.85811900">
        <ele>566.00000</ele>
        <time>2010-01-01T00:24:25Z</time>
      </trkpt>
      <trkpt lat="42.98019600" lon="-1.85780700">
        <ele>560.00000</ele>
        <time>2010-01-01T00:24:44Z</time>
      </trkpt>
      <trkpt lat="42.97991500" lon="-1.85755300">
        <ele>560.00000</ele>
        <time>2010-01-01T00:24:57Z</time>
      </trkpt>
      <trkpt lat="42.97963800" lon="-1.85731600">
        <ele>555.00000</ele>
        <time>2010-01-01T00:25:10Z</time>
      </trkpt>
      <trkpt lat="42.97926100" lon="-1.85697600">
        <ele>552.00000</ele>
        <time>2010-01-01T00:25:28Z</time>
      </trkpt>
      <trkpt lat="42.97889500" lon="-1.85659900">
        <ele>545.00000</ele>
        <time>2010-01-01T00:25:47Z</time>
      </trkpt>
      <trkpt lat="42.97865100" lon="-1.85628800">
        <ele>543.00000</ele>
        <time>2010-01-01T00:26:00Z</time>
      </trkpt>
      <trkpt lat="42.97856600" lon="-1.85619300">
        <ele>543.00000</ele>
        <time>2010-01-01T00:26:05Z</time>
      </trkpt>
      <trkpt lat="42.97814600" lon="-1.85592800">
        <ele>538.00000</ele>
        <time>2010-01-01T00:26:23Z</time>
      </trkpt>
      <trkpt lat="42.97772700" lon="-1.85567700">
        <ele>534.00000</ele>
        <time>2010-01-01T00:26:41Z</time>
      </trkpt>
      <trkpt lat="42.97743500" lon="-1.85545400">
        <ele>531.00000</ele>
        <time>2010-01-01T00:26:55Z</time>
      </trkpt>
      <trkpt lat="42.97701400" lon="-1.85489700">
        <ele>527.00000</ele>
        <time>2010-01-01T00:27:18Z</time>
      </trkpt>
      <trkpt lat="42.97686500" lon="-1.85462900">
        <ele>527.00000</ele>
        <time>2010-01-01T00:27:28Z</time>
      </trkpt>
      <trkpt lat="42.97684100" lon="-1.85459800">
        <ele>527.00000</ele>
        <time>2010-01-01T00:27:29Z</time>
      </trkpt>
      <trkpt lat="42.97680400" lon="-1.85462100">
        <ele>525.00000</ele>
        <time>2010-01-01T00:27:31Z</time>
      </trkpt>
      <trkpt lat="42.97685400" lon="-1.85453900">
        <ele>528.00000</ele>
        <time>2010-01-01T00:27:34Z</time>
      </trkpt>
      <trkpt lat="42.97687900" lon="-1.85460200">
        <ele>528.00000</ele>
        <time>2010-01-01T00:27:36Z</time>
      </trkpt>
      <trkpt lat="42.97688400" lon="-1.85464500">
        <ele>528.00000</ele>
        <time>2010-01-01T00:27:38Z</time>
      </trkpt>
      <trkpt lat="42.97691500" lon="-1.85456600">
        <ele>531.00000</ele>
        <time>2010-01-01T00:27:40Z</time>
      </trkpt>
      <trkpt lat="42.97673200" lon="-1.85379700">
        <ele>527.00000</ele>
        <time>2010-01-01T00:28:04Z</time>
      </trkpt>
      <trkpt lat="42.97661000" lon="-1.85311200">
        <ele>527.00000</ele>
        <time>2010-01-01T00:28:24Z</time>
      </trkpt>
      <trkpt lat="42.97647300" lon="-1.85235100">
        <ele>523.00000</ele>
        <time>2010-01-01T00:28:47Z</time>
      </trkpt>
      <trkpt lat="42.97642400" lon="-1.85194600">
        <ele>521.00000</ele>
        <time>2010-01-01T00:28:59Z</time>
      </trkpt>
      <trkpt lat="42.97614800" lon="-1.85127000">
        <ele>517.00000</ele>
        <time>2010-01-01T00:29:22Z</time>
      </trkpt>
      <trkpt lat="42.97565600" lon="-1.85053900">
        <ele>521.00000</ele>
        <time>2010-01-01T00:29:51Z</time>
      </trkpt>
      <trkpt lat="42.97555600" lon="-1.85037300">
        <ele>520.00000</ele>
        <time>2010-01-01T00:29:57Z</time>
      </trkpt>
      <trkpt lat="42.97523800" lon="-1.84958300">
        <ele>520.00000</ele>
        <time>2010-01-01T00:30:24Z</time>
      </trkpt>
      <trkpt lat="42.97498700" lon="-1.84895300">
        <ele>517.00000</ele>
        <time>2010-01-01T00:30:45Z</time>
      </trkpt>
      <trkpt lat="42.97453600" lon="-1.84804000">
        <ele>519.00000</ele>
        <time>2010-01-01T00:31:17Z</time>
      </trkpt>
      <trkpt lat="42.97450000" lon="-1.84794300">
        <ele>519.00000</ele>
        <time>2010-01-01T00:31:20Z</time>
      </trkpt>
      <trkpt lat="42.97419500" lon="-1.84731100">
        <ele>520.00000</ele>
        <time>2010-01-01T00:31:43Z</time>
      </trkpt>
      <trkpt lat="42.97410100" lon="-1.84713400">
        <ele>519.00000</ele>
        <time>2010-01-01T00:31:49Z</time>
      </trkpt>
      <trkpt lat="42.97373900" lon="-1.84667700">
        <ele>515.00000</ele>
        <time>2010-01-01T00:32:09Z</time>
      </trkpt>
      <trkpt lat="42.97328200" lon="-1.84625900">
        <ele>508.00000</ele>
        <time>2010-01-01T00:32:31Z</time>
      </trkpt>
      <trkpt lat="42.97263800" lon="-1.84591500">
        <ele>504.00000</ele>
        <time>2010-01-01T00:32:58Z</time>
      </trkpt>
      <trkpt lat="42.97195100" lon="-1.84561100">
        <ele>501.00000</ele>
        <time>2010-01-01T00:33:27Z</time>
      </trkpt>
      <trkpt lat="42.97176600" lon="-1.84554100">
        <ele>501.00000</ele>
        <time>2010-01-01T00:33:35Z</time>
      </trkpt>
      <trkpt lat="42.97118400" lon="-1.84522100">
        <ele>501.00000</ele>
        <time>2010-01-01T00:34:00Z</time>
      </trkpt>
      <trkpt lat="42.97101100" lon="-1.84490400">
        <ele>501.00000</ele>
        <time>2010-01-01T00:34:12Z</time>
      </trkpt>
      <trkpt lat="42.97093900" lon="-1.84458000">
        <ele>502.00000</ele>
        <time>2010-01-01T00:34:22Z</time>
      </trkpt>
      <trkpt lat="42.97083500" lon="-1.84435400">
        <ele>501.00000</ele>
        <time>2010-01-01T00:34:29Z</time>
      </trkpt>
      <trkpt lat="42.96993700" lon="-1.84329800">
        <ele>504.00000</ele>
        <time>2010-01-01T00:35:17Z</time>
      </trkpt>
      <trkpt lat="42.96928500" lon="-1.84254900">
        <ele>499.00000</ele>
        <time>2010-01-01T00:35:51Z</time>
      </trkpt>
      <trkpt lat="42.96898200" lon="-1.84212100">
        <ele>501.00000</ele>
        <time>2010-01-01T00:36:08Z</time>
      </trkpt>
      <trkpt lat="42.96886700" lon="-1.84195400">
        <ele>502.00000</ele>
        <time>2010-01-01T00:36:15Z</time>
      </trkpt>
      <trkpt lat="42.96834900" lon="-1.84132200">
        <ele>501.00000</ele>
        <time>2010-01-01T00:36:43Z</time>
      </trkpt>
      <trkpt lat="42.96813900" lon="-1.84109900">
        <ele>498.00000</ele>
        <time>2010-01-01T00:36:54Z</time>
      </trkpt>
      <trkpt lat="42.96759900" lon="-1.84038400">
        <ele>501.00000</ele>
        <time>2010-01-01T00:37:24Z</time>
      </trkpt>
      <trkpt lat="42.96703500" lon="-1.83965200">
        <ele>498.00000</ele>
        <time>2010-01-01T00:37:55Z</time>
      </trkpt>
      <trkpt lat="42.96684900" lon="-1.83928600">
        <ele>501.00000</ele>
        <time>2010-01-01T00:38:08Z</time>
      </trkpt>
      <trkpt lat="42.96683700" lon="-1.83927000">
        <ele>501.00000</ele>
        <time>2010-01-01T00:38:08Z</time>
      </trkpt>
      <trkpt lat="42.96686000" lon="-1.83921300">
        <ele>501.00000</ele>
        <time>2010-01-01T00:38:10Z</time>
      </trkpt>
      <trkpt lat="42.96683700" lon="-1.83931500">
        <ele>501.00000</ele>
        <time>2010-01-01T00:38:13Z</time>
      </trkpt>
      <trkpt lat="42.96675600" lon="-1.83944400">
        <ele>501.00000</ele>
        <time>2010-01-01T00:38:18Z</time>
      </trkpt>
      <trkpt lat="42.96669800" lon="-1.83957900">
        <ele>503.00000</ele>
        <time>2010-01-01T00:38:23Z</time>
      </trkpt>
      <trkpt lat="42.96666300" lon="-1.83962500">
        <ele>504.00000</ele>
        <time>2010-01-01T00:38:25Z</time>
      </trkpt>
      <trkpt lat="42.96666100" lon="-1.83961300">
        <ele>504.00000</ele>
        <time>2010-01-01T00:38:25Z</time>
      </trkpt>
      <trkpt lat="42.96640600" lon="-1.83952700">
        <ele>504.00000</ele>
        <time>2010-01-01T00:38:36Z</time>
      </trkpt>
      <trkpt lat="42.96619600" lon="-1.83946800">
        <ele>505.00000</ele>
        <time>2010-01-01T00:38:44Z</time>
      </trkpt>
      <trkpt lat="42.96606600" lon="-1.83944100">
        <ele>506.00000</ele>
        <time>2010-01-01T00:38:50Z</time>
      </trkpt>
      <trkpt lat="42.96602300" lon="-1.83944600">
        <ele>507.00000</ele>
        <time>2010-01-01T00:38:51Z</time>
      </trkpt>
      <trkpt lat="42.96593400" lon="-1.83946200">
        <ele>511.00000</ele>
        <time>2010-01-01T00:38:55Z</time>
      </trkpt>
      <trkpt lat="42.96577000" lon="-1.83953300">
        <ele>518.00000</ele>
        <time>2010-01-01T00:39:02Z</time>
      </trkpt>
      <trkpt lat="42.96561200" lon="-1.83955900">
        <ele>523.00000</ele>
        <time>2010-01-01T00:39:08Z</time>
      </trkpt>
      <trkpt lat="42.96566300" lon="-1.83944900">
        <ele>519.00000</ele>
        <time>2010-01-01T00:39:12Z</time>
      </trkpt>
      <trkpt lat="42.96565500" lon="-1.83930200">
        <ele>516.00000</ele>
        <time>2010-01-01T00:39:16Z</time>
      </trkpt>
      <trkpt lat="42.96548100" lon="-1.83908900">
        <ele>520.00000</ele>
        <time>2010-01-01T00:39:26Z</time>
      </trkpt>
      <trkpt lat="42.96546400" lon="-1.83908100">
        <ele>521.00000</ele>
        <time>2010-01-01T00:39:27Z</time>
      </trkpt>
      <trkpt lat="42.96535200" lon="-1.83888300">
        <ele>526.00000</ele>
        <time>2010-01-01T00:39:34Z</time>
      </trkpt>
      <trkpt lat="42.96525300" lon="-1.83853500">
        <ele>527.00000</ele>
        <time>2010-01-01T00:39:45Z</time>
      </trkpt>
      <trkpt lat="42.96509400" lon="-1.83819500">
        <ele>525.00000</ele>
        <time>2010-01-01T00:39:57Z</time>
      </trkpt>
      <trkpt lat="42.96505500" lon="-1.83813500">
        <ele>526.00000</ele>
        <time>2010-01-01T00:39:59Z</time>
      </trkpt>
      <trkpt lat="42.96485100" lon="-1.83752600">
        <ele>524.00000</ele>
        <time>2010-01-01T00:40:19Z</time>
      </trkpt>
      <trkpt lat="42.96482900" lon="-1.83710400">
        <ele>517.00000</ele>
        <time>2010-01-01T00:40:31Z</time>
      </trkpt>
      <trkpt lat="42.96479700" lon="-1.83676800">
        <ele>513.00000</ele>
        <time>2010-01-01T00:40:41Z</time>
      </trkpt>
      <trkpt lat="42.96490700" lon="-1.83652200">
        <ele>502.00000</ele>
        <time>2010-01-01T00:40:49Z</time>
      </trkpt>
      <trkpt lat="42.96493500" lon="-1.83636100">
        <ele>499.00000</ele>
        <time>2010-01-01T00:40:54Z</time>
      </trkpt>
      <trkpt lat="42.96490200" lon="-1.83593300">
        <ele>499.00000</ele>
        <time>2010-01-01T00:41:07Z</time>
      </trkpt>
      <trkpt lat="42.96476100" lon="-1.83563300">
        <ele>501.00000</ele>
        <time>2010-01-01T00:41:17Z</time>
      </trkpt>
      <trkpt lat="42.96413400" lon="-1.83461200">
        <ele>504.00000</ele>
        <time>2010-01-01T00:41:56Z</time>
      </trkpt>
      <trkpt lat="42.96400000" lon="-1.83433200">
        <ele>503.00000</ele>
        <time>2010-01-01T00:42:06Z</time>
      </trkpt>
      <trkpt lat="42.96398500" lon="-1.83429400">
        <ele>503.00000</ele>
        <time>2010-01-01T00:42:07Z</time>
      </trkpt>
      <trkpt lat="42.96385000" lon="-1.83398300">
        <ele>498.00000</ele>
        <time>2010-01-01T00:42:18Z</time>
      </trkpt>
      <trkpt lat="42.96375200" lon="-1.83375800">
        <ele>496.00000</ele>
        <time>2010-01-01T00:42:26Z</time>
      </trkpt>
      <trkpt lat="42.96367000" lon="-1.83360400">
        <ele>494.00000</ele>
        <time>2010-01-01T00:42:31Z</time>
      </trkpt>
      <trkpt lat="42.96306300" lon="-1.83293900">
        <ele>492.00000</ele>
        <time>2010-01-01T00:43:02Z</time>
      </trkpt>
      <trkpt lat="42.96300500" lon="-1.83289800">
        <ele>492.00000</ele>
        <time>2010-01-01T00:43:05Z</time>
      </trkpt>
      <trkpt lat="42.96294000" lon="-1.83286800">
        <ele>492.00000</ele>
        <time>2010-01-01T00:43:08Z</time>
      </trkpt>
      <trkpt lat="42.96286400" lon="-1.83283900">
        <ele>491.00000</ele>
        <time>2010-01-01T00:43:11Z</time>
      </trkpt>
      <trkpt lat="42.96279800" lon="-1.83283600">
        <ele>491.00000</ele>
        <time>2010-01-01T00:43:13Z</time>
      </trkpt>
      <trkpt lat="42.96272700" lon="-1.83283500">
        <ele>490.00000</ele>
        <time>2010-01-01T00:43:16Z</time>
      </trkpt>
      <trkpt lat="42.96265500" lon="-1.83282600">
        <ele>489.00000</ele>
        <time>2010-01-01T00:43:19Z</time>
      </trkpt>
      <trkpt lat="42.96259500" lon="-1.83280100">
        <ele>488.00000</ele>
        <time>2010-01-01T00:43:22Z</time>
      </trkpt>
      <trkpt lat="42.96253700" lon="-1.83276700">
        <ele>487.00000</ele>
        <time>2010-01-01T00:43:24Z</time>
      </trkpt>
      <trkpt lat="42.96248400" lon="-1.83272500">
        <ele>487.00000</ele>
        <time>2010-01-01T00:43:27Z</time>
      </trkpt>
      <trkpt lat="42.96243400" lon="-1.83267400">
        <ele>486.00000</ele>
        <time>2010-01-01T00:43:29Z</time>
      </trkpt>
      <trkpt lat="42.96238000" lon="-1.83261700">
        <ele>486.00000</ele>
        <time>2010-01-01T00:43:32Z</time>
      </trkpt>
      <trkpt lat="42.96195700" lon="-1.83211800">
        <ele>486.00000</ele>
        <time>2010-01-01T00:43:54Z</time>
      </trkpt>
      <trkpt lat="42.96186100" lon="-1.83194900">
        <ele>487.00000</ele>
        <time>2010-01-01T00:44:01Z</time>
      </trkpt>
      <trkpt lat="42.96182600" lon="-1.83185700">
        <ele>487.00000</ele>
        <time>2010-01-01T00:44:04Z</time>
      </trkpt>
      <trkpt lat="42.96179400" lon="-1.83175900">
        <ele>486.00000</ele>
        <time>2010-01-01T00:44:07Z</time>
      </trkpt>
      <trkpt lat="42.96177500" lon="-1.83166900">
        <ele>486.00000</ele>
        <time>2010-01-01T00:44:10Z</time>
      </trkpt>
      <trkpt lat="42.96176400" lon="-1.83158100">
        <ele>485.00000</ele>
        <time>2010-01-01T00:44:12Z</time>
      </trkpt>
      <trkpt lat="42.96175900" lon="-1.83150000">
        <ele>485.00000</ele>
        <time>2010-01-01T00:44:14Z</time>
      </trkpt>
      <trkpt lat="42.96176200" lon="-1.83142800">
        <ele>484.00000</ele>
        <time>2010-01-01T00:44:17Z</time>
      </trkpt>
      <trkpt lat="42.96177400" lon="-1.83104000">
        <ele>483.00000</ele>
        <time>2010-01-01T00:44:28Z</time>
      </trkpt>
      <trkpt lat="42.96201600" lon="-1.83042800">
        <ele>487.00000</ele>
        <time>2010-01-01T00:44:48Z</time>
      </trkpt>
      <trkpt lat="42.96193400" lon="-1.83007400">
        <ele>489.00000</ele>
        <time>2010-01-01T00:44:59Z</time>
      </trkpt>
      <trkpt lat="42.96195700" lon="-1.83007800">
        <ele>489.00000</ele>
        <time>2010-01-01T00:45:00Z</time>
      </trkpt>
      <trkpt lat="42.96209800" lon="-1.83032000">
        <ele>488.00000</ele>
        <time>2010-01-01T00:45:09Z</time>
      </trkpt>
      <trkpt lat="42.96236600" lon="-1.83074300">
        <ele>489.00000</ele>
        <time>2010-01-01T00:45:26Z</time>
      </trkpt>
      <trkpt lat="42.96241800" lon="-1.83067400">
        <ele>490.00000</ele>
        <time>2010-01-01T00:45:29Z</time>
      </trkpt>
      <trkpt lat="42.96244900" lon="-1.83028900">
        <ele>493.00000</ele>
        <time>2010-01-01T00:45:40Z</time>
      </trkpt>
      <trkpt lat="42.96248000" lon="-1.83008900">
        <ele>499.00000</ele>
        <time>2010-01-01T00:45:46Z</time>
      </trkpt>
      <trkpt lat="42.96252400" lon="-1.82981500">
        <ele>506.00000</ele>
        <time>2010-01-01T00:45:54Z</time>
      </trkpt>
      <trkpt lat="42.96249500" lon="-1.82979400">
        <ele>506.00000</ele>
        <time>2010-01-01T00:45:55Z</time>
      </trkpt>
      <trkpt lat="42.96226100" lon="-1.82917500">
        <ele>493.00000</ele>
        <time>2010-01-01T00:46:16Z</time>
      </trkpt>
      <trkpt lat="42.96271200" lon="-1.82810600">
        <ele>492.00000</ele>
        <time>2010-01-01T00:46:52Z</time>
      </trkpt>
      <trkpt lat="42.96274600" lon="-1.82813300">
        <ele>494.00000</ele>
        <time>2010-01-01T00:46:54Z</time>
      </trkpt>
      <trkpt lat="42.96267800" lon="-1.82806000">
        <ele>489.00000</ele>
        <time>2010-01-01T00:46:57Z</time>
      </trkpt>
      <trkpt lat="42.96269600" lon="-1.82759800">
        <ele>480.00000</ele>
        <time>2010-01-01T00:47:11Z</time>
      </trkpt>
      <trkpt lat="42.96268000" lon="-1.82759200">
        <ele>480.00000</ele>
        <time>2010-01-01T00:47:11Z</time>
      </trkpt>
      <trkpt lat="42.96258100" lon="-1.82725500">
        <ele>479.00000</ele>
        <time>2010-01-01T00:47:22Z</time>
      </trkpt>
      <trkpt lat="42.96235800" lon="-1.82672900">
        <ele>482.00000</ele>
        <time>2010-01-01T00:47:40Z</time>
      </trkpt>
      <trkpt lat="42.96192400" lon="-1.82605800">
        <ele>482.00000</ele>
        <time>2010-01-01T00:48:06Z</time>
      </trkpt>
      <trkpt lat="42.96163100" lon="-1.82556200">
        <ele>482.00000</ele>
        <time>2010-01-01T00:48:25Z</time>
      </trkpt>
      <trkpt lat="42.96115700" lon="-1.82487100">
        <ele>488.00000</ele>
        <time>2010-01-01T00:48:52Z</time>
      </trkpt>
      <trkpt lat="42.96050500" lon="-1.82442100">
        <ele>488.00000</ele>
        <time>2010-01-01T00:49:22Z</time>
      </trkpt>
      <trkpt lat="42.95979000" lon="-1.82419100">
        <ele>488.00000</ele>
        <time>2010-01-01T00:49:51Z</time>
      </trkpt>
      <trkpt lat="42.95930000" lon="-1.82408500">
        <ele>484.00000</ele>
        <time>2010-01-01T00:50:11Z</time>
      </trkpt>
      <trkpt lat="42.95902300" lon="-1.82409500">
        <ele>478.00000</ele>
        <time>2010-01-01T00:50:22Z</time>
      </trkpt>
      <trkpt lat="42.95882700" lon="-1.82409400">
        <ele>477.00000</ele>
        <time>2010-01-01T00:50:30Z</time>
      </trkpt>
      <trkpt lat="42.95779700" lon="-1.82416400">
        <ele>472.00000</ele>
        <time>2010-01-01T00:51:11Z</time>
      </trkpt>
      <trkpt lat="42.95701500" lon="-1.82409700">
        <ele>470.00000</ele>
        <time>2010-01-01T00:51:42Z</time>
      </trkpt>
      <trkpt lat="42.95621000" lon="-1.82386900">
        <ele>471.00000</ele>
        <time>2010-01-01T00:52:15Z</time>
      </trkpt>
      <trkpt lat="42.95616000" lon="-1.82386600">
        <ele>471.00000</ele>
        <time>2010-01-01T00:52:17Z</time>
      </trkpt>
      <trkpt lat="42.95578400" lon="-1.82397900">
        <ele>472.00000</ele>
        <time>2010-01-01T00:52:33Z</time>
      </trkpt>
      <trkpt lat="42.95553100" lon="-1.82393100">
        <ele>471.00000</ele>
        <time>2010-01-01T00:52:43Z</time>
      </trkpt>
      <trkpt lat="42.95491200" lon="-1.82380800">
        <ele>472.00000</ele>
        <time>2010-01-01T00:53:08Z</time>
      </trkpt>
      <trkpt lat="42.95451500" lon="-1.82360100">
        <ele>475.00000</ele>
        <time>2010-01-01T00:53:25Z</time>
      </trkpt>
      <trkpt lat="42.95406800" lon="-1.82346000">
        <ele>475.00000</ele>
        <time>2010-01-01T00:53:43Z</time>
      </trkpt>
      <trkpt lat="42.95391700" lon="-1.82341100">
        <ele>474.00000</ele>
        <time>2010-01-01T00:53:50Z</time>
      </trkpt>
      <trkpt lat="42.95380200" lon="-1.82341200">
        <ele>473.00000</ele>
        <time>2010-01-01T00:53:54Z</time>
      </trkpt>
      <trkpt lat="42.95376900" lon="-1.82341100">
        <ele>472.00000</ele>
        <time>2010-01-01T00:53:55Z</time>
      </trkpt>
      <trkpt lat="42.95349400" lon="-1.82353900">
        <ele>469.00000</ele>
        <time>2010-01-01T00:54:07Z</time>
      </trkpt>
      <trkpt lat="42.95346700" lon="-1.82356100">
        <ele>468.00000</ele>
        <time>2010-01-01T00:54:08Z</time>
      </trkpt>
      <trkpt lat="42.95327200" lon="-1.82371800">
        <ele>466.00000</ele>
        <time>2010-01-01T00:54:17Z</time>
      </trkpt>
      <trkpt lat="42.95281500" lon="-1.82415500">
        <ele>470.00000</ele>
        <time>2010-01-01T00:54:40Z</time>
      </trkpt>
      <trkpt lat="42.95279200" lon="-1.82418000">
        <ele>470.00000</ele>
        <time>2010-01-01T00:54:41Z</time>
      </trkpt>
      <trkpt lat="42.95258700" lon="-1.82439300">
        <ele>473.00000</ele>
        <time>2010-01-01T00:54:51Z</time>
      </trkpt>
      <trkpt lat="42.95231400" lon="-1.82463500">
        <ele>474.00000</ele>
        <time>2010-01-01T00:55:04Z</time>
      </trkpt>
      <trkpt lat="42.95210700" lon="-1.82563000">
        <ele>481.00000</ele>
        <time>2010-01-01T00:55:35Z</time>
      </trkpt>
      <trkpt lat="42.95172600" lon="-1.82591400">
        <ele>477.00000</ele>
        <time>2010-01-01T00:55:52Z</time>
      </trkpt>
      <trkpt lat="42.95152900" lon="-1.82614600">
        <ele>476.00000</ele>
        <time>2010-01-01T00:56:02Z</time>
      </trkpt>
      <trkpt lat="42.95145500" lon="-1.82630700">
        <ele>477.00000</ele>
        <time>2010-01-01T00:56:08Z</time>
      </trkpt>
      <trkpt lat="42.95091000" lon="-1.82649400">
        <ele>473.00000</ele>
        <time>2010-01-01T00:56:30Z</time>
      </trkpt>
      <trkpt lat="42.95075600" lon="-1.82662600">
        <ele>472.00000</ele>
        <time>2010-01-01T00:56:38Z</time>
      </trkpt>
      <trkpt lat="42.95065600" lon="-1.82672000">
        <ele>471.00000</ele>
        <time>2010-01-01T00:56:43Z</time>
      </trkpt>
      <trkpt lat="42.95057000" lon="-1.82666600">
        <ele>470.00000</ele>
        <time>2010-01-01T00:56:46Z</time>
      </trkpt>
      <trkpt lat="42.95044600" lon="-1.82666900">
        <ele>468.00000</ele>
        <time>2010-01-01T00:56:51Z</time>
      </trkpt>
      <trkpt lat="42.94994300" lon="-1.82721200">
        <ele>474.00000</ele>
        <time>2010-01-01T00:57:17Z</time>
      </trkpt>
      <trkpt lat="42.94935200" lon="-1.82769000">
        <ele>478.00000</ele>
        <time>2010-01-01T00:57:44Z</time>
      </trkpt>
      <trkpt lat="42.94886200" lon="-1.82798600">
        <ele>472.00000</ele>
        <time>2010-01-01T00:58:06Z</time>
      </trkpt>
      <trkpt lat="42.94825300" lon="-1.82824300">
        <ele>476.00000</ele>
        <time>2010-01-01T00:58:31Z</time>
      </trkpt>
      <trkpt lat="42.94771000" lon="-1.82844300">
        <ele>477.00000</ele>
        <time>2010-01-01T00:58:54Z</time>
      </trkpt>
      <trkpt lat="42.94690000" lon="-1.82870900">
        <ele>469.00000</ele>
        <time>2010-01-01T00:59:27Z</time>
      </trkpt>
      <trkpt lat="42.94614200" lon="-1.82893800">
        <ele>469.00000</ele>
        <time>2010-01-01T00:59:58Z</time>
      </trkpt>
      <trkpt lat="42.94544900" lon="-1.82921300">
        <ele>471.00000</ele>
        <time>2010-01-01T01:00:27Z</time>
      </trkpt>
      <trkpt lat="42.94476900" lon="-1.82944200">
        <ele>475.00000</ele>
        <time>2010-01-01T01:00:55Z</time>
      </trkpt>
      <trkpt lat="42.94472800" lon="-1.82943200">
        <ele>474.00000</ele>
        <time>2010-01-01T01:00:57Z</time>
      </trkpt>
      <trkpt lat="42.94469300" lon="-1.82942500">
        <ele>474.00000</ele>
        <time>2010-01-01T01:00:58Z</time>
      </trkpt>
      <trkpt lat="42.94465500" lon="-1.82940700">
        <ele>473.00000</ele>
        <time>2010-01-01T01:01:00Z</time>
      </trkpt>
      <trkpt lat="42.94464000" lon="-1.82937900">
        <ele>472.00000</ele>
        <time>2010-01-01T01:01:01Z</time>
      </trkpt>
      <trkpt lat="42.94461100" lon="-1.82936000">
        <ele>471.00000</ele>
        <time>2010-01-01T01:01:02Z</time>
      </trkpt>
      <trkpt lat="42.94457500" lon="-1.82934600">
        <ele>471.00000</ele>
        <time>2010-01-01T01:01:04Z</time>
      </trkpt>
      <trkpt lat="42.94454200" lon="-1.82935200">
        <ele>471.00000</ele>
        <time>2010-01-01T01:01:05Z</time>
      </trkpt>
      <trkpt lat="42.94445200" lon="-1.82931100">
        <ele>469.00000</ele>
        <time>2010-01-01T01:01:09Z</time>
      </trkpt>
      <trkpt lat="42.94441400" lon="-1.82931100">
        <ele>470.00000</ele>
        <time>2010-01-01T01:01:10Z</time>
      </trkpt>
      <trkpt lat="42.94437700" lon="-1.82931500">
        <ele>471.00000</ele>
        <time>2010-01-01T01:01:12Z</time>
      </trkpt>
      <trkpt lat="42.94428100" lon="-1.82930200">
        <ele>473.00000</ele>
        <time>2010-01-01T01:01:16Z</time>
      </trkpt>
      <trkpt lat="42.94415100" lon="-1.82924800">
        <ele>474.00000</ele>
        <time>2010-01-01T01:01:21Z</time>
      </trkpt>
      <trkpt lat="42.94406800" lon="-1.82919100">
        <ele>475.00000</ele>
        <time>2010-01-01T01:01:25Z</time>
      </trkpt>
      <trkpt lat="42.94372700" lon="-1.82875600">
        <ele>476.00000</ele>
        <time>2010-01-01T01:01:44Z</time>
      </trkpt>
      <trkpt lat="42.94353900" lon="-1.82829000">
        <ele>475.00000</ele>
        <time>2010-01-01T01:01:59Z</time>
      </trkpt>
      <trkpt lat="42.94346500" lon="-1.82803500">
        <ele>474.00000</ele>
        <time>2010-01-01T01:02:07Z</time>
      </trkpt>
      <trkpt lat="42.94334200" lon="-1.82734500">
        <ele>472.00000</ele>
        <time>2010-01-01T01:02:28Z</time>
      </trkpt>
      <trkpt lat="42.94327700" lon="-1.82696400">
        <ele>474.00000</ele>
        <time>2010-01-01T01:02:40Z</time>
      </trkpt>
      <trkpt lat="42.94315100" lon="-1.82670900">
        <ele>476.00000</ele>
        <time>2010-01-01T01:02:49Z</time>
      </trkpt>
      <trkpt lat="42.94297700" lon="-1.82633200">
        <ele>476.00000</ele>
        <time>2010-01-01T01:03:02Z</time>
      </trkpt>
      <trkpt lat="42.94291700" lon="-1.82553200">
        <ele>470.00000</ele>
        <time>2010-01-01T01:03:25Z</time>
      </trkpt>
      <trkpt lat="42.94287500" lon="-1.82532400">
        <ele>471.00000</ele>
        <time>2010-01-01T01:03:31Z</time>
      </trkpt>
      <trkpt lat="42.94265500" lon="-1.82456500">
        <ele>468.00000</ele>
        <time>2010-01-01T01:03:55Z</time>
      </trkpt>
      <trkpt lat="42.94243600" lon="-1.82405000">
        <ele>471.00000</ele>
        <time>2010-01-01T01:04:13Z</time>
      </trkpt>
      <trkpt lat="42.94205900" lon="-1.82361300">
        <ele>465.00000</ele>
        <time>2010-01-01T01:04:33Z</time>
      </trkpt>
      <trkpt lat="42.94172200" lon="-1.82368000">
        <ele>465.00000</ele>
        <time>2010-01-01T01:04:46Z</time>
      </trkpt>
      <trkpt lat="42.94115100" lon="-1.82418000">
        <ele>464.00000</ele>
        <time>2010-01-01T01:05:13Z</time>
      </trkpt>
      <trkpt lat="42.94108000" lon="-1.82426500">
        <ele>463.00000</ele>
        <time>2010-01-01T01:05:17Z</time>
      </trkpt>
      <trkpt lat="42.94086200" lon="-1.82446200">
        <ele>462.00000</ele>
        <time>2010-01-01T01:05:28Z</time>
      </trkpt>
      <trkpt lat="42.94073700" lon="-1.82455800">
        <ele>463.00000</ele>
        <time>2010-01-01T01:05:33Z</time>
      </trkpt>
      <trkpt lat="42.94056500" lon="-1.82480900">
        <ele>464.00000</ele>
        <time>2010-01-01T01:05:44Z</time>
      </trkpt>
      <trkpt lat="42.94047800" lon="-1.82496700">
        <ele>466.00000</ele>
        <time>2010-01-01T01:05:49Z</time>
      </trkpt>
      <trkpt lat="42.94035900" lon="-1.82518700">
        <ele>466.00000</ele>
        <time>2010-01-01T01:05:57Z</time>
      </trkpt>
      <trkpt lat="42.94028700" lon="-1.82548900">
        <ele>468.00000</ele>
        <time>2010-01-01T01:06:07Z</time>
      </trkpt>
      <trkpt lat="42.94025800" lon="-1.82563400">
        <ele>469.00000</ele>
        <time>2010-01-01T01:06:11Z</time>
      </trkpt>
      <trkpt lat="42.94022400" lon="-1.82586900">
        <ele>472.00000</ele>
        <time>2010-01-01T01:06:18Z</time>
      </trkpt>
      <trkpt lat="42.94015600" lon="-1.82605300">
        <ele>474.00000</ele>
        <time>2010-01-01T01:06:24Z</time>
      </trkpt>
      <trkpt lat="42.94012100" lon="-1.82620500">
        <ele>475.00000</ele>
        <time>2010-01-01T01:06:29Z</time>
      </trkpt>
      <trkpt lat="42.94007300" lon="-1.82633600">
        <ele>475.00000</ele>
        <time>2010-01-01T01:06:33Z</time>
      </trkpt>
      <trkpt lat="42.94001400" lon="-1.82640800">
        <ele>474.00000</ele>
        <time>2010-01-01T01:06:36Z</time>
      </trkpt>
      <trkpt lat="42.94001100" lon="-1.82641400">
        <ele>474.00000</ele>
        <time>2010-01-01T01:06:36Z</time>
      </trkpt>
      <trkpt lat="42.93987600" lon="-1.82650700">
        <ele>472.00000</ele>
        <time>2010-01-01T01:06:42Z</time>
      </trkpt>
      <trkpt lat="42.93973200" lon="-1.82666000">
        <ele>470.00000</ele>
        <time>2010-01-01T01:06:50Z</time>
      </trkpt>
      <trkpt lat="42.93958300" lon="-1.82665800">
        <ele>466.00000</ele>
        <time>2010-01-01T01:06:56Z</time>
      </trkpt>
      <trkpt lat="42.93954200" lon="-1.82665400">
        <ele>465.00000</ele>
        <time>2010-01-01T01:06:57Z</time>
      </trkpt>
      <trkpt lat="42.93936600" lon="-1.82695500">
        <ele>473.00000</ele>
        <time>2010-01-01T01:07:09Z</time>
      </trkpt>
      <trkpt lat="42.93926600" lon="-1.82708500">
        <ele>477.00000</ele>
        <time>2010-01-01T01:07:14Z</time>
      </trkpt>
      <trkpt lat="42.93917500" lon="-1.82712900">
        <ele>476.00000</ele>
        <time>2010-01-01T01:07:18Z</time>
      </trkpt>
      <trkpt lat="42.93906000" lon="-1.82718300">
        <ele>475.00000</ele>
        <time>2010-01-01T01:07:23Z</time>
      </trkpt>
      <trkpt lat="42.93901700" lon="-1.82717200">
        <ele>474.00000</ele>
        <time>2010-01-01T01:07:25Z</time>
      </trkpt>
      <trkpt lat="42.93896200" lon="-1.82718400">
        <ele>472.00000</ele>
        <time>2010-01-01T01:07:27Z</time>
      </trkpt>
      <trkpt lat="42.93875100" lon="-1.82722600">
        <ele>468.00000</ele>
        <time>2010-01-01T01:07:35Z</time>
      </trkpt>
      <trkpt lat="42.93864000" lon="-1.82729800">
        <ele>467.00000</ele>
        <time>2010-01-01T01:07:40Z</time>
      </trkpt>
      <trkpt lat="42.93841200" lon="-1.82767500">
        <ele>470.00000</ele>
        <time>2010-01-01T01:07:55Z</time>
      </trkpt>
      <trkpt lat="42.93816200" lon="-1.82806000">
        <ele>470.00000</ele>
        <time>2010-01-01T01:08:10Z</time>
      </trkpt>
      <trkpt lat="42.93790600" lon="-1.82845100">
        <ele>467.00000</ele>
        <time>2010-01-01T01:08:25Z</time>
      </trkpt>
      <trkpt lat="42.93782700" lon="-1.82858300">
        <ele>466.00000</ele>
        <time>2010-01-01T01:08:30Z</time>
      </trkpt>
      <trkpt lat="42.93760100" lon="-1.82902100">
        <ele>466.00000</ele>
        <time>2010-01-01T01:08:46Z</time>
      </trkpt>
      <trkpt lat="42.93741100" lon="-1.82948000">
        <ele>471.00000</ele>
        <time>2010-01-01T01:09:01Z</time>
      </trkpt>
      <trkpt lat="42.93720200" lon="-1.82991100">
        <ele>471.00000</ele>
        <time>2010-01-01T01:09:16Z</time>
      </trkpt>
      <trkpt lat="42.93705000" lon="-1.83016200">
        <ele>470.00000</ele>
        <time>2010-01-01T01:09:26Z</time>
      </trkpt>
      <trkpt lat="42.93684700" lon="-1.83045900">
        <ele>469.00000</ele>
        <time>2010-01-01T01:09:38Z</time>
      </trkpt>
      <trkpt lat="42.93672900" lon="-1.83055100">
        <ele>468.00000</ele>
        <time>2010-01-01T01:09:43Z</time>
      </trkpt>
      <trkpt lat="42.93671200" lon="-1.83055800">
        <ele>468.00000</ele>
        <time>2010-01-01T01:09:44Z</time>
      </trkpt>
      <trkpt lat="42.93663400" lon="-1.83066300">
        <ele>469.00000</ele>
        <time>2010-01-01T01:09:48Z</time>
      </trkpt>
      <trkpt lat="42.93651100" lon="-1.83080400">
        <ele>470.00000</ele>
        <time>2010-01-01T01:09:55Z</time>
      </trkpt>
      <trkpt lat="42.93636100" lon="-1.83092900">
        <ele>471.00000</ele>
        <time>2010-01-01T01:10:02Z</time>
      </trkpt>
      <trkpt lat="42.93619200" lon="-1.83098200">
        <ele>471.00000</ele>
        <time>2010-01-01T01:10:09Z</time>
      </trkpt>
      <trkpt lat="42.93601600" lon="-1.83096900">
        <ele>470.00000</ele>
        <time>2010-01-01T01:10:16Z</time>
      </trkpt>
      <trkpt lat="42.93599400" lon="-1.83097000">
        <ele>470.00000</ele>
        <time>2010-01-01T01:10:17Z</time>
      </trkpt>
      <trkpt lat="42.93578300" lon="-1.83102200">
        <ele>470.00000</ele>
        <time>2010-01-01T01:10:25Z</time>
      </trkpt>
      <trkpt lat="42.93561600" lon="-1.83105700">
        <ele>471.00000</ele>
        <time>2010-01-01T01:10:32Z</time>
      </trkpt>
      <trkpt lat="42.93551400" lon="-1.83100600">
        <ele>471.00000</ele>
        <time>2010-01-01T01:10:36Z</time>
      </trkpt>
      <trkpt lat="42.93523400" lon="-1.83092100">
        <ele>472.00000</ele>
        <time>2010-01-01T01:10:48Z</time>
      </trkpt>
      <trkpt lat="42.93504100" lon="-1.83086700">
        <ele>471.00000</ele>
        <time>2010-01-01T01:10:56Z</time>
      </trkpt>
      <trkpt lat="42.93477200" lon="-1.83089300">
        <ele>471.00000</ele>
        <time>2010-01-01T01:11:07Z</time>
      </trkpt>
      <trkpt lat="42.93451200" lon="-1.83080900">
        <ele>470.00000</ele>
        <time>2010-01-01T01:11:17Z</time>
      </trkpt>
      <trkpt lat="42.93417300" lon="-1.83065500">
        <ele>470.00000</ele>
        <time>2010-01-01T01:11:32Z</time>
      </trkpt>
      <trkpt lat="42.93393200" lon="-1.83056000">
        <ele>469.00000</ele>
        <time>2010-01-01T01:11:42Z</time>
      </trkpt>
      <trkpt lat="42.93386400" lon="-1.83054800">
        <ele>470.00000</ele>
        <time>2010-01-01T01:11:44Z</time>
      </trkpt>
      <trkpt lat="42.93382900" lon="-1.83049100">
        <ele>469.00000</ele>
        <time>2010-01-01T01:11:47Z</time>
      </trkpt>
      <trkpt lat="42.93363100" lon="-1.83022000">
        <ele>464.00000</ele>
        <time>2010-01-01T01:11:58Z</time>
      </trkpt>
      <trkpt lat="42.93341600" lon="-1.83005500">
        <ele>462.00000</ele>
        <time>2010-01-01T01:12:08Z</time>
      </trkpt>
      <trkpt lat="42.93332000" lon="-1.83009000">
        <ele>464.00000</ele>
        <time>2010-01-01T01:12:12Z</time>
      </trkpt>
      <trkpt lat="42.93305200" lon="-1.83025500">
        <ele>472.00000</ele>
        <time>2010-01-01T01:12:23Z</time>
      </trkpt>
      <trkpt lat="42.93289300" lon="-1.83035600">
        <ele>473.00000</ele>
        <time>2010-01-01T01:12:30Z</time>
      </trkpt>
      <trkpt lat="42.93274300" lon="-1.83045600">
        <ele>473.00000</ele>
        <time>2010-01-01T01:12:37Z</time>
      </trkpt>
      <trkpt lat="42.93255000" lon="-1.83044200">
        <ele>470.00000</ele>
        <time>2010-01-01T01:12:45Z</time>
      </trkpt>
      <trkpt lat="42.93250300" lon="-1.83035600">
        <ele>468.00000</ele>
        <time>2010-01-01T01:12:48Z</time>
      </trkpt>
      <trkpt lat="42.93242500" lon="-1.83027800">
        <ele>467.00000</ele>
        <time>2010-01-01T01:12:52Z</time>
      </trkpt>
      <trkpt lat="42.93224000" lon="-1.83033900">
        <ele>468.00000</ele>
        <time>2010-01-01T01:13:00Z</time>
      </trkpt>
      <trkpt lat="42.93214700" lon="-1.83040500">
        <ele>470.00000</ele>
        <time>2010-01-01T01:13:04Z</time>
      </trkpt>
      <trkpt lat="42.93205100" lon="-1.83039300">
        <ele>471.00000</ele>
        <time>2010-01-01T01:13:08Z</time>
      </trkpt>
      <trkpt lat="42.93184000" lon="-1.83041200">
        <ele>472.00000</ele>
        <time>2010-01-01T01:13:16Z</time>
      </trkpt>
      <trkpt lat="42.93165900" lon="-1.83037600">
        <ele>473.00000</ele>
        <time>2010-01-01T01:13:23Z</time>
      </trkpt>
      <trkpt lat="42.93151300" lon="-1.83026100">
        <ele>473.00000</ele>
        <time>2010-01-01T01:13:30Z</time>
      </trkpt>
      <trkpt lat="42.93146500" lon="-1.83028800">
        <ele>475.00000</ele>
        <time>2010-01-01T01:13:32Z</time>
      </trkpt>
      <trkpt lat="42.93138700" lon="-1.83028100">
        <ele>476.00000</ele>
        <time>2010-01-01T01:13:35Z</time>
      </trkpt>
      <trkpt lat="42.93124500" lon="-1.83029300">
        <ele>479.00000</ele>
        <time>2010-01-01T01:13:41Z</time>
      </trkpt>
      <trkpt lat="42.93121700" lon="-1.83030200">
        <ele>480.00000</ele>
        <time>2010-01-01T01:13:42Z</time>
      </trkpt>
      <trkpt lat="42.93110500" lon="-1.83030900">
        <ele>482.00000</ele>
        <time>2010-01-01T01:13:47Z</time>
      </trkpt>
      <trkpt lat="42.93101700" lon="-1.83032000">
        <ele>484.00000</ele>
        <time>2010-01-01T01:13:50Z</time>
      </trkpt>
      <trkpt lat="42.93101000" lon="-1.83032600">
        <ele>484.00000</ele>
        <time>2010-01-01T01:13:51Z</time>
      </trkpt>
      <trkpt lat="42.93087700" lon="-1.83036100">
        <ele>488.00000</ele>
        <time>2010-01-01T01:13:56Z</time>
      </trkpt>
      <trkpt lat="42.93084000" lon="-1.83036200">
        <ele>489.00000</ele>
        <time>2010-01-01T01:13:57Z</time>
      </trkpt>
      <trkpt lat="42.93074300" lon="-1.83023500">
        <ele>488.00000</ele>
        <time>2010-01-01T01:14:03Z</time>
      </trkpt>
      <trkpt lat="42.93071600" lon="-1.83016600">
        <ele>487.00000</ele>
        <time>2010-01-01T01:14:05Z</time>
      </trkpt>
      <trkpt lat="42.93059900" lon="-1.83000500">
        <ele>485.00000</ele>
        <time>2010-01-01T01:14:12Z</time>
      </trkpt>
      <trkpt lat="42.93052900" lon="-1.82982100">
        <ele>484.00000</ele>
        <time>2010-01-01T01:14:18Z</time>
      </trkpt>
      <trkpt lat="42.93048700" lon="-1.82968600">
        <ele>483.00000</ele>
        <time>2010-01-01T01:14:22Z</time>
      </trkpt>
      <trkpt lat="42.93047100" lon="-1.82964000">
        <ele>483.00000</ele>
        <time>2010-01-01T01:14:24Z</time>
      </trkpt>
      <trkpt lat="42.93045500" lon="-1.82912200">
        <ele>476.00000</ele>
        <time>2010-01-01T01:14:39Z</time>
      </trkpt>
      <trkpt lat="42.93045500" lon="-1.82909700">
        <ele>476.00000</ele>
        <time>2010-01-01T01:14:40Z</time>
      </trkpt>
      <trkpt lat="42.93048100" lon="-1.82890200">
        <ele>472.00000</ele>
        <time>2010-01-01T01:14:45Z</time>
      </trkpt>
      <trkpt lat="42.93043300" lon="-1.82888800">
        <ele>474.00000</ele>
        <time>2010-01-01T01:14:47Z</time>
      </trkpt>
      <trkpt lat="42.93038000" lon="-1.82880800">
        <ele>474.00000</ele>
        <time>2010-01-01T01:14:50Z</time>
      </trkpt>
      <trkpt lat="42.93035500" lon="-1.82890000">
        <ele>476.00000</ele>
        <time>2010-01-01T01:14:53Z</time>
      </trkpt>
      <trkpt lat="42.93027500" lon="-1.82888700">
        <ele>479.00000</ele>
        <time>2010-01-01T01:14:57Z</time>
      </trkpt>
      <trkpt lat="42.93020400" lon="-1.82884600">
        <ele>480.00000</ele>
        <time>2010-01-01T01:15:00Z</time>
      </trkpt>
      <trkpt lat="42.92995900" lon="-1.82870100">
        <ele>484.00000</ele>
        <time>2010-01-01T01:15:10Z</time>
      </trkpt>
      <trkpt lat="42.92991200" lon="-1.82869300">
        <ele>483.00000</ele>
        <time>2010-01-01T01:15:12Z</time>
      </trkpt>
      <trkpt lat="42.92980600" lon="-1.82856900">
        <ele>480.00000</ele>
        <time>2010-01-01T01:15:18Z</time>
      </trkpt>
      <trkpt lat="42.92974300" lon="-1.82848200">
        <ele>476.00000</ele>
        <time>2010-01-01T01:15:21Z</time>
      </trkpt>
      <trkpt lat="42.92969800" lon="-1.82851000">
        <ele>476.00000</ele>
        <time>2010-01-01T01:15:23Z</time>
      </trkpt>
      <trkpt lat="42.92964200" lon="-1.82846100">
        <ele>474.00000</ele>
        <time>2010-01-01T01:15:26Z</time>
      </trkpt>
      <trkpt lat="42.92970100" lon="-1.82846100">
        <ele>475.00000</ele>
        <time>2010-01-01T01:15:28Z</time>
      </trkpt>
      <trkpt lat="42.92980300" lon="-1.82841900">
        <ele>476.00000</ele>
        <time>2010-01-01T01:15:33Z</time>
      </trkpt>
      <trkpt lat="42.92980400" lon="-1.82840900">
        <ele>476.00000</ele>
        <time>2010-01-01T01:15:33Z</time>
      </trkpt>
      <trkpt lat="42.92986100" lon="-1.82822800">
        <ele>477.00000</ele>
        <time>2010-01-01T01:15:39Z</time>
      </trkpt>
      <trkpt lat="42.92967600" lon="-1.82824200">
        <ele>474.00000</ele>
        <time>2010-01-01T01:15:46Z</time>
      </trkpt>
      <trkpt lat="42.92961100" lon="-1.82821200">
        <ele>474.00000</ele>
        <time>2010-01-01T01:15:49Z</time>
      </trkpt>
      <trkpt lat="42.92947800" lon="-1.82817400">
        <ele>473.00000</ele>
        <time>2010-01-01T01:15:54Z</time>
      </trkpt>
      <trkpt lat="42.92936100" lon="-1.82819200">
        <ele>474.00000</ele>
        <time>2010-01-01T01:15:59Z</time>
      </trkpt>
      <trkpt lat="42.92928300" lon="-1.82819400">
        <ele>476.00000</ele>
        <time>2010-01-01T01:16:02Z</time>
      </trkpt>
      <trkpt lat="42.92922800" lon="-1.82815100">
        <ele>476.00000</ele>
        <time>2010-01-01T01:16:05Z</time>
      </trkpt>
      <trkpt lat="42.92896500" lon="-1.82806400">
        <ele>468.00000</ele>
        <time>2010-01-01T01:16:16Z</time>
      </trkpt>
      <trkpt lat="42.92889500" lon="-1.82811200">
        <ele>468.00000</ele>
        <time>2010-01-01T01:16:19Z</time>
      </trkpt>
      <trkpt lat="42.92859800" lon="-1.82825000">
        <ele>465.00000</ele>
        <time>2010-01-01T01:16:31Z</time>
      </trkpt>
      <trkpt lat="42.92849800" lon="-1.82831200">
        <ele>465.00000</ele>
        <time>2010-01-01T01:16:36Z</time>
      </trkpt>
      <trkpt lat="42.92831000" lon="-1.82840200">
        <ele>461.00000</ele>
        <time>2010-01-01T01:16:44Z</time>
      </trkpt>
      <trkpt lat="42.92813700" lon="-1.82853000">
        <ele>456.00000</ele>
        <time>2010-01-01T01:16:51Z</time>
      </trkpt>
      <trkpt lat="42.92812700" lon="-1.82848700">
        <ele>457.00000</ele>
        <time>2010-01-01T01:16:53Z</time>
      </trkpt>
      <trkpt lat="42.92813700" lon="-1.82848700">
        <ele>457.00000</ele>
        <time>2010-01-01T01:16:53Z</time>
      </trkpt>
      <trkpt lat="42.92813500" lon="-1.82848600">
        <ele>457.00000</ele>
        <time>2010-01-01T01:16:53Z</time>
      </trkpt>
      <trkpt lat="42.92806400" lon="-1.82836700">
        <ele>459.00000</ele>
        <time>2010-01-01T01:16:58Z</time>
      </trkpt>
      <trkpt lat="42.92803300" lon="-1.82834200">
        <ele>459.00000</ele>
        <time>2010-01-01T01:16:59Z</time>
      </trkpt>
      <trkpt lat="42.92799200" lon="-1.82831100">
        <ele>459.00000</ele>
        <time>2010-01-01T01:17:01Z</time>
      </trkpt>
      <trkpt lat="42.92791800" lon="-1.82835900">
        <ele>456.00000</ele>
        <time>2010-01-01T01:17:04Z</time>
      </trkpt>
      <trkpt lat="42.92784000" lon="-1.82844800">
        <ele>453.00000</ele>
        <time>2010-01-01T01:17:08Z</time>
      </trkpt>
      <trkpt lat="42.92750500" lon="-1.82872100">
        <ele>441.00000</ele>
        <time>2010-01-01T01:17:24Z</time>
      </trkpt>
      <trkpt lat="42.92750200" lon="-1.82872000">
        <ele>441.00000</ele>
        <time>2010-01-01T01:17:24Z</time>
      </trkpt>
      <trkpt lat="42.92731600" lon="-1.82886900">
        <ele>434.00000</ele>
        <time>2010-01-01T01:17:33Z</time>
      </trkpt>
      <trkpt lat="42.92729100" lon="-1.82890100">
        <ele>433.00000</ele>
        <time>2010-01-01T01:17:34Z</time>
      </trkpt>
      <trkpt lat="42.92731000" lon="-1.82892600">
        <ele>434.00000</ele>
        <time>2010-01-01T01:17:35Z</time>
      </trkpt>
      <trkpt lat="42.92733000" lon="-1.82891100">
        <ele>434.00000</ele>
        <time>2010-01-01T01:17:36Z</time>
      </trkpt>
      <trkpt lat="42.92721100" lon="-1.82893100">
        <ele>432.00000</ele>
        <time>2010-01-01T01:17:41Z</time>
      </trkpt>
      <trkpt lat="42.92682800" lon="-1.82909400">
        <ele>435.00000</ele>
        <time>2010-01-01T01:17:57Z</time>
      </trkpt>
      <trkpt lat="42.92638100" lon="-1.82925000">
        <ele>437.00000</ele>
        <time>2010-01-01T01:18:16Z</time>
      </trkpt>
      <trkpt lat="42.92604700" lon="-1.82941900">
        <ele>437.00000</ele>
        <time>2010-01-01T01:18:30Z</time>
      </trkpt>
      <trkpt lat="42.92561800" lon="-1.82974700">
        <ele>440.00000</ele>
        <time>2010-01-01T01:18:49Z</time>
      </trkpt>
      <trkpt lat="42.92463400" lon="-1.83100700">
        <ele>437.00000</ele>
        <time>2010-01-01T01:19:43Z</time>
      </trkpt>
      <trkpt lat="42.92437400" lon="-1.83140000">
        <ele>438.00000</ele>
        <time>2010-01-01T01:19:59Z</time>
      </trkpt>
      <trkpt lat="42.92398300" lon="-1.83187100">
        <ele>438.00000</ele>
        <time>2010-01-01T01:20:20Z</time>
      </trkpt>
      <trkpt lat="42.92351700" lon="-1.83242500">
        <ele>441.00000</ele>
        <time>2010-01-01T01:20:45Z</time>
      </trkpt>
      <trkpt lat="42.92313700" lon="-1.83285500">
        <ele>440.00000</ele>
        <time>2010-01-01T01:21:04Z</time>
      </trkpt>
      <trkpt lat="42.92270500" lon="-1.83334600">
        <ele>436.00000</ele>
        <time>2010-01-01T01:21:27Z</time>
      </trkpt>
      <trkpt lat="42.92239900" lon="-1.83371600">
        <ele>436.00000</ele>
        <time>2010-01-01T01:21:43Z</time>
      </trkpt>
      <trkpt lat="42.92201800" lon="-1.83417700">
        <ele>437.00000</ele>
        <time>2010-01-01T01:22:04Z</time>
      </trkpt>
      <trkpt lat="42.92169200" lon="-1.83460900">
        <ele>438.00000</ele>
        <time>2010-01-01T01:22:22Z</time>
      </trkpt>
      <trkpt lat="42.92149300" lon="-1.83486900">
        <ele>437.00000</ele>
        <time>2010-01-01T01:22:33Z</time>
      </trkpt>
      <trkpt lat="42.92110100" lon="-1.83537900">
        <ele>434.00000</ele>
        <time>2010-01-01T01:22:54Z</time>
      </trkpt>
      <trkpt lat="42.92073900" lon="-1.83589000">
        <ele>435.00000</ele>
        <time>2010-01-01T01:23:15Z</time>
      </trkpt>
      <trkpt lat="42.92033500" lon="-1.83640800">
        <ele>435.00000</ele>
        <time>2010-01-01T01:23:37Z</time>
      </trkpt>
      <trkpt lat="42.92004000" lon="-1.83671000">
        <ele>435.00000</ele>
        <time>2010-01-01T01:23:52Z</time>
      </trkpt>
      <trkpt lat="42.91993200" lon="-1.83672800">
        <ele>436.00000</ele>
        <time>2010-01-01T01:23:57Z</time>
      </trkpt>
      <trkpt lat="42.91972400" lon="-1.83696300">
        <ele>437.00000</ele>
        <time>2010-01-01T01:24:07Z</time>
      </trkpt>
      <trkpt lat="42.91965700" lon="-1.83709000">
        <ele>437.00000</ele>
        <time>2010-01-01T01:24:12Z</time>
      </trkpt>
      <trkpt lat="42.91943700" lon="-1.83760000">
        <ele>441.00000</ele>
        <time>2010-01-01T01:24:29Z</time>
      </trkpt>
      <trkpt lat="42.91912300" lon="-1.83805000">
        <ele>442.00000</ele>
        <time>2010-01-01T01:24:48Z</time>
      </trkpt>
      <trkpt lat="42.91903100" lon="-1.83804700">
        <ele>442.00000</ele>
        <time>2010-01-01T01:24:51Z</time>
      </trkpt>
      <trkpt lat="42.91902200" lon="-1.83803900">
        <ele>442.00000</ele>
        <time>2010-01-01T01:24:52Z</time>
      </trkpt>
      <trkpt lat="42.91886100" lon="-1.83793900">
        <ele>441.00000</ele>
        <time>2010-01-01T01:24:59Z</time>
      </trkpt>
      <trkpt lat="42.91877100" lon="-1.83780000">
        <ele>441.00000</ele>
        <time>2010-01-01T01:25:04Z</time>
      </trkpt>
      <trkpt lat="42.91871000" lon="-1.83760400">
        <ele>439.00000</ele>
        <time>2010-01-01T01:25:10Z</time>
      </trkpt>
      <trkpt lat="42.91859000" lon="-1.83738000">
        <ele>437.00000</ele>
        <time>2010-01-01T01:25:19Z</time>
      </trkpt>
      <trkpt lat="42.91855000" lon="-1.83705200">
        <ele>434.00000</ele>
        <time>2010-01-01T01:25:28Z</time>
      </trkpt>
      <trkpt lat="42.91859300" lon="-1.83586300">
        <ele>431.00000</ele>
        <time>2010-01-01T01:26:03Z</time>
      </trkpt>
      <trkpt lat="42.91861300" lon="-1.83560300">
        <ele>432.00000</ele>
        <time>2010-01-01T01:26:11Z</time>
      </trkpt>
      <trkpt lat="42.91862100" lon="-1.83532800">
        <ele>433.00000</ele>
        <time>2010-01-01T01:26:19Z</time>
      </trkpt>
      <trkpt lat="42.91857300" lon="-1.83510700">
        <ele>434.00000</ele>
        <time>2010-01-01T01:26:26Z</time>
      </trkpt>
      <trkpt lat="42.91866400" lon="-1.83471500">
        <ele>435.00000</ele>
        <time>2010-01-01T01:26:38Z</time>
      </trkpt>
      <trkpt lat="42.91868900" lon="-1.83450200">
        <ele>435.00000</ele>
        <time>2010-01-01T01:26:44Z</time>
      </trkpt>
      <trkpt lat="42.91876100" lon="-1.83362300">
        <ele>437.00000</ele>
        <time>2010-01-01T01:27:10Z</time>
      </trkpt>
      <trkpt lat="42.91880100" lon="-1.83295000">
        <ele>441.00000</ele>
        <time>2010-01-01T01:27:30Z</time>
      </trkpt>
      <trkpt lat="42.91885700" lon="-1.83215400">
        <ele>443.00000</ele>
        <time>2010-01-01T01:27:53Z</time>
      </trkpt>
      <trkpt lat="42.91889400" lon="-1.83158000">
        <ele>442.00000</ele>
        <time>2010-01-01T01:28:10Z</time>
      </trkpt>
      <trkpt lat="42.91895100" lon="-1.83097600">
        <ele>445.00000</ele>
        <time>2010-01-01T01:28:28Z</time>
      </trkpt>
      <trkpt lat="42.91897500" lon="-1.83048700">
        <ele>451.00000</ele>
        <time>2010-01-01T01:28:42Z</time>
      </trkpt>
      <trkpt lat="42.91901400" lon="-1.83015600">
        <ele>458.00000</ele>
        <time>2010-01-01T01:28:52Z</time>
      </trkpt>
      <trkpt lat="42.91904900" lon="-1.82974500">
        <ele>460.00000</ele>
        <time>2010-01-01T01:29:04Z</time>
      </trkpt>
      <trkpt lat="42.91905000" lon="-1.82920600">
        <ele>462.00000</ele>
        <time>2010-01-01T01:29:20Z</time>
      </trkpt>
      <trkpt lat="42.91903300" lon="-1.82905400">
        <ele>463.00000</ele>
        <time>2010-01-01T01:29:25Z</time>
      </trkpt>
      <trkpt lat="42.91901900" lon="-1.82888100">
        <ele>465.00000</ele>
        <time>2010-01-01T01:29:30Z</time>
      </trkpt>
      <trkpt lat="42.91893900" lon="-1.82841500">
        <ele>469.00000</ele>
        <time>2010-01-01T01:29:44Z</time>
      </trkpt>
      <trkpt lat="42.91887500" lon="-1.82827000">
        <ele>470.00000</ele>
        <time>2010-01-01T01:29:49Z</time>
      </trkpt>
      <trkpt lat="42.91885900" lon="-1.82823400">
        <ele>470.00000</ele>
        <time>2010-01-01T01:29:50Z</time>
      </trkpt>
      <trkpt lat="42.91931783" lon="-1.82817220">
        <ele>475.00000</ele>
        <time>2010-01-01T01:30:08Z</time>
      </trkpt>
      <trkpt lat="42.91966353" lon="-1.82810783">
        <ele>477.00000</ele>
        <time>2010-01-01T01:30:22Z</time>
      </trkpt>
      <trkpt lat="42.91988352" lon="-1.82782888">
        <ele>479.00000</ele>
        <time>2010-01-01T01:30:34Z</time>
      </trkpt>
      <trkpt lat="42.92019780" lon="-1.82729244">
        <ele>483.00000</ele>
        <time>2010-01-01T01:30:55Z</time>
      </trkpt>
      <trkpt lat="42.92041778" lon="-1.82692766">
        <ele>485.00000</ele>
        <time>2010-01-01T01:31:08Z</time>
      </trkpt>
      <trkpt lat="42.92054349" lon="-1.82594060">
        <ele>488.00000</ele>
        <time>2010-01-01T01:31:38Z</time>
      </trkpt>
      <trkpt lat="42.92037064" lon="-1.82527542">
        <ele>495.00000</ele>
        <time>2010-01-01T01:31:58Z</time>
      </trkpt>
      <trkpt lat="42.91933355" lon="-1.82503938">
        <ele>493.00000</ele>
        <time>2010-01-01T01:32:41Z</time>
      </trkpt>
      <trkpt lat="42.91850071" lon="-1.82483553">
        <ele>492.00000</ele>
        <time>2010-01-01T01:33:14Z</time>
      </trkpt>
      <trkpt lat="42.91795858" lon="-1.82319402">
        <ele>497.00000</ele>
        <time>2010-01-01T01:34:07Z</time>
      </trkpt>
      <trkpt lat="42.91779358" lon="-1.82196021">
        <ele>497.00000</ele>
        <time>2010-01-01T01:34:44Z</time>
      </trkpt>
      <trkpt lat="42.91728287" lon="-1.82050108">
        <ele>500.00000</ele>
        <time>2010-01-01T01:35:31Z</time>
      </trkpt>
      <trkpt lat="42.91699215" lon="-1.82015776">
        <ele>502.00000</ele>
        <time>2010-01-01T01:35:47Z</time>
      </trkpt>
      <trkpt lat="42.91663858" lon="-1.81987881">
        <ele>505.00000</ele>
        <time>2010-01-01T01:36:03Z</time>
      </trkpt>
      <trkpt lat="42.91601786" lon="-1.81924581">
        <ele>502.00000</ele>
        <time>2010-01-01T01:36:34Z</time>
      </trkpt>
      <trkpt lat="42.91562499" lon="-1.81839823">
        <ele>503.00000</ele>
        <time>2010-01-01T01:37:04Z</time>
      </trkpt>
      <trkpt lat="42.91538927" lon="-1.81800127">
        <ele>506.00000</ele>
        <time>2010-01-01T01:37:18Z</time>
      </trkpt>
      <trkpt lat="42.91495712" lon="-1.81758284">
        <ele>506.00000</ele>
        <time>2010-01-01T01:37:40Z</time>
      </trkpt>
      <trkpt lat="42.91467425" lon="-1.81729316">
        <ele>509.00000</ele>
        <time>2010-01-01T01:37:54Z</time>
      </trkpt>
      <trkpt lat="42.91420280" lon="-1.81677818">
        <ele>517.00000</ele>
        <time>2010-01-01T01:38:18Z</time>
      </trkpt>
      <trkpt lat="42.91390421" lon="-1.81633830">
        <ele>519.00000</ele>
        <time>2010-01-01T01:38:36Z</time>
      </trkpt>
      <trkpt lat="42.91381778" lon="-1.81629538">
        <ele>519.00000</ele>
        <time>2010-01-01T01:38:39Z</time>
      </trkpt>
      <trkpt lat="42.91372800" lon="-1.81632000">
        <ele>519.00000</ele>
        <time>2010-01-01T01:38:43Z</time>
      </trkpt>
      <trkpt lat="42.91354600" lon="-1.81576200">
        <ele>521.00000</ele>
        <time>2010-01-01T01:39:01Z</time>
      </trkpt>
      <trkpt lat="42.91339500" lon="-1.81532500">
        <ele>525.00000</ele>
        <time>2010-01-01T01:39:15Z</time>
      </trkpt>
      <trkpt lat="42.91322500" lon="-1.81478200">
        <ele>530.00000</ele>
        <time>2010-01-01T01:39:32Z</time>
      </trkpt>
      <trkpt lat="42.91304100" lon="-1.81419300">
        <ele>534.00000</ele>
        <time>2010-01-01T01:39:51Z</time>
      </trkpt>
      <trkpt lat="42.91286800" lon="-1.81369400">
        <ele>535.00000</ele>
        <time>2010-01-01T01:40:07Z</time>
      </trkpt>
      <trkpt lat="42.91275800" lon="-1.81340800">
        <ele>537.00000</ele>
        <time>2010-01-01T01:40:17Z</time>
      </trkpt>
      <trkpt lat="42.91271100" lon="-1.81327200">
        <ele>537.00000</ele>
        <time>2010-01-01T01:40:21Z</time>
      </trkpt>
      <trkpt lat="42.91257300" lon="-1.81283700">
        <ele>538.00000</ele>
        <time>2010-01-01T01:40:35Z</time>
      </trkpt>
      <trkpt lat="42.91256400" lon="-1.81281400">
        <ele>538.00000</ele>
        <time>2010-01-01T01:40:36Z</time>
      </trkpt>
      <trkpt lat="42.91254400" lon="-1.81272900">
        <ele>538.00000</ele>
        <time>2010-01-01T01:40:38Z</time>
      </trkpt>
      <trkpt lat="42.91251000" lon="-1.81254500">
        <ele>538.00000</ele>
        <time>2010-01-01T01:40:44Z</time>
      </trkpt>
      <trkpt lat="42.91237500" lon="-1.81219000">
        <ele>536.00000</ele>
        <time>2010-01-01T01:40:56Z</time>
      </trkpt>
      <trkpt lat="42.91234700" lon="-1.81205200">
        <ele>535.00000</ele>
        <time>2010-01-01T01:41:00Z</time>
      </trkpt>
      <trkpt lat="42.91224300" lon="-1.81175400">
        <ele>531.00000</ele>
        <time>2010-01-01T01:41:10Z</time>
      </trkpt>
      <trkpt lat="42.91214900" lon="-1.81143600">
        <ele>529.00000</ele>
        <time>2010-01-01T01:41:20Z</time>
      </trkpt>
      <trkpt lat="42.91209900" lon="-1.81126700">
        <ele>529.00000</ele>
        <time>2010-01-01T01:41:25Z</time>
      </trkpt>
      <trkpt lat="42.91189200" lon="-1.81073200">
        <ele>521.00000</ele>
        <time>2010-01-01T01:41:43Z</time>
      </trkpt>
      <trkpt lat="42.91185400" lon="-1.81064700">
        <ele>520.00000</ele>
        <time>2010-01-01T01:41:46Z</time>
      </trkpt>
      <trkpt lat="42.91161700" lon="-1.81013400">
        <ele>519.00000</ele>
        <time>2010-01-01T01:42:03Z</time>
      </trkpt>
      <trkpt lat="42.91149800" lon="-1.80988200">
        <ele>518.00000</ele>
        <time>2010-01-01T01:42:12Z</time>
      </trkpt>
      <trkpt lat="42.91129300" lon="-1.80946200">
        <ele>513.00000</ele>
        <time>2010-01-01T01:42:27Z</time>
      </trkpt>
      <trkpt lat="42.91108600" lon="-1.80902100">
        <ele>510.00000</ele>
        <time>2010-01-01T01:42:42Z</time>
      </trkpt>
      <trkpt lat="42.91089200" lon="-1.80859600">
        <ele>510.00000</ele>
        <time>2010-01-01T01:42:57Z</time>
      </trkpt>
      <trkpt lat="42.91085400" lon="-1.80852000">
        <ele>509.00000</ele>
        <time>2010-01-01T01:43:00Z</time>
      </trkpt>
      <trkpt lat="42.91064200" lon="-1.80804000">
        <ele>505.00000</ele>
        <time>2010-01-01T01:43:16Z</time>
      </trkpt>
      <trkpt lat="42.91058100" lon="-1.80788400">
        <ele>504.00000</ele>
        <time>2010-01-01T01:43:21Z</time>
      </trkpt>
      <trkpt lat="42.91054900" lon="-1.80770400">
        <ele>502.00000</ele>
        <time>2010-01-01T01:43:27Z</time>
      </trkpt>
      <trkpt lat="42.91055600" lon="-1.80705400">
        <ele>500.00000</ele>
        <time>2010-01-01T01:43:46Z</time>
      </trkpt>
      <trkpt lat="42.91055700" lon="-1.80634900">
        <ele>501.00000</ele>
        <time>2010-01-01T01:44:07Z</time>
      </trkpt>
      <trkpt lat="42.91029700" lon="-1.80548800">
        <ele>498.00000</ele>
        <time>2010-01-01T01:44:34Z</time>
      </trkpt>
      <trkpt lat="42.91026100" lon="-1.80537600">
        <ele>497.00000</ele>
        <time>2010-01-01T01:44:37Z</time>
      </trkpt>
      <trkpt lat="42.90996700" lon="-1.80447100">
        <ele>497.00000</ele>
        <time>2010-01-01T01:45:06Z</time>
      </trkpt>
      <trkpt lat="42.90968400" lon="-1.80377500">
        <ele>494.00000</ele>
        <time>2010-01-01T01:45:30Z</time>
      </trkpt>
      <trkpt lat="42.90921100" lon="-1.80284000">
        <ele>492.00000</ele>
        <time>2010-01-01T01:46:03Z</time>
      </trkpt>
      <trkpt lat="42.90869000" lon="-1.80190800">
        <ele>491.00000</ele>
        <time>2010-01-01T01:46:38Z</time>
      </trkpt>
      <trkpt lat="42.90854900" lon="-1.80162200">
        <ele>491.00000</ele>
        <time>2010-01-01T01:46:48Z</time>
      </trkpt>
      <trkpt lat="42.90852500" lon="-1.80157000">
        <ele>491.00000</ele>
        <time>2010-01-01T01:46:49Z</time>
      </trkpt>
      <trkpt lat="42.90840900" lon="-1.80136900">
        <ele>490.00000</ele>
        <time>2010-01-01T01:46:57Z</time>
      </trkpt>
      <trkpt lat="42.90829800" lon="-1.80116800">
        <ele>490.00000</ele>
        <time>2010-01-01T01:47:04Z</time>
      </trkpt>
      <trkpt lat="42.90820700" lon="-1.80098000">
        <ele>490.00000</ele>
        <time>2010-01-01T01:47:11Z</time>
      </trkpt>
      <trkpt lat="42.90804700" lon="-1.80069600">
        <ele>490.00000</ele>
        <time>2010-01-01T01:47:21Z</time>
      </trkpt>
      <trkpt lat="42.90795200" lon="-1.80051300">
        <ele>491.00000</ele>
        <time>2010-01-01T01:47:28Z</time>
      </trkpt>
      <trkpt lat="42.90752700" lon="-1.79971800">
        <ele>489.00000</ele>
        <time>2010-01-01T01:47:57Z</time>
      </trkpt>
      <trkpt lat="42.90711300" lon="-1.79889500">
        <ele>486.00000</ele>
        <time>2010-01-01T01:48:26Z</time>
      </trkpt>
      <trkpt lat="42.90694200" lon="-1.79857500">
        <ele>486.00000</ele>
        <time>2010-01-01T01:48:38Z</time>
      </trkpt>
      <trkpt lat="42.90644400" lon="-1.79784800">
        <ele>485.00000</ele>
        <time>2010-01-01T01:49:07Z</time>
      </trkpt>
      <trkpt lat="42.90619400" lon="-1.79754900">
        <ele>484.00000</ele>
        <time>2010-01-01T01:49:20Z</time>
      </trkpt>
      <trkpt lat="42.90586000" lon="-1.79711300">
        <ele>483.00000</ele>
        <time>2010-01-01T01:49:39Z</time>
      </trkpt>
      <trkpt lat="42.90552100" lon="-1.79671700">
        <ele>481.00000</ele>
        <time>2010-01-01T01:49:57Z</time>
      </trkpt>
      <trkpt lat="42.90481900" lon="-1.79580300">
        <ele>474.00000</ele>
        <time>2010-01-01T01:50:35Z</time>
      </trkpt>
      <trkpt lat="42.90472600" lon="-1.79565200">
        <ele>473.00000</ele>
        <time>2010-01-01T01:50:41Z</time>
      </trkpt>
      <trkpt lat="42.90450800" lon="-1.79537700">
        <ele>473.00000</ele>
        <time>2010-01-01T01:50:53Z</time>
      </trkpt>
      <trkpt lat="42.90427400" lon="-1.79507000">
        <ele>473.00000</ele>
        <time>2010-01-01T01:51:06Z</time>
      </trkpt>
      <trkpt lat="42.90416100" lon="-1.79494200">
        <ele>472.00000</ele>
        <time>2010-01-01T01:51:12Z</time>
      </trkpt>
      <trkpt lat="42.90405000" lon="-1.79479700">
        <ele>471.00000</ele>
        <time>2010-01-01T01:51:18Z</time>
      </trkpt>
      <trkpt lat="42.90379400" lon="-1.79444800">
        <ele>469.00000</ele>
        <time>2010-01-01T01:51:33Z</time>
      </trkpt>
      <trkpt lat="42.90363900" lon="-1.79425000">
        <ele>469.00000</ele>
        <time>2010-01-01T01:51:41Z</time>
      </trkpt>
      <trkpt lat="42.90349400" lon="-1.79407200">
        <ele>469.00000</ele>
        <time>2010-01-01T01:51:49Z</time>
      </trkpt>
      <trkpt lat="42.90334100" lon="-1.79387700">
        <ele>469.00000</ele>
        <time>2010-01-01T01:51:57Z</time>
      </trkpt>
      <trkpt lat="42.90306700" lon="-1.79355500">
        <ele>470.00000</ele>
        <time>2010-01-01T01:52:12Z</time>
      </trkpt>
      <trkpt lat="42.90279800" lon="-1.79321100">
        <ele>475.00000</ele>
        <time>2010-01-01T01:52:27Z</time>
      </trkpt>
      <trkpt lat="42.90256800" lon="-1.79292600">
        <ele>482.00000</ele>
        <time>2010-01-01T01:52:39Z</time>
      </trkpt>
      <trkpt lat="42.90229100" lon="-1.79261500">
        <ele>490.00000</ele>
        <time>2010-01-01T01:52:53Z</time>
      </trkpt>
      <trkpt lat="42.90209700" lon="-1.79235800">
        <ele>492.00000</ele>
        <time>2010-01-01T01:53:04Z</time>
      </trkpt>
      <trkpt lat="42.90201400" lon="-1.79221000">
        <ele>491.00000</ele>
        <time>2010-01-01T01:53:10Z</time>
      </trkpt>
      <trkpt lat="42.90192200" lon="-1.79213000">
        <ele>490.00000</ele>
        <time>2010-01-01T01:53:14Z</time>
      </trkpt>
      <trkpt lat="42.90165900" lon="-1.79186100">
        <ele>486.00000</ele>
        <time>2010-01-01T01:53:27Z</time>
      </trkpt>
      <trkpt lat="42.90135300" lon="-1.79143900">
        <ele>482.00000</ele>
        <time>2010-01-01T01:53:45Z</time>
      </trkpt>
      <trkpt lat="42.90111800" lon="-1.79106800">
        <ele>482.00000</ele>
        <time>2010-01-01T01:53:59Z</time>
      </trkpt>
      <trkpt lat="42.90088500" lon="-1.79076100">
        <ele>483.00000</ele>
        <time>2010-01-01T01:54:12Z</time>
      </trkpt>
      <trkpt lat="42.90063500" lon="-1.79046300">
        <ele>485.00000</ele>
        <time>2010-01-01T01:54:25Z</time>
      </trkpt>
      <trkpt lat="42.90041300" lon="-1.79016700">
        <ele>487.00000</ele>
        <time>2010-01-01T01:54:38Z</time>
      </trkpt>
      <trkpt lat="42.90016700" lon="-1.78983600">
        <ele>489.00000</ele>
        <time>2010-01-01T01:54:51Z</time>
      </trkpt>
      <trkpt lat="42.89992700" lon="-1.78934200">
        <ele>488.00000</ele>
        <time>2010-01-01T01:55:09Z</time>
      </trkpt>
      <trkpt lat="42.89974500" lon="-1.78879100">
        <ele>490.00000</ele>
        <time>2010-01-01T01:55:26Z</time>
      </trkpt>
      <trkpt lat="42.89959800" lon="-1.78818500">
        <ele>490.00000</ele>
        <time>2010-01-01T01:55:45Z</time>
      </trkpt>
      <trkpt lat="42.89942500" lon="-1.78766200">
        <ele>490.00000</ele>
        <time>2010-01-01T01:56:02Z</time>
      </trkpt>
      <trkpt lat="42.89926500" lon="-1.78711900">
        <ele>491.00000</ele>
        <time>2010-01-01T01:56:19Z</time>
      </trkpt>
      <trkpt lat="42.89914100" lon="-1.78671300">
        <ele>491.00000</ele>
        <time>2010-01-01T01:56:32Z</time>
      </trkpt>
      <trkpt lat="42.89893600" lon="-1.78623000">
        <ele>493.00000</ele>
        <time>2010-01-01T01:56:48Z</time>
      </trkpt>
      <trkpt lat="42.89871700" lon="-1.78579400">
        <ele>494.00000</ele>
        <time>2010-01-01T01:57:04Z</time>
      </trkpt>
      <trkpt lat="42.89842200" lon="-1.78538300">
        <ele>495.00000</ele>
        <time>2010-01-01T01:57:21Z</time>
      </trkpt>
      <trkpt lat="42.89806900" lon="-1.78485400">
        <ele>496.00000</ele>
        <time>2010-01-01T01:57:42Z</time>
      </trkpt>
      <trkpt lat="42.89771800" lon="-1.78436000">
        <ele>493.00000</ele>
        <time>2010-01-01T01:58:02Z</time>
      </trkpt>
      <trkpt lat="42.89736700" lon="-1.78386900">
        <ele>494.00000</ele>
        <time>2010-01-01T01:58:22Z</time>
      </trkpt>
      <trkpt lat="42.89690600" lon="-1.78320900">
        <ele>499.00000</ele>
        <time>2010-01-01T01:58:49Z</time>
      </trkpt>
      <trkpt lat="42.89650800" lon="-1.78263200">
        <ele>499.00000</ele>
        <time>2010-01-01T01:59:12Z</time>
      </trkpt>
      <trkpt lat="42.89614500" lon="-1.78214100">
        <ele>497.00000</ele>
        <time>2010-01-01T01:59:33Z</time>
      </trkpt>
      <trkpt lat="42.89582000" lon="-1.78169000">
        <ele>502.00000</ele>
        <time>2010-01-01T01:59:51Z</time>
      </trkpt>
      <trkpt lat="42.89553500" lon="-1.78127600">
        <ele>504.00000</ele>
        <time>2010-01-01T02:00:08Z</time>
      </trkpt>
      <trkpt lat="42.89534300" lon="-1.78106100">
        <ele>504.00000</ele>
        <time>2010-01-01T02:00:18Z</time>
      </trkpt>
      <trkpt lat="42.89518300" lon="-1.78088600">
        <ele>505.00000</ele>
        <time>2010-01-01T02:00:26Z</time>
      </trkpt>
      <trkpt lat="42.89518300" lon="-1.78090000">
        <ele>505.00000</ele>
        <time>2010-01-01T02:00:26Z</time>
      </trkpt>
      <trkpt lat="42.89498800" lon="-1.78069300">
        <ele>506.00000</ele>
        <time>2010-01-01T02:00:36Z</time>
      </trkpt>
      <trkpt lat="42.89438900" lon="-1.78013000">
        <ele>504.00000</ele>
        <time>2010-01-01T02:01:05Z</time>
      </trkpt>
      <trkpt lat="42.89391100" lon="-1.77964100">
        <ele>506.00000</ele>
        <time>2010-01-01T02:01:29Z</time>
      </trkpt>
      <trkpt lat="42.89338100" lon="-1.77909400">
        <ele>507.00000</ele>
        <time>2010-01-01T02:01:56Z</time>
      </trkpt>
      <trkpt lat="42.89299400" lon="-1.77860500">
        <ele>513.00000</ele>
        <time>2010-01-01T02:02:17Z</time>
      </trkpt>
      <trkpt lat="42.89276300" lon="-1.77810100">
        <ele>514.00000</ele>
        <time>2010-01-01T02:02:34Z</time>
      </trkpt>
      <trkpt lat="42.89253600" lon="-1.77779700">
        <ele>516.00000</ele>
        <time>2010-01-01T02:02:47Z</time>
      </trkpt>
      <trkpt lat="42.89223800" lon="-1.77743100">
        <ele>516.00000</ele>
        <time>2010-01-01T02:03:03Z</time>
      </trkpt>
      <trkpt lat="42.89197300" lon="-1.77702500">
        <ele>517.00000</ele>
        <time>2010-01-01T02:03:19Z</time>
      </trkpt>
      <trkpt lat="42.89170100" lon="-1.77653200">
        <ele>520.00000</ele>
        <time>2010-01-01T02:03:37Z</time>
      </trkpt>
      <trkpt lat="42.89155600" lon="-1.77642100">
        <ele>521.00000</ele>
        <time>2010-01-01T02:03:44Z</time>
      </trkpt>
      <trkpt lat="42.89134800" lon="-1.77598900">
        <ele>523.00000</ele>
        <time>2010-01-01T02:03:59Z</time>
      </trkpt>
      <trkpt lat="42.89119700" lon="-1.77558800">
        <ele>524.00000</ele>
        <time>2010-01-01T02:04:12Z</time>
      </trkpt>
      <trkpt lat="42.89112100" lon="-1.77524500">
        <ele>524.00000</ele>
        <time>2010-01-01T02:04:23Z</time>
      </trkpt>
      <trkpt lat="42.89106200" lon="-1.77479000">
        <ele>526.00000</ele>
        <time>2010-01-01T02:04:36Z</time>
      </trkpt>
      <trkpt lat="42.89100300" lon="-1.77434500">
        <ele>528.00000</ele>
        <time>2010-01-01T02:04:50Z</time>
      </trkpt>
      <trkpt lat="42.89096500" lon="-1.77398700">
        <ele>531.00000</ele>
        <time>2010-01-01T02:05:00Z</time>
      </trkpt>
      <trkpt lat="42.89093400" lon="-1.77374400">
        <ele>534.00000</ele>
        <time>2010-01-01T02:05:07Z</time>
      </trkpt>
      <trkpt lat="42.89090300" lon="-1.77359600">
        <ele>536.00000</ele>
        <time>2010-01-01T02:05:12Z</time>
      </trkpt>
      <trkpt lat="42.89078900" lon="-1.77321400">
        <ele>536.00000</ele>
        <time>2010-01-01T02:05:24Z</time>
      </trkpt>
      <trkpt lat="42.89066200" lon="-1.77288500">
        <ele>533.00000</ele>
        <time>2010-01-01T02:05:35Z</time>
      </trkpt>
      <trkpt lat="42.89055200" lon="-1.77257600">
        <ele>533.00000</ele>
        <time>2010-01-01T02:05:45Z</time>
      </trkpt>
      <trkpt lat="42.89041200" lon="-1.77225500">
        <ele>532.00000</ele>
        <time>2010-01-01T02:05:56Z</time>
      </trkpt>
      <trkpt lat="42.89021200" lon="-1.77178000">
        <ele>531.00000</ele>
        <time>2010-01-01T02:06:12Z</time>
      </trkpt>
      <trkpt lat="42.89007000" lon="-1.77145700">
        <ele>530.00000</ele>
        <time>2010-01-01T02:06:23Z</time>
      </trkpt>
      <trkpt lat="42.88992600" lon="-1.77113900">
        <ele>527.00000</ele>
        <time>2010-01-01T02:06:34Z</time>
      </trkpt>
      <trkpt lat="42.88961900" lon="-1.77051000">
        <ele>523.00000</ele>
        <time>2010-01-01T02:06:56Z</time>
      </trkpt>
      <trkpt lat="42.88950400" lon="-1.77032800">
        <ele>522.00000</ele>
        <time>2010-01-01T02:07:03Z</time>
      </trkpt>
      <trkpt lat="42.88941000" lon="-1.77015000">
        <ele>521.00000</ele>
        <time>2010-01-01T02:07:10Z</time>
      </trkpt>
      <trkpt lat="42.88913300" lon="-1.76956000">
        <ele>519.00000</ele>
        <time>2010-01-01T02:07:30Z</time>
      </trkpt>
      <trkpt lat="42.88894600" lon="-1.76921700">
        <ele>516.00000</ele>
        <time>2010-01-01T02:07:43Z</time>
      </trkpt>
      <trkpt lat="42.88871000" lon="-1.76892800">
        <ele>514.00000</ele>
        <time>2010-01-01T02:07:55Z</time>
      </trkpt>
      <trkpt lat="42.88837600" lon="-1.76850600">
        <ele>513.00000</ele>
        <time>2010-01-01T02:08:14Z</time>
      </trkpt>
      <trkpt lat="42.88812500" lon="-1.76825900">
        <ele>512.00000</ele>
        <time>2010-01-01T02:08:26Z</time>
      </trkpt>
      <trkpt lat="42.88809600" lon="-1.76823600">
        <ele>512.00000</ele>
        <time>2010-01-01T02:08:27Z</time>
      </trkpt>
      <trkpt lat="42.88805600" lon="-1.76827200">
        <ele>512.00000</ele>
        <time>2010-01-01T02:08:29Z</time>
      </trkpt>
      <trkpt lat="42.88806400" lon="-1.76827400">
        <ele>512.00000</ele>
        <time>2010-01-01T02:08:30Z</time>
      </trkpt>
      <trkpt lat="42.88817700" lon="-1.76817000">
        <ele>512.00000</ele>
        <time>2010-01-01T02:08:35Z</time>
      </trkpt>
      <trkpt lat="42.88817400" lon="-1.76818100">
        <ele>512.00000</ele>
        <time>2010-01-01T02:08:35Z</time>
      </trkpt>
      <trkpt lat="42.88807700" lon="-1.76825700">
        <ele>512.00000</ele>
        <time>2010-01-01T02:08:40Z</time>
      </trkpt>
      <trkpt lat="42.88803300" lon="-1.76828300">
        <ele>512.00000</ele>
        <time>2010-01-01T02:08:42Z</time>
      </trkpt>
      <trkpt lat="42.88789900" lon="-1.76819700">
        <ele>512.00000</ele>
        <time>2010-01-01T02:08:48Z</time>
      </trkpt>
      <trkpt lat="42.88790100" lon="-1.76821000">
        <ele>512.00000</ele>
        <time>2010-01-01T02:08:48Z</time>
      </trkpt>
      <trkpt lat="42.88779700" lon="-1.76836600">
        <ele>512.00000</ele>
        <time>2010-01-01T02:08:54Z</time>
      </trkpt>
      <trkpt lat="42.88764700" lon="-1.76844500">
        <ele>510.00000</ele>
        <time>2010-01-01T02:09:01Z</time>
      </trkpt>
      <trkpt lat="42.88747800" lon="-1.76853500">
        <ele>510.00000</ele>
        <time>2010-01-01T02:09:08Z</time>
      </trkpt>
      <trkpt lat="42.88695200" lon="-1.76821700">
        <ele>509.00000</ele>
        <time>2010-01-01T02:09:31Z</time>
      </trkpt>
      <trkpt lat="42.88633900" lon="-1.76788900">
        <ele>503.00000</ele>
        <time>2010-01-01T02:09:57Z</time>
      </trkpt>
      <trkpt lat="42.88590500" lon="-1.76769800">
        <ele>502.00000</ele>
        <time>2010-01-01T02:10:16Z</time>
      </trkpt>
      <trkpt lat="42.88527500" lon="-1.76741500">
        <ele>499.00000</ele>
        <time>2010-01-01T02:10:42Z</time>
      </trkpt>
      <trkpt lat="42.88430500" lon="-1.76699700">
        <ele>494.00000</ele>
        <time>2010-01-01T02:11:23Z</time>
      </trkpt>
      <trkpt lat="42.88351400" lon="-1.76663600">
        <ele>493.00000</ele>
        <time>2010-01-01T02:11:56Z</time>
      </trkpt>
      <trkpt lat="42.88300800" lon="-1.76643600">
        <ele>489.00000</ele>
        <time>2010-01-01T02:12:17Z</time>
      </trkpt>
      <trkpt lat="42.88262300" lon="-1.76625300">
        <ele>488.00000</ele>
        <time>2010-01-01T02:12:34Z</time>
      </trkpt>
      <trkpt lat="42.88258700" lon="-1.76622200">
        <ele>488.00000</ele>
        <time>2010-01-01T02:12:35Z</time>
      </trkpt>
      <trkpt lat="42.88257200" lon="-1.76621000">
        <ele>488.00000</ele>
        <time>2010-01-01T02:12:36Z</time>
      </trkpt>
      <trkpt lat="42.88256100" lon="-1.76618600">
        <ele>488.00000</ele>
        <time>2010-01-01T02:12:37Z</time>
      </trkpt>
      <trkpt lat="42.88254300" lon="-1.76615300">
        <ele>488.00000</ele>
        <time>2010-01-01T02:12:38Z</time>
      </trkpt>
      <trkpt lat="42.88253000" lon="-1.76610300">
        <ele>489.00000</ele>
        <time>2010-01-01T02:12:40Z</time>
      </trkpt>
      <trkpt lat="42.88252300" lon="-1.76604900">
        <ele>489.00000</ele>
        <time>2010-01-01T02:12:41Z</time>
      </trkpt>
      <trkpt lat="42.88249500" lon="-1.76593000">
        <ele>490.00000</ele>
        <time>2010-01-01T02:12:45Z</time>
      </trkpt>
      <trkpt lat="42.88246800" lon="-1.76587600">
        <ele>491.00000</ele>
        <time>2010-01-01T02:12:47Z</time>
      </trkpt>
      <trkpt lat="42.88208800" lon="-1.76511800">
        <ele>491.00000</ele>
        <time>2010-01-01T02:13:14Z</time>
      </trkpt>
      <trkpt lat="42.88204000" lon="-1.76501800">
        <ele>491.00000</ele>
        <time>2010-01-01T02:13:17Z</time>
      </trkpt>
      <trkpt lat="42.88201000" lon="-1.76496400">
        <ele>492.00000</ele>
        <time>2010-01-01T02:13:19Z</time>
      </trkpt>
      <trkpt lat="42.88197600" lon="-1.76491900">
        <ele>491.00000</ele>
        <time>2010-01-01T02:13:21Z</time>
      </trkpt>
      <trkpt lat="42.88184000" lon="-1.76476600">
        <ele>492.00000</ele>
        <time>2010-01-01T02:13:28Z</time>
      </trkpt>
      <trkpt lat="42.88167300" lon="-1.76457400">
        <ele>492.00000</ele>
        <time>2010-01-01T02:13:37Z</time>
      </trkpt>
      <trkpt lat="42.88096300" lon="-1.76355100">
        <ele>485.00000</ele>
        <time>2010-01-01T02:14:18Z</time>
      </trkpt>
      <trkpt lat="42.88047500" lon="-1.76270900">
        <ele>488.00000</ele>
        <time>2010-01-01T02:14:50Z</time>
      </trkpt>
      <trkpt lat="42.88023900" lon="-1.76211800">
        <ele>489.00000</ele>
        <time>2010-01-01T02:15:10Z</time>
      </trkpt>
      <trkpt lat="42.87997900" lon="-1.76180900">
        <ele>487.00000</ele>
        <time>2010-01-01T02:15:23Z</time>
      </trkpt>
      <trkpt lat="42.87990200" lon="-1.76167400">
        <ele>487.00000</ele>
        <time>2010-01-01T02:15:28Z</time>
      </trkpt>
      <trkpt lat="42.87944700" lon="-1.76099700">
        <ele>486.00000</ele>
        <time>2010-01-01T02:15:55Z</time>
      </trkpt>
      <trkpt lat="42.87885800" lon="-1.76034600">
        <ele>485.00000</ele>
        <time>2010-01-01T02:16:26Z</time>
      </trkpt>
      <trkpt lat="42.87873300" lon="-1.76026600">
        <ele>486.00000</ele>
        <time>2010-01-01T02:16:31Z</time>
      </trkpt>
      <trkpt lat="42.87858100" lon="-1.76016000">
        <ele>486.00000</ele>
        <time>2010-01-01T02:16:38Z</time>
      </trkpt>
      <trkpt lat="42.87841200" lon="-1.76001800">
        <ele>486.00000</ele>
        <time>2010-01-01T02:16:46Z</time>
      </trkpt>
      <trkpt lat="42.87830500" lon="-1.75992300">
        <ele>486.00000</ele>
        <time>2010-01-01T02:16:51Z</time>
      </trkpt>
      <trkpt lat="42.87783500" lon="-1.75956800">
        <ele>486.00000</ele>
        <time>2010-01-01T02:17:13Z</time>
      </trkpt>
      <trkpt lat="42.87750600" lon="-1.75926800">
        <ele>486.00000</ele>
        <time>2010-01-01T02:17:29Z</time>
      </trkpt>
      <trkpt lat="42.87703000" lon="-1.75896000">
        <ele>486.00000</ele>
        <time>2010-01-01T02:17:50Z</time>
      </trkpt>
      <trkpt lat="42.87649300" lon="-1.75861100">
        <ele>483.00000</ele>
        <time>2010-01-01T02:18:13Z</time>
      </trkpt>
      <trkpt lat="42.87598600" lon="-1.75807600">
        <ele>485.00000</ele>
        <time>2010-01-01T02:18:39Z</time>
      </trkpt>
      <trkpt lat="42.87548000" lon="-1.75746800">
        <ele>484.00000</ele>
        <time>2010-01-01T02:19:06Z</time>
      </trkpt>
      <trkpt lat="42.87510300" lon="-1.75694100">
        <ele>486.00000</ele>
        <time>2010-01-01T02:19:28Z</time>
      </trkpt>
      <trkpt lat="42.87460300" lon="-1.75626100">
        <ele>484.00000</ele>
        <time>2010-01-01T02:19:56Z</time>
      </trkpt>
      <trkpt lat="42.87450600" lon="-1.75610700">
        <ele>483.00000</ele>
        <time>2010-01-01T02:20:02Z</time>
      </trkpt>
      <trkpt lat="42.87424900" lon="-1.75567200">
        <ele>482.00000</ele>
        <time>2010-01-01T02:20:18Z</time>
      </trkpt>
      <trkpt lat="42.87413200" lon="-1.75550600">
        <ele>482.00000</ele>
        <time>2010-01-01T02:20:25Z</time>
      </trkpt>
      <trkpt lat="42.87376000" lon="-1.75487200">
        <ele>482.00000</ele>
        <time>2010-01-01T02:20:49Z</time>
      </trkpt>
      <trkpt lat="42.87354300" lon="-1.75449700">
        <ele>482.00000</ele>
        <time>2010-01-01T02:21:03Z</time>
      </trkpt>
      <trkpt lat="42.87350000" lon="-1.75439000">
        <ele>482.00000</ele>
        <time>2010-01-01T02:21:06Z</time>
      </trkpt>
      <trkpt lat="42.87337700" lon="-1.75414800">
        <ele>481.00000</ele>
        <time>2010-01-01T02:21:15Z</time>
      </trkpt>
      <trkpt lat="42.87332400" lon="-1.75404700">
        <ele>480.00000</ele>
        <time>2010-01-01T02:21:19Z</time>
      </trkpt>
      <trkpt lat="42.87332100" lon="-1.75402000">
        <ele>480.00000</ele>
        <time>2010-01-01T02:21:20Z</time>
      </trkpt>
      <trkpt lat="42.87326300" lon="-1.75384000">
        <ele>480.00000</ele>
        <time>2010-01-01T02:21:25Z</time>
      </trkpt>
      <trkpt lat="42.87317600" lon="-1.75372800">
        <ele>480.00000</ele>
        <time>2010-01-01T02:21:30Z</time>
      </trkpt>
      <trkpt lat="42.87313357" lon="-1.75390720">
        <ele>480.00000</ele>
        <time>2010-01-01T00:00:00Z</time>
      </trkpt>
      <trkpt lat="42.87270898" lon="-1.75455093">
        <ele>479.00000</ele>
        <time>2010-01-01T00:00:25Z</time>
      </trkpt>
      <trkpt lat="42.87226866" lon="-1.75530195">
        <ele>478.00000</ele>
        <time>2010-01-01T00:00:53Z</time>
      </trkpt>
      <trkpt lat="42.87178116" lon="-1.75656795">
        <ele>477.00000</ele>
        <time>2010-01-01T00:01:35Z</time>
      </trkpt>
      <trkpt lat="42.87152955" lon="-1.75731897">
        <ele>476.00000</ele>
        <time>2010-01-01T00:01:59Z</time>
      </trkpt>
      <trkpt lat="42.87112067" lon="-1.75781250">
        <ele>477.00000</ele>
        <time>2010-01-01T00:02:21Z</time>
      </trkpt>
      <trkpt lat="42.86946942" lon="-1.75920724">
        <ele>466.00000</ele>
        <time>2010-01-01T00:03:39Z</time>
      </trkpt>
      <trkpt lat="42.86806975" lon="-1.76051616">
        <ele>458.00000</ele>
        <time>2010-01-01T00:04:47Z</time>
      </trkpt>
      <trkpt lat="42.86748785" lon="-1.76068782">
        <ele>453.00000</ele>
        <time>2010-01-01T00:05:11Z</time>
      </trkpt>
      <trkpt lat="42.86684304" lon="-1.76068782">
        <ele>454.00000</ele>
        <time>2010-01-01T00:05:36Z</time>
      </trkpt>
      <trkpt lat="42.86616677" lon="-1.76049470">
        <ele>450.00000</ele>
        <time>2010-01-01T00:06:04Z</time>
      </trkpt>
      <trkpt lat="42.86580505" lon="-1.76015138">
        <ele>449.00000</ele>
        <time>2010-01-01T00:06:22Z</time>
      </trkpt>
      <trkpt lat="42.86481421" lon="-1.75914287">
        <ele>444.00000</ele>
        <time>2010-01-01T00:07:11Z</time>
      </trkpt>
      <trkpt lat="42.86442102" lon="-1.75854206">
        <ele>442.00000</ele>
        <time>2010-01-01T00:07:35Z</time>
      </trkpt>
      <trkpt lat="42.86410647" lon="-1.75794124">
        <ele>442.00000</ele>
        <time>2010-01-01T00:07:57Z</time>
      </trkpt>
      <trkpt lat="42.86368181" lon="-1.75699710">
        <ele>441.00000</ele>
        <time>2010-01-01T00:08:29Z</time>
      </trkpt>
      <trkpt lat="42.86314706" lon="-1.75624608">
        <ele>438.00000</ele>
        <time>2010-01-01T00:09:00Z</time>
      </trkpt>
      <trkpt lat="42.86206182" lon="-1.75540924">
        <ele>435.00000</ele>
        <time>2010-01-01T00:09:50Z</time>
      </trkpt>
      <trkpt lat="42.86121248" lon="-1.75474405">
        <ele>437.00000</ele>
        <time>2010-01-01T00:10:29Z</time>
      </trkpt>
      <trkpt lat="42.86036313" lon="-1.75407886">
        <ele>440.00000</ele>
        <time>2010-01-01T00:11:08Z</time>
      </trkpt>
      <trkpt lat="42.85974971" lon="-1.75379991">
        <ele>441.00000</ele>
        <time>2010-01-01T00:11:34Z</time>
      </trkpt>
      <trkpt lat="42.85913628" lon="-1.75358533">
        <ele>442.00000</ele>
        <time>2010-01-01T00:11:59Z</time>
      </trkpt>
      <trkpt lat="42.85836555" lon="-1.75300598">
        <ele>447.00000</ele>
        <time>2010-01-01T00:12:35Z</time>
      </trkpt>
      <trkpt lat="42.85756335" lon="-1.75285577">
        <ele>452.00000</ele>
        <time>2010-01-01T00:13:07Z</time>
      </trkpt>
      <trkpt lat="42.85595106" lon="-1.75226569">
        <ele>464.00000</ele>
        <time>2010-01-01T00:14:14Z</time>
      </trkpt>
      <trkpt lat="42.85558140" lon="-1.75255537">
        <ele>461.00000</ele>
        <time>2010-01-01T00:14:31Z</time>
      </trkpt>
      <trkpt lat="42.85520388" lon="-1.75278067">
        <ele>461.00000</ele>
        <time>2010-01-01T00:14:47Z</time>
      </trkpt>
      <trkpt lat="42.85474771" lon="-1.75283432">
        <ele>460.00000</ele>
        <time>2010-01-01T00:15:06Z</time>
      </trkpt>
      <trkpt lat="42.85432299" lon="-1.75304889">
        <ele>458.00000</ele>
        <time>2010-01-01T00:15:24Z</time>
      </trkpt>
      <trkpt lat="42.85397692" lon="-1.75325274">
        <ele>457.00000</ele>
        <time>2010-01-01T00:15:39Z</time>
      </trkpt>
      <trkpt lat="42.85358366" lon="-1.75334930">
        <ele>459.00000</ele>
        <time>2010-01-01T00:15:55Z</time>
      </trkpt>
      <trkpt lat="42.85282859" lon="-1.75360679">
        <ele>453.00000</ele>
        <time>2010-01-01T00:16:26Z</time>
      </trkpt>
      <trkpt lat="42.85268308" lon="-1.75376772">
        <ele>450.00000</ele>
        <time>2010-01-01T00:16:34Z</time>
      </trkpt>
      <trkpt lat="42.85260443" lon="-1.75399303">
        <ele>446.00000</ele>
        <time>2010-01-01T00:16:41Z</time>
      </trkpt>
      <trkpt lat="42.85261230" lon="-1.75425052">
        <ele>443.00000</ele>
        <time>2010-01-01T00:16:48Z</time>
      </trkpt>
      <trkpt lat="42.85270275" lon="-1.75451874">
        <ele>442.00000</ele>
        <time>2010-01-01T00:16:57Z</time>
      </trkpt>
      <trkpt lat="42.85286006" lon="-1.75492644">
        <ele>439.00000</ele>
        <time>2010-01-01T00:17:11Z</time>
      </trkpt>
      <trkpt lat="42.85297410" lon="-1.75520002">
        <ele>437.00000</ele>
        <time>2010-01-01T00:17:20Z</time>
      </trkpt>
      <trkpt lat="42.85298590" lon="-1.75543069">
        <ele>434.00000</ele>
        <time>2010-01-01T00:17:27Z</time>
      </trkpt>
      <trkpt lat="42.85285612" lon="-1.75589203">
        <ele>429.00000</ele>
        <time>2010-01-01T00:17:41Z</time>
      </trkpt>
      <trkpt lat="42.85272634" lon="-1.75635337">
        <ele>427.00000</ele>
        <time>2010-01-01T00:17:56Z</time>
      </trkpt>
      <trkpt lat="42.85260443" lon="-1.75682008">
        <ele>425.00000</ele>
        <time>2010-01-01T00:18:10Z</time>
      </trkpt>
      <trkpt lat="42.85253364" lon="-1.75706684">
        <ele>424.00000</ele>
        <time>2010-01-01T00:18:18Z</time>
      </trkpt>
      <trkpt lat="42.85248252" lon="-1.75725996">
        <ele>422.00000</ele>
        <time>2010-01-01T00:18:24Z</time>
      </trkpt>
      <trkpt lat="42.85045321" lon="-1.75712585">
        <ele>422.00000</ele>
        <time>2010-01-01T00:19:45Z</time>
      </trkpt>
      <trkpt lat="42.84850250" lon="-1.75695419">
        <ele>423.00000</ele>
        <time>2010-01-01T00:21:04Z</time>
      </trkpt>
      <trkpt lat="42.84538753" lon="-1.75673961">
        <ele>418.00000</ele>
        <time>2010-01-01T00:23:08Z</time>
      </trkpt>
      <trkpt lat="42.84279160" lon="-1.75663232">
        <ele>417.00000</ele>
        <time>2010-01-01T00:24:52Z</time>
      </trkpt>
      <trkpt lat="42.84293320" lon="-1.75731897">
        <ele>416.00000</ele>
        <time>2010-01-01T00:25:13Z</time>
      </trkpt>
      <trkpt lat="42.84261854" lon="-1.75813436">
        <ele>415.00000</ele>
        <time>2010-01-01T00:25:40Z</time>
      </trkpt>
      <trkpt lat="42.84225667" lon="-1.75871372">
        <ele>414.00000</ele>
        <time>2010-01-01T00:26:03Z</time>
      </trkpt>
      <trkpt lat="42.84178467" lon="-1.75920724">
        <ele>415.00000</ele>
        <time>2010-01-01T00:26:26Z</time>
      </trkpt>
      <trkpt lat="42.84090358" lon="-1.75997972">
        <ele>412.00000</ele>
        <time>2010-01-01T00:27:08Z</time>
      </trkpt>
      <trkpt lat="42.83981795" lon="-1.76088094">
        <ele>410.00000</ele>
        <time>2010-01-01T00:27:59Z</time>
      </trkpt>
      <trkpt lat="42.83890537" lon="-1.76225423">
        <ele>408.00000</ele>
        <time>2010-01-01T00:28:54Z</time>
      </trkpt>
      <trkpt lat="42.83802424" lon="-1.76362752">
        <ele>405.00000</ele>
        <time>2010-01-01T00:29:47Z</time>
      </trkpt>
      <trkpt lat="42.83692282" lon="-1.76527976">
        <ele>403.00000</ele>
        <time>2010-01-01T00:30:53Z</time>
      </trkpt>
      <trkpt lat="42.83537293" lon="-1.76679253">
        <ele>399.00000</ele>
        <time>2010-01-01T00:32:09Z</time>
      </trkpt>
      <trkpt lat="42.83522345" lon="-1.76764011">
        <ele>402.00000</ele>
        <time>2010-01-01T00:32:35Z</time>
      </trkpt>
      <trkpt lat="42.83506610" lon="-1.76862716">
        <ele>408.00000</ele>
        <time>2010-01-01T00:33:04Z</time>
      </trkpt>
      <trkpt lat="42.83486941" lon="-1.76947474">
        <ele>409.00000</ele>
        <time>2010-01-01T00:33:30Z</time>
      </trkpt>
      <trkpt lat="42.83479073" lon="-1.76993608">
        <ele>411.00000</ele>
        <time>2010-01-01T00:33:44Z</time>
      </trkpt>
      <trkpt lat="42.83443668" lon="-1.77040815">
        <ele>411.00000</ele>
        <time>2010-01-01T00:34:04Z</time>
      </trkpt>
      <trkpt lat="42.83030601" lon="-1.77160978">
        <ele>394.00000</ele>
        <time>2010-01-01T00:36:53Z</time>
      </trkpt>
      <trkpt lat="42.82873200" lon="-1.77179300">
        <ele>394.00000</ele>
        <time>2010-01-01T00:37:56Z</time>
      </trkpt>
      <trkpt lat="42.82866500" lon="-1.77170800">
        <ele>394.00000</ele>
        <time>2010-01-01T00:38:00Z</time>
      </trkpt>
      <trkpt lat="42.82856900" lon="-1.77162000">
        <ele>394.00000</ele>
        <time>2010-01-01T00:38:05Z</time>
      </trkpt>
      <trkpt lat="42.82848200" lon="-1.77156800">
        <ele>394.00000</ele>
        <time>2010-01-01T00:38:09Z</time>
      </trkpt>
      <trkpt lat="42.82837800" lon="-1.77154500">
        <ele>395.00000</ele>
        <time>2010-01-01T00:38:13Z</time>
      </trkpt>
      <trkpt lat="42.82826500" lon="-1.77153500">
        <ele>395.00000</ele>
        <time>2010-01-01T00:38:17Z</time>
      </trkpt>
      <trkpt lat="42.82816300" lon="-1.77152600">
        <ele>396.00000</ele>
        <time>2010-01-01T00:38:21Z</time>
      </trkpt>
      <trkpt lat="42.82806300" lon="-1.77152800">
        <ele>397.00000</ele>
        <time>2010-01-01T00:38:25Z</time>
      </trkpt>
      <trkpt lat="42.82796900" lon="-1.77151700">
        <ele>397.00000</ele>
        <time>2010-01-01T00:38:29Z</time>
      </trkpt>
      <trkpt lat="42.82786700" lon="-1.77150000">
        <ele>398.00000</ele>
        <time>2010-01-01T00:38:33Z</time>
      </trkpt>
      <trkpt lat="42.82777500" lon="-1.77153500">
        <ele>399.00000</ele>
        <time>2010-01-01T00:38:37Z</time>
      </trkpt>
      <trkpt lat="42.82769200" lon="-1.77160300">
        <ele>399.00000</ele>
        <time>2010-01-01T00:38:41Z</time>
      </trkpt>
      <trkpt lat="42.82759700" lon="-1.77161800">
        <ele>400.00000</ele>
        <time>2010-01-01T00:38:45Z</time>
      </trkpt>
      <trkpt lat="42.82748800" lon="-1.77162700">
        <ele>400.00000</ele>
        <time>2010-01-01T00:38:49Z</time>
      </trkpt>
      <trkpt lat="42.82737500" lon="-1.77166100">
        <ele>400.00000</ele>
        <time>2010-01-01T00:38:54Z</time>
      </trkpt>
      <trkpt lat="42.82724700" lon="-1.77164300">
        <ele>399.00000</ele>
        <time>2010-01-01T00:38:59Z</time>
      </trkpt>
      <trkpt lat="42.82712400" lon="-1.77157500">
        <ele>399.00000</ele>
        <time>2010-01-01T00:39:04Z</time>
      </trkpt>
      <trkpt lat="42.82690200" lon="-1.77150000">
        <ele>399.00000</ele>
        <time>2010-01-01T00:39:13Z</time>
      </trkpt>
      <trkpt lat="42.82681000" lon="-1.77147300">
        <ele>399.00000</ele>
        <time>2010-01-01T00:39:17Z</time>
      </trkpt>
      <trkpt lat="42.82671800" lon="-1.77144300">
        <ele>398.00000</ele>
        <time>2010-01-01T00:39:21Z</time>
      </trkpt>
      <trkpt lat="42.82662700" lon="-1.77141300">
        <ele>398.00000</ele>
        <time>2010-01-01T00:39:25Z</time>
      </trkpt>
      <trkpt lat="42.82653700" lon="-1.77137300">
        <ele>397.00000</ele>
        <time>2010-01-01T00:39:29Z</time>
      </trkpt>
      <trkpt lat="42.82645200" lon="-1.77133100">
        <ele>397.00000</ele>
        <time>2010-01-01T00:39:32Z</time>
      </trkpt>
      <trkpt lat="42.82636500" lon="-1.77129500">
        <ele>396.00000</ele>
        <time>2010-01-01T00:39:36Z</time>
      </trkpt>
      <trkpt lat="42.82628000" lon="-1.77125100">
        <ele>396.00000</ele>
        <time>2010-01-01T00:39:39Z</time>
      </trkpt>
      <trkpt lat="42.82615200" lon="-1.77120300">
        <ele>395.00000</ele>
        <time>2010-01-01T00:39:45Z</time>
      </trkpt>
      <trkpt lat="42.82602300" lon="-1.77116000">
        <ele>395.00000</ele>
        <time>2010-01-01T00:39:50Z</time>
      </trkpt>
      <trkpt lat="42.82589400" lon="-1.77111800">
        <ele>395.00000</ele>
        <time>2010-01-01T00:39:55Z</time>
      </trkpt>
      <trkpt lat="42.82580500" lon="-1.77109100">
        <ele>395.00000</ele>
        <time>2010-01-01T00:39:59Z</time>
      </trkpt>
      <trkpt lat="42.82567500" lon="-1.77105300">
        <ele>396.00000</ele>
        <time>2010-01-01T00:40:04Z</time>
      </trkpt>
      <trkpt lat="42.82554700" lon="-1.77102100">
        <ele>396.00000</ele>
        <time>2010-01-01T00:40:10Z</time>
      </trkpt>
      <trkpt lat="42.82541400" lon="-1.77099000">
        <ele>395.00000</ele>
        <time>2010-01-01T00:40:15Z</time>
      </trkpt>
      <trkpt lat="42.82532400" lon="-1.77097000">
        <ele>395.00000</ele>
        <time>2010-01-01T00:40:19Z</time>
      </trkpt>
      <trkpt lat="42.82519900" lon="-1.77094500">
        <ele>395.00000</ele>
        <time>2010-01-01T00:40:24Z</time>
      </trkpt>
      <trkpt lat="42.82507200" lon="-1.77095800">
        <ele>395.00000</ele>
        <time>2010-01-01T00:40:29Z</time>
      </trkpt>
      <trkpt lat="42.82494800" lon="-1.77098600">
        <ele>396.00000</ele>
        <time>2010-01-01T00:40:34Z</time>
      </trkpt>
      <trkpt lat="42.82482300" lon="-1.77103300">
        <ele>396.00000</ele>
        <time>2010-01-01T00:40:39Z</time>
      </trkpt>
      <trkpt lat="42.82473200" lon="-1.77107000">
        <ele>396.00000</ele>
        <time>2010-01-01T00:40:43Z</time>
      </trkpt>
      <trkpt lat="42.82463700" lon="-1.77110800">
        <ele>395.00000</ele>
        <time>2010-01-01T00:40:47Z</time>
      </trkpt>
      <trkpt lat="42.82454000" lon="-1.77114300">
        <ele>394.00000</ele>
        <time>2010-01-01T00:40:51Z</time>
      </trkpt>
      <trkpt lat="42.82444200" lon="-1.77118800">
        <ele>394.00000</ele>
        <time>2010-01-01T00:40:55Z</time>
      </trkpt>
      <trkpt lat="42.82425000" lon="-1.77127700">
        <ele>392.00000</ele>
        <time>2010-01-01T00:41:03Z</time>
      </trkpt>
      <trkpt lat="42.82415300" lon="-1.77131600">
        <ele>391.00000</ele>
        <time>2010-01-01T00:41:07Z</time>
      </trkpt>
      <trkpt lat="42.82405700" lon="-1.77135100">
        <ele>391.00000</ele>
        <time>2010-01-01T00:41:11Z</time>
      </trkpt>
      <trkpt lat="42.82396000" lon="-1.77138200">
        <ele>391.00000</ele>
        <time>2010-01-01T00:41:15Z</time>
      </trkpt>
      <trkpt lat="42.82386500" lon="-1.77141300">
        <ele>390.00000</ele>
        <time>2010-01-01T00:41:19Z</time>
      </trkpt>
      <trkpt lat="42.82377000" lon="-1.77144300">
        <ele>390.00000</ele>
        <time>2010-01-01T00:41:23Z</time>
      </trkpt>
      <trkpt lat="42.82367500" lon="-1.77147300">
        <ele>390.00000</ele>
        <time>2010-01-01T00:41:27Z</time>
      </trkpt>
      <trkpt lat="42.82357700" lon="-1.77150200">
        <ele>390.00000</ele>
        <time>2010-01-01T00:41:31Z</time>
      </trkpt>
      <trkpt lat="42.82347800" lon="-1.77153100">
        <ele>389.00000</ele>
        <time>2010-01-01T00:41:35Z</time>
      </trkpt>
      <trkpt lat="42.82338500" lon="-1.77156000">
        <ele>389.00000</ele>
        <time>2010-01-01T00:41:39Z</time>
      </trkpt>
      <trkpt lat="42.82329000" lon="-1.77159300">
        <ele>389.00000</ele>
        <time>2010-01-01T00:41:43Z</time>
      </trkpt>
      <trkpt lat="42.82320000" lon="-1.77162700">
        <ele>389.00000</ele>
        <time>2010-01-01T00:41:46Z</time>
      </trkpt>
      <trkpt lat="42.82310800" lon="-1.77165500">
        <ele>389.00000</ele>
        <time>2010-01-01T00:41:50Z</time>
      </trkpt>
      <trkpt lat="42.82301500" lon="-1.77168100">
        <ele>388.00000</ele>
        <time>2010-01-01T00:41:54Z</time>
      </trkpt>
      <trkpt lat="42.82292200" lon="-1.77171000">
        <ele>388.00000</ele>
        <time>2010-01-01T00:41:58Z</time>
      </trkpt>
      <trkpt lat="42.82282700" lon="-1.77173500">
        <ele>387.00000</ele>
        <time>2010-01-01T00:42:02Z</time>
      </trkpt>
      <trkpt lat="42.82273400" lon="-1.77175800">
        <ele>387.00000</ele>
        <time>2010-01-01T00:42:05Z</time>
      </trkpt>
      <trkpt lat="42.82264400" lon="-1.77178300">
        <ele>387.00000</ele>
        <time>2010-01-01T00:42:09Z</time>
      </trkpt>
      <trkpt lat="42.82255200" lon="-1.77180600">
        <ele>387.00000</ele>
        <time>2010-01-01T00:42:13Z</time>
      </trkpt>
      <trkpt lat="42.82245800" lon="-1.77183500">
        <ele>387.00000</ele>
        <time>2010-01-01T00:42:17Z</time>
      </trkpt>
      <trkpt lat="42.82236700" lon="-1.77185800">
        <ele>387.00000</ele>
        <time>2010-01-01T00:42:20Z</time>
      </trkpt>
      <trkpt lat="42.82227700" lon="-1.77188500">
        <ele>387.00000</ele>
        <time>2010-01-01T00:42:24Z</time>
      </trkpt>
      <trkpt lat="42.82218500" lon="-1.77191500">
        <ele>388.00000</ele>
        <time>2010-01-01T00:42:28Z</time>
      </trkpt>
      <trkpt lat="42.82209200" lon="-1.77194000">
        <ele>388.00000</ele>
        <time>2010-01-01T00:42:32Z</time>
      </trkpt>
      <trkpt lat="42.82199700" lon="-1.77196300">
        <ele>389.00000</ele>
        <time>2010-01-01T00:42:35Z</time>
      </trkpt>
      <trkpt lat="42.82190300" lon="-1.77198000">
        <ele>390.00000</ele>
        <time>2010-01-01T00:42:39Z</time>
      </trkpt>
      <trkpt lat="42.82177000" lon="-1.77200600">
        <ele>390.00000</ele>
        <time>2010-01-01T00:42:45Z</time>
      </trkpt>
      <trkpt lat="42.82168000" lon="-1.77202100">
        <ele>390.00000</ele>
        <time>2010-01-01T00:42:48Z</time>
      </trkpt>
      <trkpt lat="42.82159000" lon="-1.77203500">
        <ele>390.00000</ele>
        <time>2010-01-01T00:42:52Z</time>
      </trkpt>
      <trkpt lat="42.82137500" lon="-1.77207000">
        <ele>390.00000</ele>
        <time>2010-01-01T00:43:01Z</time>
      </trkpt>
      <trkpt lat="42.82128500" lon="-1.77207700">
        <ele>390.00000</ele>
        <time>2010-01-01T00:43:04Z</time>
      </trkpt>
      <trkpt lat="42.82106900" lon="-1.77211300">
        <ele>391.00000</ele>
        <time>2010-01-01T00:43:13Z</time>
      </trkpt>
      <trkpt lat="42.82096400" lon="-1.77213000">
        <ele>391.00000</ele>
        <time>2010-01-01T00:43:17Z</time>
      </trkpt>
      <trkpt lat="42.82085200" lon="-1.77215200">
        <ele>391.00000</ele>
        <time>2010-01-01T00:43:22Z</time>
      </trkpt>
      <trkpt lat="42.82073900" lon="-1.77217300">
        <ele>391.00000</ele>
        <time>2010-01-01T00:43:26Z</time>
      </trkpt>
      <trkpt lat="42.82062200" lon="-1.77219500">
        <ele>391.00000</ele>
        <time>2010-01-01T00:43:31Z</time>
      </trkpt>
      <trkpt lat="42.82051200" lon="-1.77221100">
        <ele>391.00000</ele>
        <time>2010-01-01T00:43:35Z</time>
      </trkpt>
      <trkpt lat="42.82040000" lon="-1.77223100">
        <ele>390.00000</ele>
        <time>2010-01-01T00:43:40Z</time>
      </trkpt>
      <trkpt lat="42.82028500" lon="-1.77225100">
        <ele>390.00000</ele>
        <time>2010-01-01T00:43:45Z</time>
      </trkpt>
      <trkpt lat="42.82016500" lon="-1.77227200">
        <ele>390.00000</ele>
        <time>2010-01-01T00:43:49Z</time>
      </trkpt>
      <trkpt lat="42.82005400" lon="-1.77228800">
        <ele>390.00000</ele>
        <time>2010-01-01T00:43:54Z</time>
      </trkpt>
      <trkpt lat="42.81994700" lon="-1.77230300">
        <ele>390.00000</ele>
        <time>2010-01-01T00:43:58Z</time>
      </trkpt>
      <trkpt lat="42.81983000" lon="-1.77231700">
        <ele>391.00000</ele>
        <time>2010-01-01T00:44:03Z</time>
      </trkpt>
      <trkpt lat="42.81971200" lon="-1.77233300">
        <ele>391.00000</ele>
        <time>2010-01-01T00:44:08Z</time>
      </trkpt>
      <trkpt lat="42.81959200" lon="-1.77234800">
        <ele>391.00000</ele>
        <time>2010-01-01T00:44:12Z</time>
      </trkpt>
      <trkpt lat="42.81947300" lon="-1.77235600">
        <ele>391.00000</ele>
        <time>2010-01-01T00:44:17Z</time>
      </trkpt>
      <trkpt lat="42.81935500" lon="-1.77237000">
        <ele>391.00000</ele>
        <time>2010-01-01T00:44:22Z</time>
      </trkpt>
      <trkpt lat="42.81923500" lon="-1.77238300">
        <ele>391.00000</ele>
        <time>2010-01-01T00:44:27Z</time>
      </trkpt>
      <trkpt lat="42.81911200" lon="-1.77239700">
        <ele>390.00000</ele>
        <time>2010-01-01T00:44:32Z</time>
      </trkpt>
      <trkpt lat="42.81898700" lon="-1.77241300">
        <ele>390.00000</ele>
        <time>2010-01-01T00:44:37Z</time>
      </trkpt>
      <trkpt lat="42.81873700" lon="-1.77244000">
        <ele>389.00000</ele>
        <time>2010-01-01T00:44:47Z</time>
      </trkpt>
      <trkpt lat="42.81861500" lon="-1.77245600">
        <ele>389.00000</ele>
        <time>2010-01-01T00:44:52Z</time>
      </trkpt>
      <trkpt lat="42.81849700" lon="-1.77246300">
        <ele>389.00000</ele>
        <time>2010-01-01T00:44:56Z</time>
      </trkpt>
      <trkpt lat="42.81837900" lon="-1.77247300">
        <ele>389.00000</ele>
        <time>2010-01-01T00:45:01Z</time>
      </trkpt>
      <trkpt lat="42.81825900" lon="-1.77248500">
        <ele>389.00000</ele>
        <time>2010-01-01T00:45:06Z</time>
      </trkpt>
      <trkpt lat="42.81813500" lon="-1.77248800">
        <ele>389.00000</ele>
        <time>2010-01-01T00:45:11Z</time>
      </trkpt>
      <trkpt lat="42.81801000" lon="-1.77248100">
        <ele>389.00000</ele>
        <time>2010-01-01T00:45:16Z</time>
      </trkpt>
      <trkpt lat="42.81788200" lon="-1.77247800">
        <ele>389.00000</ele>
        <time>2010-01-01T00:45:21Z</time>
      </trkpt>
      <trkpt lat="42.81775500" lon="-1.77247100">
        <ele>390.00000</ele>
        <time>2010-01-01T00:45:26Z</time>
      </trkpt>
      <trkpt lat="42.81762900" lon="-1.77245600">
        <ele>390.00000</ele>
        <time>2010-01-01T00:45:31Z</time>
      </trkpt>
      <trkpt lat="42.81750000" lon="-1.77245300">
        <ele>390.00000</ele>
        <time>2010-01-01T00:45:36Z</time>
      </trkpt>
      <trkpt lat="42.81737200" lon="-1.77244100">
        <ele>390.00000</ele>
        <time>2010-01-01T00:45:41Z</time>
      </trkpt>
      <trkpt lat="42.81724200" lon="-1.77245600">
        <ele>390.00000</ele>
        <time>2010-01-01T00:45:47Z</time>
      </trkpt>
      <trkpt lat="42.81711300" lon="-1.77243800">
        <ele>389.00000</ele>
        <time>2010-01-01T00:45:52Z</time>
      </trkpt>
      <trkpt lat="42.81698200" lon="-1.77243600">
        <ele>389.00000</ele>
        <time>2010-01-01T00:45:57Z</time>
      </trkpt>
      <trkpt lat="42.81685000" lon="-1.77243600">
        <ele>389.00000</ele>
        <time>2010-01-01T00:46:02Z</time>
      </trkpt>
      <trkpt lat="42.81671500" lon="-1.77244300">
        <ele>389.00000</ele>
        <time>2010-01-01T00:46:08Z</time>
      </trkpt>
      <trkpt lat="42.81662500" lon="-1.77244300">
        <ele>389.00000</ele>
        <time>2010-01-01T00:46:11Z</time>
      </trkpt>
      <trkpt lat="42.81649400" lon="-1.77243600">
        <ele>389.00000</ele>
        <time>2010-01-01T00:46:17Z</time>
      </trkpt>
      <trkpt lat="42.81636500" lon="-1.77242300">
        <ele>389.00000</ele>
        <time>2010-01-01T00:46:22Z</time>
      </trkpt>
      <trkpt lat="42.81610200" lon="-1.77241500">
        <ele>389.00000</ele>
        <time>2010-01-01T00:46:32Z</time>
      </trkpt>
      <trkpt lat="42.81601200" lon="-1.77241700">
        <ele>389.00000</ele>
        <time>2010-01-01T00:46:36Z</time>
      </trkpt>
      <trkpt lat="42.81588000" lon="-1.77241300">
        <ele>389.00000</ele>
        <time>2010-01-01T00:46:41Z</time>
      </trkpt>
      <trkpt lat="42.81574800" lon="-1.77240800">
        <ele>389.00000</ele>
        <time>2010-01-01T00:46:47Z</time>
      </trkpt>
      <trkpt lat="42.81561900" lon="-1.77240300">
        <ele>388.00000</ele>
        <time>2010-01-01T00:46:52Z</time>
      </trkpt>
      <trkpt lat="42.81549000" lon="-1.77239800">
        <ele>388.00000</ele>
        <time>2010-01-01T00:46:57Z</time>
      </trkpt>
      <trkpt lat="42.81535900" lon="-1.77239000">
        <ele>387.00000</ele>
        <time>2010-01-01T00:47:02Z</time>
      </trkpt>
      <trkpt lat="42.81522900" lon="-1.77238700">
        <ele>387.00000</ele>
        <time>2010-01-01T00:47:07Z</time>
      </trkpt>
      <trkpt lat="42.81509700" lon="-1.77238200">
        <ele>387.00000</ele>
        <time>2010-01-01T00:47:13Z</time>
      </trkpt>
      <trkpt lat="42.81496700" lon="-1.77237800">
        <ele>388.00000</ele>
        <time>2010-01-01T00:47:18Z</time>
      </trkpt>
      <trkpt lat="42.81483500" lon="-1.77237700">
        <ele>388.00000</ele>
        <time>2010-01-01T00:47:23Z</time>
      </trkpt>
      <trkpt lat="42.81470200" lon="-1.77237300">
        <ele>388.00000</ele>
        <time>2010-01-01T00:47:28Z</time>
      </trkpt>
      <trkpt lat="42.81457400" lon="-1.77236300">
        <ele>388.00000</ele>
        <time>2010-01-01T00:47:34Z</time>
      </trkpt>
      <trkpt lat="42.81445000" lon="-1.77235000">
        <ele>388.00000</ele>
        <time>2010-01-01T00:47:39Z</time>
      </trkpt>
      <trkpt lat="42.81432500" lon="-1.77234300">
        <ele>387.00000</ele>
        <time>2010-01-01T00:47:44Z</time>
      </trkpt>
      <trkpt lat="42.81420000" lon="-1.77234000">
        <ele>387.00000</ele>
        <time>2010-01-01T00:47:49Z</time>
      </trkpt>
      <trkpt lat="42.81407300" lon="-1.77233500">
        <ele>387.00000</ele>
        <time>2010-01-01T00:47:54Z</time>
      </trkpt>
      <trkpt lat="42.81394500" lon="-1.77233100">
        <ele>387.00000</ele>
        <time>2010-01-01T00:47:59Z</time>
      </trkpt>
      <trkpt lat="42.81381500" lon="-1.77233100">
        <ele>387.00000</ele>
        <time>2010-01-01T00:48:04Z</time>
      </trkpt>
      <trkpt lat="42.81368400" lon="-1.77232300">
        <ele>388.00000</ele>
        <time>2010-01-01T00:48:09Z</time>
      </trkpt>
      <trkpt lat="42.81347000" lon="-1.77232000">
        <ele>388.00000</ele>
        <time>2010-01-01T00:48:18Z</time>
      </trkpt>
      <trkpt lat="42.81334700" lon="-1.77233300">
        <ele>387.00000</ele>
        <time>2010-01-01T00:48:23Z</time>
      </trkpt>
      <trkpt lat="42.81322000" lon="-1.77233500">
        <ele>387.00000</ele>
        <time>2010-01-01T00:48:28Z</time>
      </trkpt>
      <trkpt lat="42.81309000" lon="-1.77234800">
        <ele>386.00000</ele>
        <time>2010-01-01T00:48:33Z</time>
      </trkpt>
      <trkpt lat="42.81296000" lon="-1.77236200">
        <ele>386.00000</ele>
        <time>2010-01-01T00:48:38Z</time>
      </trkpt>
      <trkpt lat="42.81283200" lon="-1.77237000">
        <ele>386.00000</ele>
        <time>2010-01-01T00:48:43Z</time>
      </trkpt>
      <trkpt lat="42.81270000" lon="-1.77238000">
        <ele>386.00000</ele>
        <time>2010-01-01T00:48:49Z</time>
      </trkpt>
      <trkpt lat="42.81256700" lon="-1.77239200">
        <ele>386.00000</ele>
        <time>2010-01-01T00:48:54Z</time>
      </trkpt>
      <trkpt lat="42.81243500" lon="-1.77240000">
        <ele>386.00000</ele>
        <time>2010-01-01T00:48:59Z</time>
      </trkpt>
      <trkpt lat="42.81230300" lon="-1.77240800">
        <ele>386.00000</ele>
        <time>2010-01-01T00:49:05Z</time>
      </trkpt>
      <trkpt lat="42.81217000" lon="-1.77242100">
        <ele>386.00000</ele>
        <time>2010-01-01T00:49:10Z</time>
      </trkpt>
      <trkpt lat="42.81203700" lon="-1.77244100">
        <ele>387.00000</ele>
        <time>2010-01-01T00:49:15Z</time>
      </trkpt>
      <trkpt lat="42.81190700" lon="-1.77246000">
        <ele>388.00000</ele>
        <time>2010-01-01T00:49:21Z</time>
      </trkpt>
      <trkpt lat="42.81178000" lon="-1.77247800">
        <ele>388.00000</ele>
        <time>2010-01-01T00:49:26Z</time>
      </trkpt>
      <trkpt lat="42.81165700" lon="-1.77249500">
        <ele>388.00000</ele>
        <time>2010-01-01T00:49:31Z</time>
      </trkpt>
      <trkpt lat="42.81153000" lon="-1.77250800">
        <ele>388.00000</ele>
        <time>2010-01-01T00:49:36Z</time>
      </trkpt>
      <trkpt lat="42.81140200" lon="-1.77253000">
        <ele>388.00000</ele>
        <time>2010-01-01T00:49:41Z</time>
      </trkpt>
      <trkpt lat="42.81127000" lon="-1.77255000">
        <ele>388.00000</ele>
        <time>2010-01-01T00:49:46Z</time>
      </trkpt>
      <trkpt lat="42.81114200" lon="-1.77256100">
        <ele>388.00000</ele>
        <time>2010-01-01T00:49:51Z</time>
      </trkpt>
      <trkpt lat="42.81101400" lon="-1.77258300">
        <ele>387.00000</ele>
        <time>2010-01-01T00:49:56Z</time>
      </trkpt>
      <trkpt lat="42.81076200" lon="-1.77262000">
        <ele>387.00000</ele>
        <time>2010-01-01T00:50:07Z</time>
      </trkpt>
      <trkpt lat="42.81063800" lon="-1.77263200">
        <ele>387.00000</ele>
        <time>2010-01-01T00:50:12Z</time>
      </trkpt>
      <trkpt lat="42.81051300" lon="-1.77264600">
        <ele>387.00000</ele>
        <time>2010-01-01T00:50:17Z</time>
      </trkpt>
      <trkpt lat="42.81039000" lon="-1.77266500">
        <ele>387.00000</ele>
        <time>2010-01-01T00:50:22Z</time>
      </trkpt>
      <trkpt lat="42.81026500" lon="-1.77267300">
        <ele>387.00000</ele>
        <time>2010-01-01T00:50:27Z</time>
      </trkpt>
      <trkpt lat="42.81014000" lon="-1.77269300">
        <ele>387.00000</ele>
        <time>2010-01-01T00:50:32Z</time>
      </trkpt>
      <trkpt lat="42.81001400" lon="-1.77271100">
        <ele>387.00000</ele>
        <time>2010-01-01T00:50:37Z</time>
      </trkpt>
      <trkpt lat="42.80988500" lon="-1.77272300">
        <ele>387.00000</ele>
        <time>2010-01-01T00:50:42Z</time>
      </trkpt>
      <trkpt lat="42.80975700" lon="-1.77274300">
        <ele>387.00000</ele>
        <time>2010-01-01T00:50:47Z</time>
      </trkpt>
      <trkpt lat="42.80963000" lon="-1.77276300">
        <ele>388.00000</ele>
        <time>2010-01-01T00:50:52Z</time>
      </trkpt>
      <trkpt lat="42.80950300" lon="-1.77278100">
        <ele>388.00000</ele>
        <time>2010-01-01T00:50:57Z</time>
      </trkpt>
      <trkpt lat="42.80937800" lon="-1.77279800">
        <ele>389.00000</ele>
        <time>2010-01-01T00:51:02Z</time>
      </trkpt>
      <trkpt lat="42.80925300" lon="-1.77281100">
        <ele>389.00000</ele>
        <time>2010-01-01T00:51:07Z</time>
      </trkpt>
      <trkpt lat="42.80913200" lon="-1.77283700">
        <ele>388.00000</ele>
        <time>2010-01-01T00:51:12Z</time>
      </trkpt>
      <trkpt lat="42.80901000" lon="-1.77285700">
        <ele>388.00000</ele>
        <time>2010-01-01T00:51:17Z</time>
      </trkpt>
      <trkpt lat="42.80888900" lon="-1.77286500">
        <ele>388.00000</ele>
        <time>2010-01-01T00:51:22Z</time>
      </trkpt>
      <trkpt lat="42.80876400" lon="-1.77287600">
        <ele>387.00000</ele>
        <time>2010-01-01T00:51:27Z</time>
      </trkpt>
      <trkpt lat="42.80863900" lon="-1.77289500">
        <ele>387.00000</ele>
        <time>2010-01-01T00:51:32Z</time>
      </trkpt>
      <trkpt lat="42.80851300" lon="-1.77290800">
        <ele>387.00000</ele>
        <time>2010-01-01T00:51:37Z</time>
      </trkpt>
      <trkpt lat="42.80839200" lon="-1.77293000">
        <ele>387.00000</ele>
        <time>2010-01-01T00:51:42Z</time>
      </trkpt>
      <trkpt lat="42.80814200" lon="-1.77296500">
        <ele>387.00000</ele>
        <time>2010-01-01T00:51:52Z</time>
      </trkpt>
      <trkpt lat="42.80801000" lon="-1.77298300">
        <ele>387.00000</ele>
        <time>2010-01-01T00:51:57Z</time>
      </trkpt>
      <trkpt lat="42.80787900" lon="-1.77300000">
        <ele>387.00000</ele>
        <time>2010-01-01T00:52:03Z</time>
      </trkpt>
      <trkpt lat="42.80775200" lon="-1.77302100">
        <ele>386.00000</ele>
        <time>2010-01-01T00:52:08Z</time>
      </trkpt>
      <trkpt lat="42.80762700" lon="-1.77303800">
        <ele>385.00000</ele>
        <time>2010-01-01T00:52:13Z</time>
      </trkpt>
      <trkpt lat="42.80750700" lon="-1.77305500">
        <ele>385.00000</ele>
        <time>2010-01-01T00:52:18Z</time>
      </trkpt>
      <trkpt lat="42.80739000" lon="-1.77306800">
        <ele>384.00000</ele>
        <time>2010-01-01T00:52:22Z</time>
      </trkpt>
      <trkpt lat="42.80727000" lon="-1.77308700">
        <ele>384.00000</ele>
        <time>2010-01-01T00:52:27Z</time>
      </trkpt>
      <trkpt lat="42.80714500" lon="-1.77310100">
        <ele>384.00000</ele>
        <time>2010-01-01T00:52:32Z</time>
      </trkpt>
      <trkpt lat="42.80701700" lon="-1.77312100">
        <ele>384.00000</ele>
        <time>2010-01-01T00:52:37Z</time>
      </trkpt>
      <trkpt lat="42.80688700" lon="-1.77313500">
        <ele>385.00000</ele>
        <time>2010-01-01T00:52:43Z</time>
      </trkpt>
      <trkpt lat="42.80676400" lon="-1.77315100">
        <ele>385.00000</ele>
        <time>2010-01-01T00:52:47Z</time>
      </trkpt>
      <trkpt lat="42.80664900" lon="-1.77317100">
        <ele>386.00000</ele>
        <time>2010-01-01T00:52:52Z</time>
      </trkpt>
      <trkpt lat="42.80653400" lon="-1.77319000">
        <ele>386.00000</ele>
        <time>2010-01-01T00:52:57Z</time>
      </trkpt>
      <trkpt lat="42.80642000" lon="-1.77320500">
        <ele>387.00000</ele>
        <time>2010-01-01T00:53:01Z</time>
      </trkpt>
      <trkpt lat="42.80632400" lon="-1.77321500">
        <ele>388.00000</ele>
        <time>2010-01-01T00:53:05Z</time>
      </trkpt>
      <trkpt lat="42.80622500" lon="-1.77322800">
        <ele>389.00000</ele>
        <time>2010-01-01T00:53:09Z</time>
      </trkpt>
      <trkpt lat="42.80613500" lon="-1.77325700">
        <ele>390.00000</ele>
        <time>2010-01-01T00:53:13Z</time>
      </trkpt>
      <trkpt lat="42.80605000" lon="-1.77329800">
        <ele>390.00000</ele>
        <time>2010-01-01T00:53:16Z</time>
      </trkpt>
      <trkpt lat="42.80587400" lon="-1.77335800">
        <ele>392.00000</ele>
        <time>2010-01-01T00:53:24Z</time>
      </trkpt>
      <trkpt lat="42.80576700" lon="-1.77338200">
        <ele>393.00000</ele>
        <time>2010-01-01T00:53:28Z</time>
      </trkpt>
      <trkpt lat="42.80566700" lon="-1.77342300">
        <ele>394.00000</ele>
        <time>2010-01-01T00:53:32Z</time>
      </trkpt>
      <trkpt lat="42.80558300" lon="-1.77347000">
        <ele>395.00000</ele>
        <time>2010-01-01T00:53:36Z</time>
      </trkpt>
      <trkpt lat="42.80549300" lon="-1.77355600">
        <ele>395.00000</ele>
        <time>2010-01-01T00:53:40Z</time>
      </trkpt>
      <trkpt lat="42.80542200" lon="-1.77363200">
        <ele>396.00000</ele>
        <time>2010-01-01T00:53:44Z</time>
      </trkpt>
      <trkpt lat="42.80534200" lon="-1.77372200">
        <ele>396.00000</ele>
        <time>2010-01-01T00:53:48Z</time>
      </trkpt>
      <trkpt lat="42.80525500" lon="-1.77381800">
        <ele>396.00000</ele>
        <time>2010-01-01T00:53:53Z</time>
      </trkpt>
      <trkpt lat="42.80517000" lon="-1.77391800">
        <ele>395.00000</ele>
        <time>2010-01-01T00:53:57Z</time>
      </trkpt>
      <trkpt lat="42.80508000" lon="-1.77401100">
        <ele>394.00000</ele>
        <time>2010-01-01T00:54:02Z</time>
      </trkpt>
      <trkpt lat="42.80499400" lon="-1.77410500">
        <ele>393.00000</ele>
        <time>2010-01-01T00:54:06Z</time>
      </trkpt>
      <trkpt lat="42.80490700" lon="-1.77420500">
        <ele>393.00000</ele>
        <time>2010-01-01T00:54:11Z</time>
      </trkpt>
      <trkpt lat="42.80481700" lon="-1.77431300">
        <ele>393.00000</ele>
        <time>2010-01-01T00:54:15Z</time>
      </trkpt>
      <trkpt lat="42.80472000" lon="-1.77441500">
        <ele>394.00000</ele>
        <time>2010-01-01T00:54:20Z</time>
      </trkpt>
      <trkpt lat="42.80462000" lon="-1.77451800">
        <ele>394.00000</ele>
        <time>2010-01-01T00:54:25Z</time>
      </trkpt>
      <trkpt lat="42.80445000" lon="-1.77471100">
        <ele>396.00000</ele>
        <time>2010-01-01T00:54:34Z</time>
      </trkpt>
      <trkpt lat="42.80437300" lon="-1.77479100">
        <ele>396.00000</ele>
        <time>2010-01-01T00:54:38Z</time>
      </trkpt>
      <trkpt lat="42.80429900" lon="-1.77487700">
        <ele>396.00000</ele>
        <time>2010-01-01T00:54:42Z</time>
      </trkpt>
      <trkpt lat="42.80422200" lon="-1.77495800">
        <ele>396.00000</ele>
        <time>2010-01-01T00:54:46Z</time>
      </trkpt>
      <trkpt lat="42.80414000" lon="-1.77502000">
        <ele>396.00000</ele>
        <time>2010-01-01T00:54:50Z</time>
      </trkpt>
      <trkpt lat="42.80401800" lon="-1.77502600">
        <ele>396.00000</ele>
        <time>2010-01-01T00:54:54Z</time>
      </trkpt>
      <trkpt lat="42.80390500" lon="-1.77497700">
        <ele>396.00000</ele>
        <time>2010-01-01T00:54:59Z</time>
      </trkpt>
      <trkpt lat="42.80379300" lon="-1.77492100">
        <ele>395.00000</ele>
        <time>2010-01-01T00:55:04Z</time>
      </trkpt>
      <trkpt lat="42.80367800" lon="-1.77487800">
        <ele>395.00000</ele>
        <time>2010-01-01T00:55:09Z</time>
      </trkpt>
      <trkpt lat="42.80358300" lon="-1.77481000">
        <ele>395.00000</ele>
        <time>2010-01-01T00:55:13Z</time>
      </trkpt>
      <trkpt lat="42.80348000" lon="-1.77473000">
        <ele>396.00000</ele>
        <time>2010-01-01T00:55:18Z</time>
      </trkpt>
      <trkpt lat="42.80337200" lon="-1.77465200">
        <ele>396.00000</ele>
        <time>2010-01-01T00:55:23Z</time>
      </trkpt>
      <trkpt lat="42.80325200" lon="-1.77459800">
        <ele>397.00000</ele>
        <time>2010-01-01T00:55:28Z</time>
      </trkpt>
      <trkpt lat="42.80313200" lon="-1.77458100">
        <ele>397.00000</ele>
        <time>2010-01-01T00:55:33Z</time>
      </trkpt>
      <trkpt lat="42.80301700" lon="-1.77455800">
        <ele>397.00000</ele>
        <time>2010-01-01T00:55:37Z</time>
      </trkpt>
      <trkpt lat="42.80291000" lon="-1.77457000">
        <ele>397.00000</ele>
        <time>2010-01-01T00:55:41Z</time>
      </trkpt>
      <trkpt lat="42.80279800" lon="-1.77459600">
        <ele>396.00000</ele>
        <time>2010-01-01T00:55:46Z</time>
      </trkpt>
      <trkpt lat="42.80268200" lon="-1.77460500">
        <ele>396.00000</ele>
        <time>2010-01-01T00:55:51Z</time>
      </trkpt>
      <trkpt lat="42.80256700" lon="-1.77460500">
        <ele>395.00000</ele>
        <time>2010-01-01T00:55:55Z</time>
      </trkpt>
      <trkpt lat="42.80246200" lon="-1.77457500">
        <ele>395.00000</ele>
        <time>2010-01-01T00:56:00Z</time>
      </trkpt>
      <trkpt lat="42.80235200" lon="-1.77450700">
        <ele>394.00000</ele>
        <time>2010-01-01T00:56:04Z</time>
      </trkpt>
      <trkpt lat="42.80227200" lon="-1.77443300">
        <ele>394.00000</ele>
        <time>2010-01-01T00:56:08Z</time>
      </trkpt>
      <trkpt lat="42.80206900" lon="-1.77435000">
        <ele>392.00000</ele>
        <time>2010-01-01T00:56:17Z</time>
      </trkpt>
      <trkpt lat="42.80197700" lon="-1.77423500">
        <ele>391.00000</ele>
        <time>2010-01-01T00:56:22Z</time>
      </trkpt>
      <trkpt lat="42.80188000" lon="-1.77412100">
        <ele>390.00000</ele>
        <time>2010-01-01T00:56:27Z</time>
      </trkpt>
      <trkpt lat="42.80177700" lon="-1.77400500">
        <ele>389.00000</ele>
        <time>2010-01-01T00:56:32Z</time>
      </trkpt>
      <trkpt lat="42.80170500" lon="-1.77391500">
        <ele>389.00000</ele>
        <time>2010-01-01T00:56:36Z</time>
      </trkpt>
      <trkpt lat="42.80163900" lon="-1.77380800">
        <ele>388.00000</ele>
        <time>2010-01-01T00:56:40Z</time>
      </trkpt>
      <trkpt lat="42.80158700" lon="-1.77368800">
        <ele>388.00000</ele>
        <time>2010-01-01T00:56:44Z</time>
      </trkpt>
      <trkpt lat="42.80155000" lon="-1.77356600">
        <ele>387.00000</ele>
        <time>2010-01-01T00:56:48Z</time>
      </trkpt>
      <trkpt lat="42.80151700" lon="-1.77345100">
        <ele>387.00000</ele>
        <time>2010-01-01T00:56:52Z</time>
      </trkpt>
      <trkpt lat="42.80146200" lon="-1.77328600">
        <ele>387.00000</ele>
        <time>2010-01-01T00:56:57Z</time>
      </trkpt>
      <trkpt lat="42.80141900" lon="-1.77312600">
        <ele>388.00000</ele>
        <time>2010-01-01T00:57:02Z</time>
      </trkpt>
      <trkpt lat="42.80137000" lon="-1.77296300">
        <ele>387.00000</ele>
        <time>2010-01-01T00:57:07Z</time>
      </trkpt>
      <trkpt lat="42.80132400" lon="-1.77279300">
        <ele>387.00000</ele>
        <time>2010-01-01T00:57:13Z</time>
      </trkpt>
      <trkpt lat="42.80128000" lon="-1.77262000">
        <ele>387.00000</ele>
        <time>2010-01-01T00:57:18Z</time>
      </trkpt>
      <trkpt lat="42.80125000" lon="-1.77250300">
        <ele>386.00000</ele>
        <time>2010-01-01T00:57:22Z</time>
      </trkpt>
      <trkpt lat="42.80121800" lon="-1.77232500">
        <ele>386.00000</ele>
        <time>2010-01-01T00:57:27Z</time>
      </trkpt>
      <trkpt lat="42.80120500" lon="-1.77214500">
        <ele>387.00000</ele>
        <time>2010-01-01T00:57:32Z</time>
      </trkpt>
      <trkpt lat="42.80121300" lon="-1.77196300">
        <ele>387.00000</ele>
        <time>2010-01-01T00:57:38Z</time>
      </trkpt>
      <trkpt lat="42.80122700" lon="-1.77184200">
        <ele>386.00000</ele>
        <time>2010-01-01T00:57:41Z</time>
      </trkpt>
      <trkpt lat="42.80126000" lon="-1.77172700">
        <ele>386.00000</ele>
        <time>2010-01-01T00:57:45Z</time>
      </trkpt>
      <trkpt lat="42.80130000" lon="-1.77161500">
        <ele>386.00000</ele>
        <time>2010-01-01T00:57:49Z</time>
      </trkpt>
      <trkpt lat="42.80135000" lon="-1.77150700">
        <ele>387.00000</ele>
        <time>2010-01-01T00:57:52Z</time>
      </trkpt>
      <trkpt lat="42.80141000" lon="-1.77139800">
        <ele>387.00000</ele>
        <time>2010-01-01T00:57:56Z</time>
      </trkpt>
      <trkpt lat="42.80147800" lon="-1.77129500">
        <ele>386.00000</ele>
        <time>2010-01-01T00:58:00Z</time>
      </trkpt>
      <trkpt lat="42.80162700" lon="-1.77110100">
        <ele>386.00000</ele>
        <time>2010-01-01T00:58:09Z</time>
      </trkpt>
      <trkpt lat="42.80170800" lon="-1.77101800">
        <ele>386.00000</ele>
        <time>2010-01-01T00:58:13Z</time>
      </trkpt>
      <trkpt lat="42.80179500" lon="-1.77093200">
        <ele>387.00000</ele>
        <time>2010-01-01T00:58:17Z</time>
      </trkpt>
      <trkpt lat="42.80188200" lon="-1.77084700">
        <ele>387.00000</ele>
        <time>2010-01-01T00:58:21Z</time>
      </trkpt>
      <trkpt lat="42.80197000" lon="-1.77076600">
        <ele>387.00000</ele>
        <time>2010-01-01T00:58:26Z</time>
      </trkpt>
      <trkpt lat="42.80205900" lon="-1.77068100">
        <ele>387.00000</ele>
        <time>2010-01-01T00:58:30Z</time>
      </trkpt>
      <trkpt lat="42.80214500" lon="-1.77059300">
        <ele>388.00000</ele>
        <time>2010-01-01T00:58:34Z</time>
      </trkpt>
      <trkpt lat="42.80223300" lon="-1.77050500">
        <ele>388.00000</ele>
        <time>2010-01-01T00:58:39Z</time>
      </trkpt>
      <trkpt lat="42.80231800" lon="-1.77040600">
        <ele>387.00000</ele>
        <time>2010-01-01T00:58:43Z</time>
      </trkpt>
      <trkpt lat="42.80240200" lon="-1.77030600">
        <ele>387.00000</ele>
        <time>2010-01-01T00:58:48Z</time>
      </trkpt>
      <trkpt lat="42.80248200" lon="-1.77020000">
        <ele>387.00000</ele>
        <time>2010-01-01T00:58:52Z</time>
      </trkpt>
      <trkpt lat="42.80255700" lon="-1.77008600">
        <ele>387.00000</ele>
        <time>2010-01-01T00:58:57Z</time>
      </trkpt>
      <trkpt lat="42.80262900" lon="-1.76997100">
        <ele>387.00000</ele>
        <time>2010-01-01T00:59:01Z</time>
      </trkpt>
      <trkpt lat="42.80269900" lon="-1.76985500">
        <ele>386.00000</ele>
        <time>2010-01-01T00:59:05Z</time>
      </trkpt>
      <trkpt lat="42.80276900" lon="-1.76974000">
        <ele>386.00000</ele>
        <time>2010-01-01T00:59:10Z</time>
      </trkpt>
      <trkpt lat="42.80283500" lon="-1.76962200">
        <ele>385.00000</ele>
        <time>2010-01-01T00:59:14Z</time>
      </trkpt>
      <trkpt lat="42.80288500" lon="-1.76949500">
        <ele>385.00000</ele>
        <time>2010-01-01T00:59:18Z</time>
      </trkpt>
      <trkpt lat="42.80292200" lon="-1.76937000">
        <ele>384.00000</ele>
        <time>2010-01-01T00:59:22Z</time>
      </trkpt>
      <trkpt lat="42.80296700" lon="-1.76920800">
        <ele>384.00000</ele>
        <time>2010-01-01T00:59:27Z</time>
      </trkpt>
      <trkpt lat="42.80299200" lon="-1.76908600">
        <ele>384.00000</ele>
        <time>2010-01-01T00:59:31Z</time>
      </trkpt>
      <trkpt lat="42.80302000" lon="-1.76895800">
        <ele>384.00000</ele>
        <time>2010-01-01T00:59:35Z</time>
      </trkpt>
      <trkpt lat="42.80305000" lon="-1.76881300">
        <ele>384.00000</ele>
        <time>2010-01-01T00:59:39Z</time>
      </trkpt>
      <trkpt lat="42.80307400" lon="-1.76867800">
        <ele>385.00000</ele>
        <time>2010-01-01T00:59:44Z</time>
      </trkpt>
      <trkpt lat="42.80310900" lon="-1.76852300">
        <ele>384.00000</ele>
        <time>2010-01-01T00:59:48Z</time>
      </trkpt>
      <trkpt lat="42.80314000" lon="-1.76837200">
        <ele>384.00000</ele>
        <time>2010-01-01T00:59:53Z</time>
      </trkpt>
      <trkpt lat="42.80314000" lon="-1.76817500">
        <ele>384.00000</ele>
        <time>2010-01-01T00:59:59Z</time>
      </trkpt>
      <trkpt lat="42.80301800" lon="-1.76783200">
        <ele>383.00000</ele>
        <time>2010-01-01T01:00:10Z</time>
      </trkpt>
      <trkpt lat="42.80295500" lon="-1.76768300">
        <ele>383.00000</ele>
        <time>2010-01-01T01:00:15Z</time>
      </trkpt>
      <trkpt lat="42.80289300" lon="-1.76754600">
        <ele>382.00000</ele>
        <time>2010-01-01T01:00:20Z</time>
      </trkpt>
      <trkpt lat="42.80283700" lon="-1.76741800">
        <ele>381.00000</ele>
        <time>2010-01-01T01:00:24Z</time>
      </trkpt>
      <trkpt lat="42.80278000" lon="-1.76729500">
        <ele>381.00000</ele>
        <time>2010-01-01T01:00:28Z</time>
      </trkpt>
      <trkpt lat="42.80273000" lon="-1.76716800">
        <ele>380.00000</ele>
        <time>2010-01-01T01:00:33Z</time>
      </trkpt>
      <trkpt lat="42.80268500" lon="-1.76704000">
        <ele>379.00000</ele>
        <time>2010-01-01T01:00:37Z</time>
      </trkpt>
      <trkpt lat="42.80263200" lon="-1.76691800">
        <ele>378.00000</ele>
        <time>2010-01-01T01:00:41Z</time>
      </trkpt>
      <trkpt lat="42.80257500" lon="-1.76680000">
        <ele>378.00000</ele>
        <time>2010-01-01T01:00:45Z</time>
      </trkpt>
      <trkpt lat="42.80252000" lon="-1.76668500">
        <ele>379.00000</ele>
        <time>2010-01-01T01:00:49Z</time>
      </trkpt>
      <trkpt lat="42.80246800" lon="-1.76657000">
        <ele>379.00000</ele>
        <time>2010-01-01T01:00:53Z</time>
      </trkpt>
      <trkpt lat="42.80241900" lon="-1.76645500">
        <ele>379.00000</ele>
        <time>2010-01-01T01:00:57Z</time>
      </trkpt>
      <trkpt lat="42.80237000" lon="-1.76634000">
        <ele>380.00000</ele>
        <time>2010-01-01T01:01:01Z</time>
      </trkpt>
      <trkpt lat="42.80232200" lon="-1.76622500">
        <ele>380.00000</ele>
        <time>2010-01-01T01:01:05Z</time>
      </trkpt>
      <trkpt lat="42.80227300" lon="-1.76611200">
        <ele>380.00000</ele>
        <time>2010-01-01T01:01:09Z</time>
      </trkpt>
      <trkpt lat="42.80222800" lon="-1.76599600">
        <ele>381.00000</ele>
        <time>2010-01-01T01:01:12Z</time>
      </trkpt>
      <trkpt lat="42.80217900" lon="-1.76588300">
        <ele>380.00000</ele>
        <time>2010-01-01T01:01:16Z</time>
      </trkpt>
      <trkpt lat="42.80212700" lon="-1.76577300">
        <ele>380.00000</ele>
        <time>2010-01-01T01:01:20Z</time>
      </trkpt>
      <trkpt lat="42.80207900" lon="-1.76566200">
        <ele>380.00000</ele>
        <time>2010-01-01T01:01:24Z</time>
      </trkpt>
      <trkpt lat="42.80203200" lon="-1.76554700">
        <ele>380.00000</ele>
        <time>2010-01-01T01:01:28Z</time>
      </trkpt>
      <trkpt lat="42.80198200" lon="-1.76543300">
        <ele>380.00000</ele>
        <time>2010-01-01T01:01:32Z</time>
      </trkpt>
      <trkpt lat="42.80193900" lon="-1.76531600">
        <ele>379.00000</ele>
        <time>2010-01-01T01:01:36Z</time>
      </trkpt>
      <trkpt lat="42.80190300" lon="-1.76519500">
        <ele>379.00000</ele>
        <time>2010-01-01T01:01:39Z</time>
      </trkpt>
      <trkpt lat="42.80187900" lon="-1.76507300">
        <ele>379.00000</ele>
        <time>2010-01-01T01:01:43Z</time>
      </trkpt>
      <trkpt lat="42.80187400" lon="-1.76495000">
        <ele>379.00000</ele>
        <time>2010-01-01T01:01:47Z</time>
      </trkpt>
      <trkpt lat="42.80190000" lon="-1.76483200">
        <ele>379.00000</ele>
        <time>2010-01-01T01:01:50Z</time>
      </trkpt>
      <trkpt lat="42.80193500" lon="-1.76471500">
        <ele>379.00000</ele>
        <time>2010-01-01T01:01:54Z</time>
      </trkpt>
      <trkpt lat="42.80197400" lon="-1.76459600">
        <ele>379.00000</ele>
        <time>2010-01-01T01:01:58Z</time>
      </trkpt>
      <trkpt lat="42.80200700" lon="-1.76447700">
        <ele>379.00000</ele>
        <time>2010-01-01T01:02:02Z</time>
      </trkpt>
      <trkpt lat="42.80203800" lon="-1.76435700">
        <ele>379.00000</ele>
        <time>2010-01-01T01:02:05Z</time>
      </trkpt>
      <trkpt lat="42.80210800" lon="-1.76411300">
        <ele>380.00000</ele>
        <time>2010-01-01T01:02:13Z</time>
      </trkpt>
      <trkpt lat="42.80214500" lon="-1.76399000">
        <ele>380.00000</ele>
        <time>2010-01-01T01:02:17Z</time>
      </trkpt>
      <trkpt lat="42.80217900" lon="-1.76386100">
        <ele>381.00000</ele>
        <time>2010-01-01T01:02:21Z</time>
      </trkpt>
      <trkpt lat="42.80221500" lon="-1.76373500">
        <ele>381.00000</ele>
        <time>2010-01-01T01:02:25Z</time>
      </trkpt>
      <trkpt lat="42.80224300" lon="-1.76360800">
        <ele>381.00000</ele>
        <time>2010-01-01T01:02:29Z</time>
      </trkpt>
      <trkpt lat="42.80227200" lon="-1.76348200">
        <ele>381.00000</ele>
        <time>2010-01-01T01:02:33Z</time>
      </trkpt>
      <trkpt lat="42.80229400" lon="-1.76335500">
        <ele>381.00000</ele>
        <time>2010-01-01T01:02:37Z</time>
      </trkpt>
      <trkpt lat="42.80231400" lon="-1.76322800">
        <ele>381.00000</ele>
        <time>2010-01-01T01:02:40Z</time>
      </trkpt>
      <trkpt lat="42.80232300" lon="-1.76310000">
        <ele>381.00000</ele>
        <time>2010-01-01T01:02:44Z</time>
      </trkpt>
      <trkpt lat="42.80232500" lon="-1.76296800">
        <ele>380.00000</ele>
        <time>2010-01-01T01:02:48Z</time>
      </trkpt>
      <trkpt lat="42.80232500" lon="-1.76283800">
        <ele>380.00000</ele>
        <time>2010-01-01T01:02:52Z</time>
      </trkpt>
      <trkpt lat="42.80231800" lon="-1.76270800">
        <ele>380.00000</ele>
        <time>2010-01-01T01:02:56Z</time>
      </trkpt>
      <trkpt lat="42.80230900" lon="-1.76258000">
        <ele>380.00000</ele>
        <time>2010-01-01T01:02:59Z</time>
      </trkpt>
      <trkpt lat="42.80230000" lon="-1.76245300">
        <ele>381.00000</ele>
        <time>2010-01-01T01:03:03Z</time>
      </trkpt>
      <trkpt lat="42.80229000" lon="-1.76233000">
        <ele>381.00000</ele>
        <time>2010-01-01T01:03:07Z</time>
      </trkpt>
      <trkpt lat="42.80227900" lon="-1.76220800">
        <ele>381.00000</ele>
        <time>2010-01-01T01:03:10Z</time>
      </trkpt>
      <trkpt lat="42.80226400" lon="-1.76203000">
        <ele>381.00000</ele>
        <time>2010-01-01T01:03:16Z</time>
      </trkpt>
      <trkpt lat="42.80224700" lon="-1.76185600">
        <ele>382.00000</ele>
        <time>2010-01-01T01:03:21Z</time>
      </trkpt>
      <trkpt lat="42.80223300" lon="-1.76168500">
        <ele>382.00000</ele>
        <time>2010-01-01T01:03:26Z</time>
      </trkpt>
      <trkpt lat="42.80221700" lon="-1.76152000">
        <ele>383.00000</ele>
        <time>2010-01-01T01:03:31Z</time>
      </trkpt>
      <trkpt lat="42.80221200" lon="-1.76135700">
        <ele>384.00000</ele>
        <time>2010-01-01T01:03:36Z</time>
      </trkpt>
      <trkpt lat="42.80219900" lon="-1.76120300">
        <ele>384.00000</ele>
        <time>2010-01-01T01:03:40Z</time>
      </trkpt>
      <trkpt lat="42.80218700" lon="-1.76105100">
        <ele>384.00000</ele>
        <time>2010-01-01T01:03:45Z</time>
      </trkpt>
      <trkpt lat="42.80216900" lon="-1.76090200">
        <ele>384.00000</ele>
        <time>2010-01-01T01:03:49Z</time>
      </trkpt>
      <trkpt lat="42.80215500" lon="-1.76075100">
        <ele>384.00000</ele>
        <time>2010-01-01T01:03:54Z</time>
      </trkpt>
      <trkpt lat="42.80212800" lon="-1.76046300">
        <ele>385.00000</ele>
        <time>2010-01-01T01:04:02Z</time>
      </trkpt>
      <trkpt lat="42.80211000" lon="-1.76032300">
        <ele>385.00000</ele>
        <time>2010-01-01T01:04:06Z</time>
      </trkpt>
      <trkpt lat="42.80209300" lon="-1.76018100">
        <ele>385.00000</ele>
        <time>2010-01-01T01:04:10Z</time>
      </trkpt>
      <trkpt lat="42.80208000" lon="-1.76003800">
        <ele>385.00000</ele>
        <time>2010-01-01T01:04:15Z</time>
      </trkpt>
      <trkpt lat="42.80207000" lon="-1.75989700">
        <ele>385.00000</ele>
        <time>2010-01-01T01:04:19Z</time>
      </trkpt>
      <trkpt lat="42.80206200" lon="-1.75975500">
        <ele>386.00000</ele>
        <time>2010-01-01T01:04:23Z</time>
      </trkpt>
      <trkpt lat="42.80204800" lon="-1.75961300">
        <ele>386.00000</ele>
        <time>2010-01-01T01:04:27Z</time>
      </trkpt>
      <trkpt lat="42.80203500" lon="-1.75947300">
        <ele>387.00000</ele>
        <time>2010-01-01T01:04:31Z</time>
      </trkpt>
      <trkpt lat="42.80201200" lon="-1.75933800">
        <ele>387.00000</ele>
        <time>2010-01-01T01:04:35Z</time>
      </trkpt>
      <trkpt lat="42.80193200" lon="-1.75928000">
        <ele>387.00000</ele>
        <time>2010-01-01T01:04:39Z</time>
      </trkpt>
      <trkpt lat="42.80184200" lon="-1.75931500">
        <ele>387.00000</ele>
        <time>2010-01-01T01:04:43Z</time>
      </trkpt>
      <trkpt lat="42.80174000" lon="-1.75937100">
        <ele>387.00000</ele>
        <time>2010-01-01T01:04:47Z</time>
      </trkpt>
      <trkpt lat="42.80162500" lon="-1.75943000">
        <ele>387.00000</ele>
        <time>2010-01-01T01:04:52Z</time>
      </trkpt>
      <trkpt lat="42.80150400" lon="-1.75949500">
        <ele>386.00000</ele>
        <time>2010-01-01T01:04:57Z</time>
      </trkpt>
      <trkpt lat="42.80141500" lon="-1.75953800">
        <ele>386.00000</ele>
        <time>2010-01-01T01:05:01Z</time>
      </trkpt>
      <trkpt lat="42.80132700" lon="-1.75958500">
        <ele>387.00000</ele>
        <time>2010-01-01T01:05:05Z</time>
      </trkpt>
      <trkpt lat="42.80122700" lon="-1.75965200">
        <ele>387.00000</ele>
        <time>2010-01-01T01:05:09Z</time>
      </trkpt>
      <trkpt lat="42.80116900" lon="-1.75976800">
        <ele>388.00000</ele>
        <time>2010-01-01T01:05:13Z</time>
      </trkpt>
      <trkpt lat="42.80115200" lon="-1.75989700">
        <ele>389.00000</ele>
        <time>2010-01-01T01:05:17Z</time>
      </trkpt>
      <trkpt lat="42.80121200" lon="-1.76014300">
        <ele>389.00000</ele>
        <time>2010-01-01T01:05:25Z</time>
      </trkpt>
      <trkpt lat="42.80126800" lon="-1.76024800">
        <ele>389.00000</ele>
        <time>2010-01-01T01:05:29Z</time>
      </trkpt>
      <trkpt lat="42.80130700" lon="-1.76036100">
        <ele>389.00000</ele>
        <time>2010-01-01T01:05:32Z</time>
      </trkpt>
      <trkpt lat="42.80135200" lon="-1.76048800">
        <ele>389.00000</ele>
        <time>2010-01-01T01:05:37Z</time>
      </trkpt>
      <trkpt lat="42.80138500" lon="-1.76061000">
        <ele>389.00000</ele>
        <time>2010-01-01T01:05:40Z</time>
      </trkpt>
      <trkpt lat="42.80138900" lon="-1.76074600">
        <ele>390.00000</ele>
        <time>2010-01-01T01:05:44Z</time>
      </trkpt>
      <trkpt lat="42.80134000" lon="-1.76086000">
        <ele>391.00000</ele>
        <time>2010-01-01T01:05:48Z</time>
      </trkpt>
      <trkpt lat="42.80126300" lon="-1.76093100">
        <ele>392.00000</ele>
        <time>2010-01-01T01:05:52Z</time>
      </trkpt>
      <trkpt lat="42.80116000" lon="-1.76095800">
        <ele>393.00000</ele>
        <time>2010-01-01T01:05:56Z</time>
      </trkpt>
      <trkpt lat="42.80105500" lon="-1.76095300">
        <ele>394.00000</ele>
        <time>2010-01-01T01:06:00Z</time>
      </trkpt>
      <trkpt lat="42.80086200" lon="-1.76095000">
        <ele>397.00000</ele>
        <time>2010-01-01T01:06:08Z</time>
      </trkpt>
      <trkpt lat="42.80076800" lon="-1.76095000">
        <ele>399.00000</ele>
        <time>2010-01-01T01:06:12Z</time>
      </trkpt>
      <trkpt lat="42.80067800" lon="-1.76094800">
        <ele>401.00000</ele>
        <time>2010-01-01T01:06:15Z</time>
      </trkpt>
      <trkpt lat="42.80058800" lon="-1.76094300">
        <ele>403.00000</ele>
        <time>2010-01-01T01:06:19Z</time>
      </trkpt>
      <trkpt lat="42.80049900" lon="-1.76093300">
        <ele>405.00000</ele>
        <time>2010-01-01T01:06:23Z</time>
      </trkpt>
      <trkpt lat="42.80040700" lon="-1.76092500">
        <ele>406.00000</ele>
        <time>2010-01-01T01:06:26Z</time>
      </trkpt>
      <trkpt lat="42.80030500" lon="-1.76092300">
        <ele>408.00000</ele>
        <time>2010-01-01T01:06:30Z</time>
      </trkpt>
      <trkpt lat="42.80021200" lon="-1.76092600">
        <ele>408.00000</ele>
        <time>2010-01-01T01:06:34Z</time>
      </trkpt>
      <trkpt lat="42.80011800" lon="-1.76092800">
        <ele>408.00000</ele>
        <time>2010-01-01T01:06:38Z</time>
      </trkpt>
      <trkpt lat="42.80002800" lon="-1.76092500">
        <ele>408.00000</ele>
        <time>2010-01-01T01:06:42Z</time>
      </trkpt>
      <trkpt lat="42.79982300" lon="-1.76090800">
        <ele>408.00000</ele>
        <time>2010-01-01T01:06:50Z</time>
      </trkpt>
      <trkpt lat="42.79973200" lon="-1.76091000">
        <ele>409.00000</ele>
        <time>2010-01-01T01:06:53Z</time>
      </trkpt>
      <trkpt lat="42.79963500" lon="-1.76090500">
        <ele>409.00000</ele>
        <time>2010-01-01T01:06:57Z</time>
      </trkpt>
      <trkpt lat="42.79953900" lon="-1.76091000">
        <ele>410.00000</ele>
        <time>2010-01-01T01:07:01Z</time>
      </trkpt>
      <trkpt lat="42.79944000" lon="-1.76090800">
        <ele>411.00000</ele>
        <time>2010-01-01T01:07:05Z</time>
      </trkpt>
      <trkpt lat="42.79934000" lon="-1.76090500">
        <ele>413.00000</ele>
        <time>2010-01-01T01:07:09Z</time>
      </trkpt>
      <trkpt lat="42.79923500" lon="-1.76090300">
        <ele>415.00000</ele>
        <time>2010-01-01T01:07:13Z</time>
      </trkpt>
      <trkpt lat="42.79913000" lon="-1.76090500">
        <ele>417.00000</ele>
        <time>2010-01-01T01:07:17Z</time>
      </trkpt>
      <trkpt lat="42.79904000" lon="-1.76091100">
        <ele>419.00000</ele>
        <time>2010-01-01T01:07:21Z</time>
      </trkpt>
      <trkpt lat="42.79883500" lon="-1.76089200">
        <ele>422.00000</ele>
        <time>2010-01-01T01:07:29Z</time>
      </trkpt>
      <trkpt lat="42.79874500" lon="-1.76082300">
        <ele>422.00000</ele>
        <time>2010-01-01T01:07:33Z</time>
      </trkpt>
      <trkpt lat="42.79867800" lon="-1.76071000">
        <ele>422.00000</ele>
        <time>2010-01-01T01:07:38Z</time>
      </trkpt>
      <trkpt lat="42.79863800" lon="-1.76060000">
        <ele>423.00000</ele>
        <time>2010-01-01T01:07:41Z</time>
      </trkpt>
      <trkpt lat="42.79859200" lon="-1.76048500">
        <ele>423.00000</ele>
        <time>2010-01-01T01:07:45Z</time>
      </trkpt>
      <trkpt lat="42.79854800" lon="-1.76037500">
        <ele>424.00000</ele>
        <time>2010-01-01T01:07:49Z</time>
      </trkpt>
      <trkpt lat="42.79850200" lon="-1.76025000">
        <ele>426.00000</ele>
        <time>2010-01-01T01:07:53Z</time>
      </trkpt>
      <trkpt lat="42.79845500" lon="-1.76011800">
        <ele>425.00000</ele>
        <time>2010-01-01T01:07:57Z</time>
      </trkpt>
      <trkpt lat="42.79842200" lon="-1.76000200">
        <ele>425.00000</ele>
        <time>2010-01-01T01:08:01Z</time>
      </trkpt>
      <trkpt lat="42.79837900" lon="-1.75988000">
        <ele>425.00000</ele>
        <time>2010-01-01T01:08:05Z</time>
      </trkpt>
      <trkpt lat="42.79833300" lon="-1.75975800">
        <ele>424.00000</ele>
        <time>2010-01-01T01:08:09Z</time>
      </trkpt>
      <trkpt lat="42.79828500" lon="-1.75963700">
        <ele>424.00000</ele>
        <time>2010-01-01T01:08:13Z</time>
      </trkpt>
      <trkpt lat="42.79823700" lon="-1.75951800">
        <ele>424.00000</ele>
        <time>2010-01-01T01:08:17Z</time>
      </trkpt>
      <trkpt lat="42.79819500" lon="-1.75940000">
        <ele>425.00000</ele>
        <time>2010-01-01T01:08:21Z</time>
      </trkpt>
      <trkpt lat="42.79809300" lon="-1.75918100">
        <ele>426.00000</ele>
        <time>2010-01-01T01:08:28Z</time>
      </trkpt>
      <trkpt lat="42.79803700" lon="-1.75907800">
        <ele>427.00000</ele>
        <time>2010-01-01T01:08:32Z</time>
      </trkpt>
      <trkpt lat="42.79797000" lon="-1.75898700">
        <ele>427.00000</ele>
        <time>2010-01-01T01:08:36Z</time>
      </trkpt>
      <trkpt lat="42.79789500" lon="-1.75890300">
        <ele>427.00000</ele>
        <time>2010-01-01T01:08:40Z</time>
      </trkpt>
      <trkpt lat="42.79782700" lon="-1.75880800">
        <ele>428.00000</ele>
        <time>2010-01-01T01:08:44Z</time>
      </trkpt>
      <trkpt lat="42.79775400" lon="-1.75871000">
        <ele>427.00000</ele>
        <time>2010-01-01T01:08:48Z</time>
      </trkpt>
      <trkpt lat="42.79767200" lon="-1.75862500">
        <ele>427.00000</ele>
        <time>2010-01-01T01:08:52Z</time>
      </trkpt>
      <trkpt lat="42.79760000" lon="-1.75851700">
        <ele>427.00000</ele>
        <time>2010-01-01T01:08:56Z</time>
      </trkpt>
      <trkpt lat="42.79752000" lon="-1.75842200">
        <ele>427.00000</ele>
        <time>2010-01-01T01:09:01Z</time>
      </trkpt>
      <trkpt lat="42.79744300" lon="-1.75832500">
        <ele>426.00000</ele>
        <time>2010-01-01T01:09:05Z</time>
      </trkpt>
      <trkpt lat="42.79736900" lon="-1.75822300">
        <ele>425.00000</ele>
        <time>2010-01-01T01:09:09Z</time>
      </trkpt>
      <trkpt lat="42.79729200" lon="-1.75812600">
        <ele>425.00000</ele>
        <time>2010-01-01T01:09:13Z</time>
      </trkpt>
      <trkpt lat="42.79721300" lon="-1.75803300">
        <ele>425.00000</ele>
        <time>2010-01-01T01:09:17Z</time>
      </trkpt>
      <trkpt lat="42.79713900" lon="-1.75793800">
        <ele>425.00000</ele>
        <time>2010-01-01T01:09:21Z</time>
      </trkpt>
      <trkpt lat="42.79706400" lon="-1.75784600">
        <ele>424.00000</ele>
        <time>2010-01-01T01:09:25Z</time>
      </trkpt>
      <trkpt lat="42.79699200" lon="-1.75775300">
        <ele>424.00000</ele>
        <time>2010-01-01T01:09:29Z</time>
      </trkpt>
      <trkpt lat="42.79691200" lon="-1.75766200">
        <ele>425.00000</ele>
        <time>2010-01-01T01:09:34Z</time>
      </trkpt>
      <trkpt lat="42.79683700" lon="-1.75757100">
        <ele>425.00000</ele>
        <time>2010-01-01T01:09:38Z</time>
      </trkpt>
      <trkpt lat="42.79676300" lon="-1.75747800">
        <ele>425.00000</ele>
        <time>2010-01-01T01:09:42Z</time>
      </trkpt>
      <trkpt lat="42.79668800" lon="-1.75738600">
        <ele>425.00000</ele>
        <time>2010-01-01T01:09:46Z</time>
      </trkpt>
      <trkpt lat="42.79654200" lon="-1.75720000">
        <ele>426.00000</ele>
        <time>2010-01-01T01:09:54Z</time>
      </trkpt>
      <trkpt lat="42.79646900" lon="-1.75710800">
        <ele>426.00000</ele>
        <time>2010-01-01T01:09:58Z</time>
      </trkpt>
      <trkpt lat="42.79639200" lon="-1.75701800">
        <ele>427.00000</ele>
        <time>2010-01-01T01:10:02Z</time>
      </trkpt>
      <trkpt lat="42.79631700" lon="-1.75692100">
        <ele>427.00000</ele>
        <time>2010-01-01T01:10:06Z</time>
      </trkpt>
      <trkpt lat="42.79624000" lon="-1.75682800">
        <ele>427.00000</ele>
        <time>2010-01-01T01:10:10Z</time>
      </trkpt>
      <trkpt lat="42.79616500" lon="-1.75673500">
        <ele>427.00000</ele>
        <time>2010-01-01T01:10:14Z</time>
      </trkpt>
      <trkpt lat="42.79609300" lon="-1.75664000">
        <ele>427.00000</ele>
        <time>2010-01-01T01:10:18Z</time>
      </trkpt>
      <trkpt lat="42.79602500" lon="-1.75653700">
        <ele>426.00000</ele>
        <time>2010-01-01T01:10:22Z</time>
      </trkpt>
      <trkpt lat="42.79594900" lon="-1.75644300">
        <ele>426.00000</ele>
        <time>2010-01-01T01:10:26Z</time>
      </trkpt>
      <trkpt lat="42.79587200" lon="-1.75635000">
        <ele>426.00000</ele>
        <time>2010-01-01T01:10:30Z</time>
      </trkpt>
      <trkpt lat="42.79579200" lon="-1.75625300">
        <ele>426.00000</ele>
        <time>2010-01-01T01:10:35Z</time>
      </trkpt>
      <trkpt lat="42.79571500" lon="-1.75615800">
        <ele>427.00000</ele>
        <time>2010-01-01T01:10:39Z</time>
      </trkpt>
      <trkpt lat="42.79563700" lon="-1.75606300">
        <ele>428.00000</ele>
        <time>2010-01-01T01:10:43Z</time>
      </trkpt>
      <trkpt lat="42.79556000" lon="-1.75596700">
        <ele>429.00000</ele>
        <time>2010-01-01T01:10:47Z</time>
      </trkpt>
      <trkpt lat="42.79548200" lon="-1.75587200">
        <ele>430.00000</ele>
        <time>2010-01-01T01:10:51Z</time>
      </trkpt>
      <trkpt lat="42.79540500" lon="-1.75578000">
        <ele>430.00000</ele>
        <time>2010-01-01T01:10:55Z</time>
      </trkpt>
      <trkpt lat="42.79532700" lon="-1.75569000">
        <ele>431.00000</ele>
        <time>2010-01-01T01:11:00Z</time>
      </trkpt>
      <trkpt lat="42.79525400" lon="-1.75559100">
        <ele>431.00000</ele>
        <time>2010-01-01T01:11:04Z</time>
      </trkpt>
      <trkpt lat="42.79518000" lon="-1.75548800">
        <ele>431.00000</ele>
        <time>2010-01-01T01:11:08Z</time>
      </trkpt>
      <trkpt lat="42.79510000" lon="-1.75538800">
        <ele>431.00000</ele>
        <time>2010-01-01T01:11:12Z</time>
      </trkpt>
      <trkpt lat="42.79493500" lon="-1.75520300">
        <ele>431.00000</ele>
        <time>2010-01-01T01:11:21Z</time>
      </trkpt>
      <trkpt lat="42.79486000" lon="-1.75510300">
        <ele>430.00000</ele>
        <time>2010-01-01T01:11:25Z</time>
      </trkpt>
      <trkpt lat="42.79479400" lon="-1.75501100">
        <ele>429.00000</ele>
        <time>2010-01-01T01:11:29Z</time>
      </trkpt>
      <trkpt lat="42.79472500" lon="-1.75492800">
        <ele>428.00000</ele>
        <time>2010-01-01T01:11:32Z</time>
      </trkpt>
      <trkpt lat="42.79463700" lon="-1.75482500">
        <ele>426.00000</ele>
        <time>2010-01-01T01:11:37Z</time>
      </trkpt>
      <trkpt lat="42.79455500" lon="-1.75471300">
        <ele>424.00000</ele>
        <time>2010-01-01T01:11:42Z</time>
      </trkpt>
      <trkpt lat="42.79448700" lon="-1.75461200">
        <ele>424.00000</ele>
        <time>2010-01-01T01:11:46Z</time>
      </trkpt>
      <trkpt lat="42.79441500" lon="-1.75450200">
        <ele>425.00000</ele>
        <time>2010-01-01T01:11:50Z</time>
      </trkpt>
      <trkpt lat="42.79434500" lon="-1.75438000">
        <ele>425.00000</ele>
        <time>2010-01-01T01:11:55Z</time>
      </trkpt>
      <trkpt lat="42.79427900" lon="-1.75425500">
        <ele>426.00000</ele>
        <time>2010-01-01T01:11:59Z</time>
      </trkpt>
      <trkpt lat="42.79420800" lon="-1.75413000">
        <ele>427.00000</ele>
        <time>2010-01-01T01:12:04Z</time>
      </trkpt>
      <trkpt lat="42.79413900" lon="-1.75400500">
        <ele>427.00000</ele>
        <time>2010-01-01T01:12:08Z</time>
      </trkpt>
      <trkpt lat="42.79406800" lon="-1.75388000">
        <ele>427.00000</ele>
        <time>2010-01-01T01:12:13Z</time>
      </trkpt>
      <trkpt lat="42.79399300" lon="-1.75375800">
        <ele>426.00000</ele>
        <time>2010-01-01T01:12:18Z</time>
      </trkpt>
      <trkpt lat="42.79391200" lon="-1.75364500">
        <ele>426.00000</ele>
        <time>2010-01-01T01:12:22Z</time>
      </trkpt>
      <trkpt lat="42.79383000" lon="-1.75353200">
        <ele>427.00000</ele>
        <time>2010-01-01T01:12:27Z</time>
      </trkpt>
      <trkpt lat="42.79374200" lon="-1.75342300">
        <ele>427.00000</ele>
        <time>2010-01-01T01:12:32Z</time>
      </trkpt>
      <trkpt lat="42.79365200" lon="-1.75331800">
        <ele>426.00000</ele>
        <time>2010-01-01T01:12:37Z</time>
      </trkpt>
      <trkpt lat="42.79356400" lon="-1.75321200">
        <ele>427.00000</ele>
        <time>2010-01-01T01:12:41Z</time>
      </trkpt>
      <trkpt lat="42.79347200" lon="-1.75310800">
        <ele>427.00000</ele>
        <time>2010-01-01T01:12:46Z</time>
      </trkpt>
      <trkpt lat="42.79331000" lon="-1.75288100">
        <ele>428.00000</ele>
        <time>2010-01-01T01:12:55Z</time>
      </trkpt>
      <trkpt lat="42.79322400" lon="-1.75277300">
        <ele>428.00000</ele>
        <time>2010-01-01T01:13:00Z</time>
      </trkpt>
      <trkpt lat="42.79313900" lon="-1.75266500">
        <ele>428.00000</ele>
        <time>2010-01-01T01:13:05Z</time>
      </trkpt>
      <trkpt lat="42.79305200" lon="-1.75256100">
        <ele>428.00000</ele>
        <time>2010-01-01T01:13:09Z</time>
      </trkpt>
      <trkpt lat="42.79296800" lon="-1.75245600">
        <ele>428.00000</ele>
        <time>2010-01-01T01:13:14Z</time>
      </trkpt>
      <trkpt lat="42.79288400" lon="-1.75235100">
        <ele>429.00000</ele>
        <time>2010-01-01T01:13:18Z</time>
      </trkpt>
      <trkpt lat="42.79280200" lon="-1.75225000">
        <ele>430.00000</ele>
        <time>2010-01-01T01:13:23Z</time>
      </trkpt>
      <trkpt lat="42.79272200" lon="-1.75214800">
        <ele>431.00000</ele>
        <time>2010-01-01T01:13:27Z</time>
      </trkpt>
      <trkpt lat="42.79264300" lon="-1.75204200">
        <ele>431.00000</ele>
        <time>2010-01-01T01:13:32Z</time>
      </trkpt>
      <trkpt lat="42.79256000" lon="-1.75193800">
        <ele>431.00000</ele>
        <time>2010-01-01T01:13:36Z</time>
      </trkpt>
      <trkpt lat="42.79247400" lon="-1.75184000">
        <ele>431.00000</ele>
        <time>2010-01-01T01:13:41Z</time>
      </trkpt>
      <trkpt lat="42.79239200" lon="-1.75173800">
        <ele>431.00000</ele>
        <time>2010-01-01T01:13:45Z</time>
      </trkpt>
      <trkpt lat="42.79231200" lon="-1.75163200">
        <ele>432.00000</ele>
        <time>2010-01-01T01:13:50Z</time>
      </trkpt>
      <trkpt lat="42.79223000" lon="-1.75152800">
        <ele>432.00000</ele>
        <time>2010-01-01T01:13:54Z</time>
      </trkpt>
      <trkpt lat="42.79215400" lon="-1.75142500">
        <ele>433.00000</ele>
        <time>2010-01-01T01:13:58Z</time>
      </trkpt>
      <trkpt lat="42.79207700" lon="-1.75132100">
        <ele>433.00000</ele>
        <time>2010-01-01T01:14:03Z</time>
      </trkpt>
      <trkpt lat="42.79199500" lon="-1.75122600">
        <ele>433.00000</ele>
        <time>2010-01-01T01:14:07Z</time>
      </trkpt>
      <trkpt lat="42.79192200" lon="-1.75113700">
        <ele>433.00000</ele>
        <time>2010-01-01T01:14:11Z</time>
      </trkpt>
      <trkpt lat="42.79185000" lon="-1.75105200">
        <ele>433.00000</ele>
        <time>2010-01-01T01:14:15Z</time>
      </trkpt>
      <trkpt lat="42.79177700" lon="-1.75096000">
        <ele>433.00000</ele>
        <time>2010-01-01T01:14:19Z</time>
      </trkpt>
      <trkpt lat="42.79162300" lon="-1.75076000">
        <ele>434.00000</ele>
        <time>2010-01-01T01:14:27Z</time>
      </trkpt>
      <trkpt lat="42.79154300" lon="-1.75066600">
        <ele>434.00000</ele>
        <time>2010-01-01T01:14:31Z</time>
      </trkpt>
      <trkpt lat="42.79147000" lon="-1.75057800">
        <ele>435.00000</ele>
        <time>2010-01-01T01:14:35Z</time>
      </trkpt>
      <trkpt lat="42.79139200" lon="-1.75048700">
        <ele>435.00000</ele>
        <time>2010-01-01T01:14:39Z</time>
      </trkpt>
      <trkpt lat="42.79130000" lon="-1.75041000">
        <ele>435.00000</ele>
        <time>2010-01-01T01:14:44Z</time>
      </trkpt>
      <trkpt lat="42.79119800" lon="-1.75032800">
        <ele>435.00000</ele>
        <time>2010-01-01T01:14:49Z</time>
      </trkpt>
      <trkpt lat="42.79109200" lon="-1.75023500">
        <ele>435.00000</ele>
        <time>2010-01-01T01:14:54Z</time>
      </trkpt>
      <trkpt lat="42.79098000" lon="-1.75013200">
        <ele>435.00000</ele>
        <time>2010-01-01T01:14:59Z</time>
      </trkpt>
      <trkpt lat="42.79090900" lon="-1.75005300">
        <ele>435.00000</ele>
        <time>2010-01-01T01:15:03Z</time>
      </trkpt>
      <trkpt lat="42.79079500" lon="-1.74997100">
        <ele>435.00000</ele>
        <time>2010-01-01T01:15:08Z</time>
      </trkpt>
      <trkpt lat="42.79068700" lon="-1.74988100">
        <ele>435.00000</ele>
        <time>2010-01-01T01:15:13Z</time>
      </trkpt>
      <trkpt lat="42.79058500" lon="-1.74979300">
        <ele>435.00000</ele>
        <time>2010-01-01T01:15:18Z</time>
      </trkpt>
      <trkpt lat="42.79048800" lon="-1.74971200">
        <ele>436.00000</ele>
        <time>2010-01-01T01:15:22Z</time>
      </trkpt>
      <trkpt lat="42.79039300" lon="-1.74963600">
        <ele>436.00000</ele>
        <time>2010-01-01T01:15:27Z</time>
      </trkpt>
      <trkpt lat="42.79029800" lon="-1.74956000">
        <ele>437.00000</ele>
        <time>2010-01-01T01:15:31Z</time>
      </trkpt>
      <trkpt lat="42.79020000" lon="-1.74948700">
        <ele>437.00000</ele>
        <time>2010-01-01T01:15:36Z</time>
      </trkpt>
      <trkpt lat="42.79010400" lon="-1.74940200">
        <ele>438.00000</ele>
        <time>2010-01-01T01:15:40Z</time>
      </trkpt>
      <trkpt lat="42.79001000" lon="-1.74931800">
        <ele>438.00000</ele>
        <time>2010-01-01T01:15:45Z</time>
      </trkpt>
      <trkpt lat="42.78991700" lon="-1.74924000">
        <ele>438.00000</ele>
        <time>2010-01-01T01:15:49Z</time>
      </trkpt>
      <trkpt lat="42.78982300" lon="-1.74916200">
        <ele>438.00000</ele>
        <time>2010-01-01T01:15:53Z</time>
      </trkpt>
      <trkpt lat="42.78964000" lon="-1.74898500">
        <ele>438.00000</ele>
        <time>2010-01-01T01:16:02Z</time>
      </trkpt>
      <trkpt lat="42.78954400" lon="-1.74890600">
        <ele>438.00000</ele>
        <time>2010-01-01T01:16:07Z</time>
      </trkpt>
      <trkpt lat="42.78944900" lon="-1.74881500">
        <ele>438.00000</ele>
        <time>2010-01-01T01:16:12Z</time>
      </trkpt>
      <trkpt lat="42.78935400" lon="-1.74873000">
        <ele>437.00000</ele>
        <time>2010-01-01T01:16:16Z</time>
      </trkpt>
      <trkpt lat="42.78925800" lon="-1.74865000">
        <ele>437.00000</ele>
        <time>2010-01-01T01:16:21Z</time>
      </trkpt>
      <trkpt lat="42.78916000" lon="-1.74856800">
        <ele>436.00000</ele>
        <time>2010-01-01T01:16:25Z</time>
      </trkpt>
      <trkpt lat="42.78906300" lon="-1.74848500">
        <ele>436.00000</ele>
        <time>2010-01-01T01:16:30Z</time>
      </trkpt>
      <trkpt lat="42.78896800" lon="-1.74840500">
        <ele>436.00000</ele>
        <time>2010-01-01T01:16:34Z</time>
      </trkpt>
      <trkpt lat="42.78886800" lon="-1.74832800">
        <ele>436.00000</ele>
        <time>2010-01-01T01:16:39Z</time>
      </trkpt>
      <trkpt lat="42.78876400" lon="-1.74824300">
        <ele>436.00000</ele>
        <time>2010-01-01T01:16:44Z</time>
      </trkpt>
      <trkpt lat="42.78865200" lon="-1.74814700">
        <ele>435.00000</ele>
        <time>2010-01-01T01:16:49Z</time>
      </trkpt>
      <trkpt lat="42.78857300" lon="-1.74808100">
        <ele>435.00000</ele>
        <time>2010-01-01T01:16:53Z</time>
      </trkpt>
      <trkpt lat="42.78849500" lon="-1.74800500">
        <ele>435.00000</ele>
        <time>2010-01-01T01:16:57Z</time>
      </trkpt>
      <trkpt lat="42.78841200" lon="-1.74793300">
        <ele>434.00000</ele>
        <time>2010-01-01T01:17:00Z</time>
      </trkpt>
      <trkpt lat="42.78832700" lon="-1.74786000">
        <ele>433.00000</ele>
        <time>2010-01-01T01:17:04Z</time>
      </trkpt>
      <trkpt lat="42.78824400" lon="-1.74778500">
        <ele>433.00000</ele>
        <time>2010-01-01T01:17:08Z</time>
      </trkpt>
      <trkpt lat="42.78815800" lon="-1.74771000">
        <ele>433.00000</ele>
        <time>2010-01-01T01:17:13Z</time>
      </trkpt>
      <trkpt lat="42.78807200" lon="-1.74763600">
        <ele>433.00000</ele>
        <time>2010-01-01T01:17:17Z</time>
      </trkpt>
      <trkpt lat="42.78798700" lon="-1.74756500">
        <ele>433.00000</ele>
        <time>2010-01-01T01:17:21Z</time>
      </trkpt>
      <trkpt lat="42.78790500" lon="-1.74749700">
        <ele>432.00000</ele>
        <time>2010-01-01T01:17:24Z</time>
      </trkpt>
      <trkpt lat="42.78782300" lon="-1.74743000">
        <ele>432.00000</ele>
        <time>2010-01-01T01:17:28Z</time>
      </trkpt>
      <trkpt lat="42.78774300" lon="-1.74736700">
        <ele>432.00000</ele>
        <time>2010-01-01T01:17:32Z</time>
      </trkpt>
      <trkpt lat="42.78763300" lon="-1.74726700">
        <ele>432.00000</ele>
        <time>2010-01-01T01:17:37Z</time>
      </trkpt>
      <trkpt lat="42.78752700" lon="-1.74717700">
        <ele>432.00000</ele>
        <time>2010-01-01T01:17:42Z</time>
      </trkpt>
      <trkpt lat="42.78731000" lon="-1.74699000">
        <ele>431.00000</ele>
        <time>2010-01-01T01:17:53Z</time>
      </trkpt>
      <trkpt lat="42.78722700" lon="-1.74691800">
        <ele>431.00000</ele>
        <time>2010-01-01T01:17:57Z</time>
      </trkpt>
      <trkpt lat="42.78713900" lon="-1.74684000">
        <ele>430.00000</ele>
        <time>2010-01-01T01:18:01Z</time>
      </trkpt>
      <trkpt lat="42.78705000" lon="-1.74676000">
        <ele>429.00000</ele>
        <time>2010-01-01T01:18:05Z</time>
      </trkpt>
      <trkpt lat="42.78695900" lon="-1.74667700">
        <ele>428.00000</ele>
        <time>2010-01-01T01:18:09Z</time>
      </trkpt>
      <trkpt lat="42.78686000" lon="-1.74659200">
        <ele>428.00000</ele>
        <time>2010-01-01T01:18:14Z</time>
      </trkpt>
      <trkpt lat="42.78675700" lon="-1.74650300">
        <ele>428.00000</ele>
        <time>2010-01-01T01:18:19Z</time>
      </trkpt>
      <trkpt lat="42.78665500" lon="-1.74642000">
        <ele>428.00000</ele>
        <time>2010-01-01T01:18:24Z</time>
      </trkpt>
      <trkpt lat="42.78655400" lon="-1.74635700">
        <ele>428.00000</ele>
        <time>2010-01-01T01:18:28Z</time>
      </trkpt>
      <trkpt lat="42.78644700" lon="-1.74633600">
        <ele>427.00000</ele>
        <time>2010-01-01T01:18:32Z</time>
      </trkpt>
      <trkpt lat="42.78635000" lon="-1.74628500">
        <ele>426.00000</ele>
        <time>2010-01-01T01:18:37Z</time>
      </trkpt>
      <trkpt lat="42.78625700" lon="-1.74618500">
        <ele>426.00000</ele>
        <time>2010-01-01T01:18:41Z</time>
      </trkpt>
      <trkpt lat="42.78616700" lon="-1.74609500">
        <ele>426.00000</ele>
        <time>2010-01-01T01:18:46Z</time>
      </trkpt>
      <trkpt lat="42.78608400" lon="-1.74601700">
        <ele>426.00000</ele>
        <time>2010-01-01T01:18:50Z</time>
      </trkpt>
      <trkpt lat="42.78600400" lon="-1.74594600">
        <ele>427.00000</ele>
        <time>2010-01-01T01:18:54Z</time>
      </trkpt>
      <trkpt lat="42.78591300" lon="-1.74588600">
        <ele>427.00000</ele>
        <time>2010-01-01T01:18:58Z</time>
      </trkpt>
      <trkpt lat="42.78582000" lon="-1.74581800">
        <ele>428.00000</ele>
        <time>2010-01-01T01:19:02Z</time>
      </trkpt>
      <trkpt lat="42.78572900" lon="-1.74573600">
        <ele>430.00000</ele>
        <time>2010-01-01T01:19:06Z</time>
      </trkpt>
      <trkpt lat="42.78563200" lon="-1.74566800">
        <ele>432.00000</ele>
        <time>2010-01-01T01:19:11Z</time>
      </trkpt>
      <trkpt lat="42.78554700" lon="-1.74558300">
        <ele>434.00000</ele>
        <time>2010-01-01T01:19:15Z</time>
      </trkpt>
      <trkpt lat="42.78546000" lon="-1.74550500">
        <ele>434.00000</ele>
        <time>2010-01-01T01:19:19Z</time>
      </trkpt>
      <trkpt lat="42.78526700" lon="-1.74541000">
        <ele>435.00000</ele>
        <time>2010-01-01T01:19:27Z</time>
      </trkpt>
      <trkpt lat="42.78518200" lon="-1.74537000">
        <ele>436.00000</ele>
        <time>2010-01-01T01:19:31Z</time>
      </trkpt>
      <trkpt lat="42.78510200" lon="-1.74526600">
        <ele>438.00000</ele>
        <time>2010-01-01T01:19:35Z</time>
      </trkpt>
      <trkpt lat="42.78513300" lon="-1.74512300">
        <ele>439.00000</ele>
        <time>2010-01-01T01:19:40Z</time>
      </trkpt>
      <trkpt lat="42.78519900" lon="-1.74502700">
        <ele>439.00000</ele>
        <time>2010-01-01T01:19:44Z</time>
      </trkpt>
      <trkpt lat="42.78525500" lon="-1.74492300">
        <ele>440.00000</ele>
        <time>2010-01-01T01:19:47Z</time>
      </trkpt>
      <trkpt lat="42.78530900" lon="-1.74482000">
        <ele>439.00000</ele>
        <time>2010-01-01T01:19:51Z</time>
      </trkpt>
      <trkpt lat="42.78536200" lon="-1.74470200">
        <ele>439.00000</ele>
        <time>2010-01-01T01:19:55Z</time>
      </trkpt>
      <trkpt lat="42.78541400" lon="-1.74456800">
        <ele>438.00000</ele>
        <time>2010-01-01T01:20:00Z</time>
      </trkpt>
      <trkpt lat="42.78545500" lon="-1.74445000">
        <ele>438.00000</ele>
        <time>2010-01-01T01:20:03Z</time>
      </trkpt>
      <trkpt lat="42.78550000" lon="-1.74431800">
        <ele>438.00000</ele>
        <time>2010-01-01T01:20:08Z</time>
      </trkpt>
      <trkpt lat="42.78554200" lon="-1.74417600">
        <ele>438.00000</ele>
        <time>2010-01-01T01:20:12Z</time>
      </trkpt>
      <trkpt lat="42.78558500" lon="-1.74402700">
        <ele>438.00000</ele>
        <time>2010-01-01T01:20:17Z</time>
      </trkpt>
      <trkpt lat="42.78563400" lon="-1.74386500">
        <ele>438.00000</ele>
        <time>2010-01-01T01:20:22Z</time>
      </trkpt>
      <trkpt lat="42.78566700" lon="-1.74375000">
        <ele>437.00000</ele>
        <time>2010-01-01T01:20:26Z</time>
      </trkpt>
      <trkpt lat="42.78569700" lon="-1.74363000">
        <ele>437.00000</ele>
        <time>2010-01-01T01:20:29Z</time>
      </trkpt>
      <trkpt lat="42.78577200" lon="-1.74340000">
        <ele>437.00000</ele>
        <time>2010-01-01T01:20:37Z</time>
      </trkpt>
      <trkpt lat="42.78582500" lon="-1.74323500">
        <ele>437.00000</ele>
        <time>2010-01-01T01:20:42Z</time>
      </trkpt>
      <trkpt lat="42.78587500" lon="-1.74307000">
        <ele>436.00000</ele>
        <time>2010-01-01T01:20:47Z</time>
      </trkpt>
      <trkpt lat="42.78591200" lon="-1.74294600">
        <ele>436.00000</ele>
        <time>2010-01-01T01:20:51Z</time>
      </trkpt>
      <trkpt lat="42.78595200" lon="-1.74283100">
        <ele>436.00000</ele>
        <time>2010-01-01T01:20:55Z</time>
      </trkpt>
      <trkpt lat="42.78599900" lon="-1.74266700">
        <ele>437.00000</ele>
        <time>2010-01-01T01:21:00Z</time>
      </trkpt>
      <trkpt lat="42.78604500" lon="-1.74251800">
        <ele>437.00000</ele>
        <time>2010-01-01T01:21:05Z</time>
      </trkpt>
      <trkpt lat="42.78609000" lon="-1.74236800">
        <ele>437.00000</ele>
        <time>2010-01-01T01:21:10Z</time>
      </trkpt>
      <trkpt lat="42.78613800" lon="-1.74221700">
        <ele>436.00000</ele>
        <time>2010-01-01T01:21:15Z</time>
      </trkpt>
      <trkpt lat="42.78618200" lon="-1.74205100">
        <ele>436.00000</ele>
        <time>2010-01-01T01:21:20Z</time>
      </trkpt>
      <trkpt lat="42.78620400" lon="-1.74187500">
        <ele>436.00000</ele>
        <time>2010-01-01T01:21:25Z</time>
      </trkpt>
      <trkpt lat="42.78614800" lon="-1.74172300">
        <ele>436.00000</ele>
        <time>2010-01-01T01:21:30Z</time>
      </trkpt>
      <trkpt lat="42.78604200" lon="-1.74171100">
        <ele>437.00000</ele>
        <time>2010-01-01T01:21:34Z</time>
      </trkpt>
      <trkpt lat="42.78594200" lon="-1.74172500">
        <ele>437.00000</ele>
        <time>2010-01-01T01:21:38Z</time>
      </trkpt>
      <trkpt lat="42.78584400" lon="-1.74174500">
        <ele>437.00000</ele>
        <time>2010-01-01T01:21:42Z</time>
      </trkpt>
      <trkpt lat="42.78575000" lon="-1.74176200">
        <ele>438.00000</ele>
        <time>2010-01-01T01:21:46Z</time>
      </trkpt>
      <trkpt lat="42.78565200" lon="-1.74178300">
        <ele>438.00000</ele>
        <time>2010-01-01T01:21:50Z</time>
      </trkpt>
      <trkpt lat="42.78555000" lon="-1.74180700">
        <ele>438.00000</ele>
        <time>2010-01-01T01:21:54Z</time>
      </trkpt>
      <trkpt lat="42.78545000" lon="-1.74183000">
        <ele>438.00000</ele>
        <time>2010-01-01T01:21:58Z</time>
      </trkpt>
      <trkpt lat="42.78534800" lon="-1.74185000">
        <ele>438.00000</ele>
        <time>2010-01-01T01:22:02Z</time>
      </trkpt>
      <trkpt lat="42.78524700" lon="-1.74186500">
        <ele>438.00000</ele>
        <time>2010-01-01T01:22:06Z</time>
      </trkpt>
      <trkpt lat="42.78504300" lon="-1.74190800">
        <ele>439.00000</ele>
        <time>2010-01-01T01:22:15Z</time>
      </trkpt>
      <trkpt lat="42.78494500" lon="-1.74193000">
        <ele>440.00000</ele>
        <time>2010-01-01T01:22:19Z</time>
      </trkpt>
      <trkpt lat="42.78484900" lon="-1.74195000">
        <ele>441.00000</ele>
        <time>2010-01-01T01:22:22Z</time>
      </trkpt>
      <trkpt lat="42.78475000" lon="-1.74196600">
        <ele>442.00000</ele>
        <time>2010-01-01T01:22:26Z</time>
      </trkpt>
      <trkpt lat="42.78465500" lon="-1.74199000">
        <ele>443.00000</ele>
        <time>2010-01-01T01:22:30Z</time>
      </trkpt>
      <trkpt lat="42.78456200" lon="-1.74201000">
        <ele>443.00000</ele>
        <time>2010-01-01T01:22:34Z</time>
      </trkpt>
      <trkpt lat="42.78446700" lon="-1.74202000">
        <ele>443.00000</ele>
        <time>2010-01-01T01:22:38Z</time>
      </trkpt>
      <trkpt lat="42.78437700" lon="-1.74204600">
        <ele>443.00000</ele>
        <time>2010-01-01T01:22:42Z</time>
      </trkpt>
      <trkpt lat="42.78428700" lon="-1.74206500">
        <ele>444.00000</ele>
        <time>2010-01-01T01:22:45Z</time>
      </trkpt>
      <trkpt lat="42.78417700" lon="-1.74208600">
        <ele>444.00000</ele>
        <time>2010-01-01T01:22:50Z</time>
      </trkpt>
      <trkpt lat="42.78406700" lon="-1.74211200">
        <ele>444.00000</ele>
        <time>2010-01-01T01:22:54Z</time>
      </trkpt>
      <trkpt lat="42.78395500" lon="-1.74213500">
        <ele>444.00000</ele>
        <time>2010-01-01T01:22:59Z</time>
      </trkpt>
      <trkpt lat="42.78384400" lon="-1.74216100">
        <ele>445.00000</ele>
        <time>2010-01-01T01:23:03Z</time>
      </trkpt>
      <trkpt lat="42.78373400" lon="-1.74218000">
        <ele>445.00000</ele>
        <time>2010-01-01T01:23:08Z</time>
      </trkpt>
      <trkpt lat="42.78362700" lon="-1.74220300">
        <ele>446.00000</ele>
        <time>2010-01-01T01:23:12Z</time>
      </trkpt>
      <trkpt lat="42.78352500" lon="-1.74222200">
        <ele>447.00000</ele>
        <time>2010-01-01T01:23:16Z</time>
      </trkpt>
      <trkpt lat="42.78342900" lon="-1.74224300">
        <ele>448.00000</ele>
        <time>2010-01-01T01:23:20Z</time>
      </trkpt>
      <trkpt lat="42.78323800" lon="-1.74226800">
        <ele>450.00000</ele>
        <time>2010-01-01T01:23:28Z</time>
      </trkpt>
      <trkpt lat="42.78314800" lon="-1.74228500">
        <ele>451.00000</ele>
        <time>2010-01-01T01:23:31Z</time>
      </trkpt>
      <trkpt lat="42.78305700" lon="-1.74227600">
        <ele>451.00000</ele>
        <time>2010-01-01T01:23:35Z</time>
      </trkpt>
      <trkpt lat="42.78295700" lon="-1.74225000">
        <ele>452.00000</ele>
        <time>2010-01-01T01:23:39Z</time>
      </trkpt>
      <trkpt lat="42.78284700" lon="-1.74221700">
        <ele>453.00000</ele>
        <time>2010-01-01T01:23:44Z</time>
      </trkpt>
      <trkpt lat="42.78275700" lon="-1.74218000">
        <ele>454.00000</ele>
        <time>2010-01-01T01:23:47Z</time>
      </trkpt>
      <trkpt lat="42.78266500" lon="-1.74214200">
        <ele>454.00000</ele>
        <time>2010-01-01T01:23:51Z</time>
      </trkpt>
      <trkpt lat="42.78257000" lon="-1.74210300">
        <ele>454.00000</ele>
        <time>2010-01-01T01:23:55Z</time>
      </trkpt>
      <trkpt lat="42.78247500" lon="-1.74206500">
        <ele>454.00000</ele>
        <time>2010-01-01T01:23:59Z</time>
      </trkpt>
      <trkpt lat="42.78237800" lon="-1.74202800">
        <ele>454.00000</ele>
        <time>2010-01-01T01:24:03Z</time>
      </trkpt>
      <trkpt lat="42.78228400" lon="-1.74198300">
        <ele>454.00000</ele>
        <time>2010-01-01T01:24:07Z</time>
      </trkpt>
      <trkpt lat="42.78218500" lon="-1.74194000">
        <ele>454.00000</ele>
        <time>2010-01-01T01:24:11Z</time>
      </trkpt>
      <trkpt lat="42.78209200" lon="-1.74190200">
        <ele>454.00000</ele>
        <time>2010-01-01T01:24:15Z</time>
      </trkpt>
      <trkpt lat="42.78199800" lon="-1.74185500">
        <ele>454.00000</ele>
        <time>2010-01-01T01:24:19Z</time>
      </trkpt>
      <trkpt lat="42.78190200" lon="-1.74180700">
        <ele>454.00000</ele>
        <time>2010-01-01T01:24:23Z</time>
      </trkpt>
      <trkpt lat="42.78180300" lon="-1.74176200">
        <ele>454.00000</ele>
        <time>2010-01-01T01:24:27Z</time>
      </trkpt>
      <trkpt lat="42.78170700" lon="-1.74171300">
        <ele>455.00000</ele>
        <time>2010-01-01T01:24:32Z</time>
      </trkpt>
      <trkpt lat="42.78161000" lon="-1.74166300">
        <ele>455.00000</ele>
        <time>2010-01-01T01:24:36Z</time>
      </trkpt>
      <trkpt lat="42.78141500" lon="-1.74155800">
        <ele>455.00000</ele>
        <time>2010-01-01T01:24:44Z</time>
      </trkpt>
      <trkpt lat="42.78132000" lon="-1.74148800">
        <ele>455.00000</ele>
        <time>2010-01-01T01:24:48Z</time>
      </trkpt>
      <trkpt lat="42.78123000" lon="-1.74140800">
        <ele>455.00000</ele>
        <time>2010-01-01T01:24:53Z</time>
      </trkpt>
      <trkpt lat="42.78114500" lon="-1.74131700">
        <ele>455.00000</ele>
        <time>2010-01-01T01:24:57Z</time>
      </trkpt>
      <trkpt lat="42.78107200" lon="-1.74121800">
        <ele>456.00000</ele>
        <time>2010-01-01T01:25:01Z</time>
      </trkpt>
      <trkpt lat="42.78100300" lon="-1.74111200">
        <ele>457.00000</ele>
        <time>2010-01-01T01:25:05Z</time>
      </trkpt>
      <trkpt lat="42.78093900" lon="-1.74100000">
        <ele>457.00000</ele>
        <time>2010-01-01T01:25:10Z</time>
      </trkpt>
      <trkpt lat="42.78087800" lon="-1.74087800">
        <ele>458.00000</ele>
        <time>2010-01-01T01:25:14Z</time>
      </trkpt>
      <trkpt lat="42.78081800" lon="-1.74075300">
        <ele>458.00000</ele>
        <time>2010-01-01T01:25:18Z</time>
      </trkpt>
      <trkpt lat="42.78076200" lon="-1.74063500">
        <ele>459.00000</ele>
        <time>2010-01-01T01:25:22Z</time>
      </trkpt>
      <trkpt lat="42.78070500" lon="-1.74052300">
        <ele>460.00000</ele>
        <time>2010-01-01T01:25:26Z</time>
      </trkpt>
      <trkpt lat="42.78065300" lon="-1.74041300">
        <ele>461.00000</ele>
        <time>2010-01-01T01:25:30Z</time>
      </trkpt>
      <trkpt lat="42.78060400" lon="-1.74030300">
        <ele>461.00000</ele>
        <time>2010-01-01T01:25:34Z</time>
      </trkpt>
      <trkpt lat="42.78054800" lon="-1.74018300">
        <ele>461.00000</ele>
        <time>2010-01-01T01:25:38Z</time>
      </trkpt>
      <trkpt lat="42.78049000" lon="-1.74006500">
        <ele>460.00000</ele>
        <time>2010-01-01T01:25:42Z</time>
      </trkpt>
      <trkpt lat="42.78043200" lon="-1.73994300">
        <ele>459.00000</ele>
        <time>2010-01-01T01:25:47Z</time>
      </trkpt>
      <trkpt lat="42.78036700" lon="-1.73982800">
        <ele>459.00000</ele>
        <time>2010-01-01T01:25:51Z</time>
      </trkpt>
      <trkpt lat="42.78029400" lon="-1.73972000">
        <ele>459.00000</ele>
        <time>2010-01-01T01:25:55Z</time>
      </trkpt>
      <trkpt lat="42.78021700" lon="-1.73962100">
        <ele>460.00000</ele>
        <time>2010-01-01T01:25:59Z</time>
      </trkpt>
      <trkpt lat="42.78013500" lon="-1.73953700">
        <ele>462.00000</ele>
        <time>2010-01-01T01:26:04Z</time>
      </trkpt>
      <trkpt lat="42.77995500" lon="-1.73940300">
        <ele>464.00000</ele>
        <time>2010-01-01T01:26:12Z</time>
      </trkpt>
      <trkpt lat="42.77986200" lon="-1.73935300">
        <ele>465.00000</ele>
        <time>2010-01-01T01:26:16Z</time>
      </trkpt>
      <trkpt lat="42.77976500" lon="-1.73930700">
        <ele>465.00000</ele>
        <time>2010-01-01T01:26:20Z</time>
      </trkpt>
      <trkpt lat="42.77967000" lon="-1.73925600">
        <ele>466.00000</ele>
        <time>2010-01-01T01:26:24Z</time>
      </trkpt>
      <trkpt lat="42.77957800" lon="-1.73921000">
        <ele>467.00000</ele>
        <time>2010-01-01T01:26:28Z</time>
      </trkpt>
      <trkpt lat="42.77948400" lon="-1.73916000">
        <ele>468.00000</ele>
        <time>2010-01-01T01:26:32Z</time>
      </trkpt>
      <trkpt lat="42.77940000" lon="-1.73911300">
        <ele>468.00000</ele>
        <time>2010-01-01T01:26:36Z</time>
      </trkpt>
      <trkpt lat="42.77929700" lon="-1.73905800">
        <ele>469.00000</ele>
        <time>2010-01-01T01:26:40Z</time>
      </trkpt>
      <trkpt lat="42.77919200" lon="-1.73901300">
        <ele>470.00000</ele>
        <time>2010-01-01T01:26:44Z</time>
      </trkpt>
      <trkpt lat="42.77909000" lon="-1.73896200">
        <ele>471.00000</ele>
        <time>2010-01-01T01:26:49Z</time>
      </trkpt>
      <trkpt lat="42.77900800" lon="-1.73889000">
        <ele>471.00000</ele>
        <time>2010-01-01T01:26:53Z</time>
      </trkpt>
      <trkpt lat="42.77891700" lon="-1.73884300">
        <ele>471.00000</ele>
        <time>2010-01-01T01:26:57Z</time>
      </trkpt>
      <trkpt lat="42.77882200" lon="-1.73884000">
        <ele>471.00000</ele>
        <time>2010-01-01T01:27:00Z</time>
      </trkpt>
      <trkpt lat="42.77863200" lon="-1.73875700">
        <ele>471.00000</ele>
        <time>2010-01-01T01:27:08Z</time>
      </trkpt>
      <trkpt lat="42.77853200" lon="-1.73872300">
        <ele>472.00000</ele>
        <time>2010-01-01T01:27:12Z</time>
      </trkpt>
      <trkpt lat="42.77843300" lon="-1.73869500">
        <ele>473.00000</ele>
        <time>2010-01-01T01:27:16Z</time>
      </trkpt>
      <trkpt lat="42.77833200" lon="-1.73868500">
        <ele>473.00000</ele>
        <time>2010-01-01T01:27:21Z</time>
      </trkpt>
      <trkpt lat="42.77822500" lon="-1.73868500">
        <ele>474.00000</ele>
        <time>2010-01-01T01:27:25Z</time>
      </trkpt>
      <trkpt lat="42.77812200" lon="-1.73869000">
        <ele>474.00000</ele>
        <time>2010-01-01T01:27:29Z</time>
      </trkpt>
      <trkpt lat="42.77801200" lon="-1.73870000">
        <ele>475.00000</ele>
        <time>2010-01-01T01:27:33Z</time>
      </trkpt>
      <trkpt lat="42.77789800" lon="-1.73871000">
        <ele>475.00000</ele>
        <time>2010-01-01T01:27:38Z</time>
      </trkpt>
      <trkpt lat="42.77778700" lon="-1.73873000">
        <ele>475.00000</ele>
        <time>2010-01-01T01:27:42Z</time>
      </trkpt>
      <trkpt lat="42.77768000" lon="-1.73875500">
        <ele>474.00000</ele>
        <time>2010-01-01T01:27:47Z</time>
      </trkpt>
      <trkpt lat="42.77757300" lon="-1.73877700">
        <ele>474.00000</ele>
        <time>2010-01-01T01:27:51Z</time>
      </trkpt>
      <trkpt lat="42.77748000" lon="-1.73879500">
        <ele>473.00000</ele>
        <time>2010-01-01T01:27:55Z</time>
      </trkpt>
      <trkpt lat="42.77737000" lon="-1.73881100">
        <ele>472.00000</ele>
        <time>2010-01-01T01:27:59Z</time>
      </trkpt>
      <trkpt lat="42.77723500" lon="-1.73884000">
        <ele>471.00000</ele>
        <time>2010-01-01T01:28:05Z</time>
      </trkpt>
      <trkpt lat="42.77712500" lon="-1.73886500">
        <ele>471.00000</ele>
        <time>2010-01-01T01:28:09Z</time>
      </trkpt>
      <trkpt lat="42.77700000" lon="-1.73889700">
        <ele>470.00000</ele>
        <time>2010-01-01T01:28:14Z</time>
      </trkpt>
      <trkpt lat="42.77686300" lon="-1.73893600">
        <ele>469.00000</ele>
        <time>2010-01-01T01:28:20Z</time>
      </trkpt>
      <trkpt lat="42.77658700" lon="-1.73905300">
        <ele>467.00000</ele>
        <time>2010-01-01T01:28:31Z</time>
      </trkpt>
      <trkpt lat="42.77645300" lon="-1.73912300">
        <ele>467.00000</ele>
        <time>2010-01-01T01:28:37Z</time>
      </trkpt>
      <trkpt lat="42.77632700" lon="-1.73919200">
        <ele>466.00000</ele>
        <time>2010-01-01T01:28:43Z</time>
      </trkpt>
      <trkpt lat="42.77620700" lon="-1.73925600">
        <ele>466.00000</ele>
        <time>2010-01-01T01:28:48Z</time>
      </trkpt>
      <trkpt lat="42.77609300" lon="-1.73931700">
        <ele>466.00000</ele>
        <time>2010-01-01T01:28:53Z</time>
      </trkpt>
      <trkpt lat="42.77598200" lon="-1.73937600">
        <ele>466.00000</ele>
        <time>2010-01-01T01:28:58Z</time>
      </trkpt>
      <trkpt lat="42.77587200" lon="-1.73943500">
        <ele>466.00000</ele>
        <time>2010-01-01T01:29:02Z</time>
      </trkpt>
      <trkpt lat="42.77576800" lon="-1.73949000">
        <ele>466.00000</ele>
        <time>2010-01-01T01:29:07Z</time>
      </trkpt>
      <trkpt lat="42.77567200" lon="-1.73954200">
        <ele>466.00000</ele>
        <time>2010-01-01T01:29:11Z</time>
      </trkpt>
      <trkpt lat="42.77558400" lon="-1.73958800">
        <ele>467.00000</ele>
        <time>2010-01-01T01:29:15Z</time>
      </trkpt>
      <trkpt lat="42.77549900" lon="-1.73963600">
        <ele>467.00000</ele>
        <time>2010-01-01T01:29:18Z</time>
      </trkpt>
      <trkpt lat="42.77541500" lon="-1.73968300">
        <ele>467.00000</ele>
        <time>2010-01-01T01:29:22Z</time>
      </trkpt>
      <trkpt lat="42.77529700" lon="-1.73974500">
        <ele>468.00000</ele>
        <time>2010-01-01T01:29:27Z</time>
      </trkpt>
      <trkpt lat="42.77519000" lon="-1.73980000">
        <ele>468.00000</ele>
        <time>2010-01-01T01:29:32Z</time>
      </trkpt>
      <trkpt lat="42.77509300" lon="-1.73984600">
        <ele>469.00000</ele>
        <time>2010-01-01T01:29:36Z</time>
      </trkpt>
      <trkpt lat="42.77499200" lon="-1.73989700">
        <ele>469.00000</ele>
        <time>2010-01-01T01:29:40Z</time>
      </trkpt>
      <trkpt lat="42.77488500" lon="-1.73994000">
        <ele>470.00000</ele>
        <time>2010-01-01T01:29:44Z</time>
      </trkpt>
      <trkpt lat="42.77476800" lon="-1.73998500">
        <ele>470.00000</ele>
        <time>2010-01-01T01:29:49Z</time>
      </trkpt>
      <trkpt lat="42.77465000" lon="-1.74002500">
        <ele>470.00000</ele>
        <time>2010-01-01T01:29:54Z</time>
      </trkpt>
      <trkpt lat="42.77453300" lon="-1.74007100">
        <ele>470.00000</ele>
        <time>2010-01-01T01:29:59Z</time>
      </trkpt>
      <trkpt lat="42.77441300" lon="-1.74012000">
        <ele>470.00000</ele>
        <time>2010-01-01T01:30:04Z</time>
      </trkpt>
      <trkpt lat="42.77429500" lon="-1.74016100">
        <ele>469.00000</ele>
        <time>2010-01-01T01:30:09Z</time>
      </trkpt>
      <trkpt lat="42.77417700" lon="-1.74020300">
        <ele>469.00000</ele>
        <time>2010-01-01T01:30:14Z</time>
      </trkpt>
      <trkpt lat="42.77406000" lon="-1.74024700">
        <ele>469.00000</ele>
        <time>2010-01-01T01:30:19Z</time>
      </trkpt>
      <trkpt lat="42.77382700" lon="-1.74033000">
        <ele>469.00000</ele>
        <time>2010-01-01T01:30:28Z</time>
      </trkpt>
      <trkpt lat="42.77371000" lon="-1.74037300">
        <ele>469.00000</ele>
        <time>2010-01-01T01:30:33Z</time>
      </trkpt>
      <trkpt lat="42.77359400" lon="-1.74041100">
        <ele>470.00000</ele>
        <time>2010-01-01T01:30:38Z</time>
      </trkpt>
      <trkpt lat="42.77347700" lon="-1.74045200">
        <ele>471.00000</ele>
        <time>2010-01-01T01:30:43Z</time>
      </trkpt>
      <trkpt lat="42.77336000" lon="-1.74049300">
        <ele>473.00000</ele>
        <time>2010-01-01T01:30:48Z</time>
      </trkpt>
      <trkpt lat="42.77323400" lon="-1.74053500">
        <ele>474.00000</ele>
        <time>2010-01-01T01:30:53Z</time>
      </trkpt>
      <trkpt lat="42.77311000" lon="-1.74058000">
        <ele>474.00000</ele>
        <time>2010-01-01T01:30:58Z</time>
      </trkpt>
      <trkpt lat="42.77298300" lon="-1.74062500">
        <ele>474.00000</ele>
        <time>2010-01-01T01:31:03Z</time>
      </trkpt>
      <trkpt lat="42.77285500" lon="-1.74066800">
        <ele>474.00000</ele>
        <time>2010-01-01T01:31:08Z</time>
      </trkpt>
      <trkpt lat="42.77272700" lon="-1.74071500">
        <ele>473.00000</ele>
        <time>2010-01-01T01:31:14Z</time>
      </trkpt>
      <trkpt lat="42.77259900" lon="-1.74075800">
        <ele>473.00000</ele>
        <time>2010-01-01T01:31:19Z</time>
      </trkpt>
      <trkpt lat="42.77247200" lon="-1.74080200">
        <ele>472.00000</ele>
        <time>2010-01-01T01:31:24Z</time>
      </trkpt>
      <trkpt lat="42.77234700" lon="-1.74084100">
        <ele>472.00000</ele>
        <time>2010-01-01T01:31:29Z</time>
      </trkpt>
      <trkpt lat="42.77222500" lon="-1.74089000">
        <ele>472.00000</ele>
        <time>2010-01-01T01:31:35Z</time>
      </trkpt>
      <trkpt lat="42.77210300" lon="-1.74092600">
        <ele>472.00000</ele>
        <time>2010-01-01T01:31:40Z</time>
      </trkpt>
      <trkpt lat="42.77198700" lon="-1.74097000">
        <ele>472.00000</ele>
        <time>2010-01-01T01:31:44Z</time>
      </trkpt>
      <trkpt lat="42.77186800" lon="-1.74101200">
        <ele>472.00000</ele>
        <time>2010-01-01T01:31:49Z</time>
      </trkpt>
      <trkpt lat="42.77175500" lon="-1.74105300">
        <ele>472.00000</ele>
        <time>2010-01-01T01:31:54Z</time>
      </trkpt>
      <trkpt lat="42.77164700" lon="-1.74109000">
        <ele>473.00000</ele>
        <time>2010-01-01T01:31:58Z</time>
      </trkpt>
      <trkpt lat="42.77154200" lon="-1.74112500">
        <ele>473.00000</ele>
        <time>2010-01-01T01:32:03Z</time>
      </trkpt>
      <trkpt lat="42.77133700" lon="-1.74119800">
        <ele>474.00000</ele>
        <time>2010-01-01T01:32:11Z</time>
      </trkpt>
      <trkpt lat="42.77123500" lon="-1.74123800">
        <ele>475.00000</ele>
        <time>2010-01-01T01:32:15Z</time>
      </trkpt>
      <trkpt lat="42.77113400" lon="-1.74127100">
        <ele>476.00000</ele>
        <time>2010-01-01T01:32:20Z</time>
      </trkpt>
      <trkpt lat="42.77103500" lon="-1.74130800">
        <ele>477.00000</ele>
        <time>2010-01-01T01:32:24Z</time>
      </trkpt>
      <trkpt lat="42.77093800" lon="-1.74134500">
        <ele>478.00000</ele>
        <time>2010-01-01T01:32:28Z</time>
      </trkpt>
      <trkpt lat="42.77084000" lon="-1.74137800">
        <ele>478.00000</ele>
        <time>2010-01-01T01:32:32Z</time>
      </trkpt>
      <trkpt lat="42.77074000" lon="-1.74141000">
        <ele>479.00000</ele>
        <time>2010-01-01T01:32:36Z</time>
      </trkpt>
      <trkpt lat="42.77064000" lon="-1.74144000">
        <ele>480.00000</ele>
        <time>2010-01-01T01:32:40Z</time>
      </trkpt>
      <trkpt lat="42.77053900" lon="-1.74145500">
        <ele>480.00000</ele>
        <time>2010-01-01T01:32:44Z</time>
      </trkpt>
      <trkpt lat="42.77043700" lon="-1.74146200">
        <ele>480.00000</ele>
        <time>2010-01-01T01:32:48Z</time>
      </trkpt>
      <trkpt lat="42.77033500" lon="-1.74145000">
        <ele>480.00000</ele>
        <time>2010-01-01T01:32:52Z</time>
      </trkpt>
      <trkpt lat="42.77023200" lon="-1.74143500">
        <ele>481.00000</ele>
        <time>2010-01-01T01:32:56Z</time>
      </trkpt>
      <trkpt lat="42.77012900" lon="-1.74141500">
        <ele>481.00000</ele>
        <time>2010-01-01T01:33:01Z</time>
      </trkpt>
      <trkpt lat="42.77002700" lon="-1.74139300">
        <ele>481.00000</ele>
        <time>2010-01-01T01:33:05Z</time>
      </trkpt>
      <trkpt lat="42.76992500" lon="-1.74137300">
        <ele>481.00000</ele>
        <time>2010-01-01T01:33:09Z</time>
      </trkpt>
      <trkpt lat="42.76982000" lon="-1.74135600">
        <ele>481.00000</ele>
        <time>2010-01-01T01:33:13Z</time>
      </trkpt>
      <trkpt lat="42.76971800" lon="-1.74133500">
        <ele>481.00000</ele>
        <time>2010-01-01T01:33:17Z</time>
      </trkpt>
      <trkpt lat="42.76961800" lon="-1.74131500">
        <ele>481.00000</ele>
        <time>2010-01-01T01:33:21Z</time>
      </trkpt>
      <trkpt lat="42.76952000" lon="-1.74130200">
        <ele>481.00000</ele>
        <time>2010-01-01T01:33:25Z</time>
      </trkpt>
      <trkpt lat="42.76941700" lon="-1.74128000">
        <ele>481.00000</ele>
        <time>2010-01-01T01:33:29Z</time>
      </trkpt>
      <trkpt lat="42.76921400" lon="-1.74124700">
        <ele>481.00000</ele>
        <time>2010-01-01T01:33:38Z</time>
      </trkpt>
      <trkpt lat="42.76910500" lon="-1.74122500">
        <ele>482.00000</ele>
        <time>2010-01-01T01:33:42Z</time>
      </trkpt>
      <trkpt lat="42.76898700" lon="-1.74119800">
        <ele>482.00000</ele>
        <time>2010-01-01T01:33:47Z</time>
      </trkpt>
      <trkpt lat="42.76885300" lon="-1.74117500">
        <ele>482.00000</ele>
        <time>2010-01-01T01:33:52Z</time>
      </trkpt>
      <trkpt lat="42.76876400" lon="-1.74115800">
        <ele>482.00000</ele>
        <time>2010-01-01T01:33:56Z</time>
      </trkpt>
      <trkpt lat="42.76863300" lon="-1.74113300">
        <ele>481.00000</ele>
        <time>2010-01-01T01:34:01Z</time>
      </trkpt>
      <trkpt lat="42.76850300" lon="-1.74110800">
        <ele>480.00000</ele>
        <time>2010-01-01T01:34:06Z</time>
      </trkpt>
      <trkpt lat="42.76837500" lon="-1.74108300">
        <ele>479.00000</ele>
        <time>2010-01-01T01:34:12Z</time>
      </trkpt>
      <trkpt lat="42.76824900" lon="-1.74105500">
        <ele>479.00000</ele>
        <time>2010-01-01T01:34:17Z</time>
      </trkpt>
      <trkpt lat="42.76812200" lon="-1.74102800">
        <ele>479.00000</ele>
        <time>2010-01-01T01:34:22Z</time>
      </trkpt>
      <trkpt lat="42.76799700" lon="-1.74100700">
        <ele>480.00000</ele>
        <time>2010-01-01T01:34:27Z</time>
      </trkpt>
      <trkpt lat="42.76788200" lon="-1.74098200">
        <ele>481.00000</ele>
        <time>2010-01-01T01:34:31Z</time>
      </trkpt>
      <trkpt lat="42.76777500" lon="-1.74096100">
        <ele>482.00000</ele>
        <time>2010-01-01T01:34:36Z</time>
      </trkpt>
      <trkpt lat="42.76766900" lon="-1.74094000">
        <ele>483.00000</ele>
        <time>2010-01-01T01:34:40Z</time>
      </trkpt>
      <trkpt lat="42.76756500" lon="-1.74092300">
        <ele>484.00000</ele>
        <time>2010-01-01T01:34:44Z</time>
      </trkpt>
      <trkpt lat="42.76746300" lon="-1.74090800">
        <ele>484.00000</ele>
        <time>2010-01-01T01:34:48Z</time>
      </trkpt>
      <trkpt lat="42.76736500" lon="-1.74089800">
        <ele>484.00000</ele>
        <time>2010-01-01T01:34:52Z</time>
      </trkpt>
      <trkpt lat="42.76727200" lon="-1.74089300">
        <ele>485.00000</ele>
        <time>2010-01-01T01:34:56Z</time>
      </trkpt>
      <trkpt lat="42.76715700" lon="-1.74089000">
        <ele>485.00000</ele>
        <time>2010-01-01T01:35:01Z</time>
      </trkpt>
      <trkpt lat="42.76704800" lon="-1.74088800">
        <ele>486.00000</ele>
        <time>2010-01-01T01:35:05Z</time>
      </trkpt>
      <trkpt lat="42.76682500" lon="-1.74089800">
        <ele>487.00000</ele>
        <time>2010-01-01T01:35:14Z</time>
      </trkpt>
      <trkpt lat="42.76672200" lon="-1.74089800">
        <ele>488.00000</ele>
        <time>2010-01-01T01:35:18Z</time>
      </trkpt>
      <trkpt lat="42.76662000" lon="-1.74091000">
        <ele>489.00000</ele>
        <time>2010-01-01T01:35:22Z</time>
      </trkpt>
      <trkpt lat="42.76652400" lon="-1.74092300">
        <ele>490.00000</ele>
        <time>2010-01-01T01:35:26Z</time>
      </trkpt>
      <trkpt lat="42.76641400" lon="-1.74092600">
        <ele>490.00000</ele>
        <time>2010-01-01T01:35:30Z</time>
      </trkpt>
      <trkpt lat="42.76630000" lon="-1.74094000">
        <ele>491.00000</ele>
        <time>2010-01-01T01:35:35Z</time>
      </trkpt>
      <trkpt lat="42.76620700" lon="-1.74095100">
        <ele>491.00000</ele>
        <time>2010-01-01T01:35:39Z</time>
      </trkpt>
      <trkpt lat="42.76609700" lon="-1.74097000">
        <ele>492.00000</ele>
        <time>2010-01-01T01:35:43Z</time>
      </trkpt>
      <trkpt lat="42.76599700" lon="-1.74101300">
        <ele>493.00000</ele>
        <time>2010-01-01T01:35:47Z</time>
      </trkpt>
      <trkpt lat="42.76589400" lon="-1.74106000">
        <ele>494.00000</ele>
        <time>2010-01-01T01:35:52Z</time>
      </trkpt>
      <trkpt lat="42.76579300" lon="-1.74111300">
        <ele>494.00000</ele>
        <time>2010-01-01T01:35:56Z</time>
      </trkpt>
      <trkpt lat="42.76569700" lon="-1.74117000">
        <ele>494.00000</ele>
        <time>2010-01-01T01:36:00Z</time>
      </trkpt>
      <trkpt lat="42.76561000" lon="-1.74123200">
        <ele>494.00000</ele>
        <time>2010-01-01T01:36:04Z</time>
      </trkpt>
      <trkpt lat="42.76566200" lon="-1.74146700">
        <ele>495.00000</ele>
        <time>2010-01-01T01:36:11Z</time>
      </trkpt>
      <trkpt lat="42.76573000" lon="-1.74138600">
        <ele>495.00000</ele>
        <time>2010-01-01T01:36:15Z</time>
      </trkpt>
      <trkpt lat="42.76582300" lon="-1.74137600">
        <ele>496.00000</ele>
        <time>2010-01-01T01:36:19Z</time>
      </trkpt>
      <trkpt lat="42.76591200" lon="-1.74134200">
        <ele>496.00000</ele>
        <time>2010-01-01T01:36:22Z</time>
      </trkpt>
      <trkpt lat="42.76566400" lon="-1.74147700">
        <ele>495.00000</ele>
        <time>2010-01-01T01:36:33Z</time>
      </trkpt>
      <trkpt lat="42.76556200" lon="-1.74146300">
        <ele>494.00000</ele>
        <time>2010-01-01T01:36:37Z</time>
      </trkpt>
      <trkpt lat="42.76546300" lon="-1.74147500">
        <ele>493.00000</ele>
        <time>2010-01-01T01:36:41Z</time>
      </trkpt>
      <trkpt lat="42.76537300" lon="-1.74149600">
        <ele>493.00000</ele>
        <time>2010-01-01T01:36:45Z</time>
      </trkpt>
      <trkpt lat="42.76524500" lon="-1.74153000">
        <ele>493.00000</ele>
        <time>2010-01-01T01:36:50Z</time>
      </trkpt>
      <trkpt lat="42.76512200" lon="-1.74155800">
        <ele>493.00000</ele>
        <time>2010-01-01T01:36:55Z</time>
      </trkpt>
      <trkpt lat="42.76501700" lon="-1.74158000">
        <ele>493.00000</ele>
        <time>2010-01-01T01:36:59Z</time>
      </trkpt>
      <trkpt lat="42.76492700" lon="-1.74159300">
        <ele>493.00000</ele>
        <time>2010-01-01T01:37:03Z</time>
      </trkpt>
      <trkpt lat="42.76481700" lon="-1.74160300">
        <ele>494.00000</ele>
        <time>2010-01-01T01:37:07Z</time>
      </trkpt>
      <trkpt lat="42.76472200" lon="-1.74160800">
        <ele>494.00000</ele>
        <time>2010-01-01T01:37:11Z</time>
      </trkpt>
      <trkpt lat="42.76463000" lon="-1.74161800">
        <ele>495.00000</ele>
        <time>2010-01-01T01:37:15Z</time>
      </trkpt>
      <trkpt lat="42.76453900" lon="-1.74162100">
        <ele>496.00000</ele>
        <time>2010-01-01T01:37:19Z</time>
      </trkpt>
      <trkpt lat="42.76444500" lon="-1.74163000">
        <ele>497.00000</ele>
        <time>2010-01-01T01:37:22Z</time>
      </trkpt>
      <trkpt lat="42.76435200" lon="-1.74164000">
        <ele>498.00000</ele>
        <time>2010-01-01T01:37:26Z</time>
      </trkpt>
      <trkpt lat="42.76425700" lon="-1.74165100">
        <ele>498.00000</ele>
        <time>2010-01-01T01:37:30Z</time>
      </trkpt>
      <trkpt lat="42.76416000" lon="-1.74164800">
        <ele>498.00000</ele>
        <time>2010-01-01T01:37:34Z</time>
      </trkpt>
      <trkpt lat="42.76406000" lon="-1.74165100">
        <ele>499.00000</ele>
        <time>2010-01-01T01:37:38Z</time>
      </trkpt>
      <trkpt lat="42.76396200" lon="-1.74165500">
        <ele>499.00000</ele>
        <time>2010-01-01T01:37:42Z</time>
      </trkpt>
      <trkpt lat="42.76377000" lon="-1.74165500">
        <ele>500.00000</ele>
        <time>2010-01-01T01:37:49Z</time>
      </trkpt>
      <trkpt lat="42.76367200" lon="-1.74165300">
        <ele>501.00000</ele>
        <time>2010-01-01T01:37:53Z</time>
      </trkpt>
      <trkpt lat="42.76357200" lon="-1.74165300">
        <ele>502.00000</ele>
        <time>2010-01-01T01:37:57Z</time>
      </trkpt>
      <trkpt lat="42.76347300" lon="-1.74165100">
        <ele>502.00000</ele>
        <time>2010-01-01T01:38:01Z</time>
      </trkpt>
      <trkpt lat="42.76337300" lon="-1.74165100">
        <ele>503.00000</ele>
        <time>2010-01-01T01:38:05Z</time>
      </trkpt>
      <trkpt lat="42.76327500" lon="-1.74165700">
        <ele>504.00000</ele>
        <time>2010-01-01T01:38:09Z</time>
      </trkpt>
      <trkpt lat="42.76317500" lon="-1.74166000">
        <ele>505.00000</ele>
        <time>2010-01-01T01:38:13Z</time>
      </trkpt>
      <trkpt lat="42.76307700" lon="-1.74166200">
        <ele>505.00000</ele>
        <time>2010-01-01T01:38:17Z</time>
      </trkpt>
      <trkpt lat="42.76298000" lon="-1.74165700">
        <ele>505.00000</ele>
        <time>2010-01-01T01:38:21Z</time>
      </trkpt>
      <trkpt lat="42.76288000" lon="-1.74166000">
        <ele>505.00000</ele>
        <time>2010-01-01T01:38:25Z</time>
      </trkpt>
      <trkpt lat="42.76278300" lon="-1.74166200">
        <ele>505.00000</ele>
        <time>2010-01-01T01:38:29Z</time>
      </trkpt>
      <trkpt lat="42.76268200" lon="-1.74166300">
        <ele>506.00000</ele>
        <time>2010-01-01T01:38:33Z</time>
      </trkpt>
      <trkpt lat="42.76258000" lon="-1.74166200">
        <ele>506.00000</ele>
        <time>2010-01-01T01:38:37Z</time>
      </trkpt>
      <trkpt lat="42.76247800" lon="-1.74166500">
        <ele>507.00000</ele>
        <time>2010-01-01T01:38:41Z</time>
      </trkpt>
      <trkpt lat="42.76237700" lon="-1.74166200">
        <ele>507.00000</ele>
        <time>2010-01-01T01:38:45Z</time>
      </trkpt>
      <trkpt lat="42.76218000" lon="-1.74166700">
        <ele>508.00000</ele>
        <time>2010-01-01T01:38:53Z</time>
      </trkpt>
      <trkpt lat="42.76208200" lon="-1.74166800">
        <ele>508.00000</ele>
        <time>2010-01-01T01:38:57Z</time>
      </trkpt>
      <trkpt lat="42.76198200" lon="-1.74166800">
        <ele>508.00000</ele>
        <time>2010-01-01T01:39:01Z</time>
      </trkpt>
      <trkpt lat="42.76188000" lon="-1.74167000">
        <ele>508.00000</ele>
        <time>2010-01-01T01:39:05Z</time>
      </trkpt>
      <trkpt lat="42.76178000" lon="-1.74167500">
        <ele>508.00000</ele>
        <time>2010-01-01T01:39:09Z</time>
      </trkpt>
      <trkpt lat="42.76168000" lon="-1.74167700">
        <ele>508.00000</ele>
        <time>2010-01-01T01:39:13Z</time>
      </trkpt>
      <trkpt lat="42.76157800" lon="-1.74168200">
        <ele>509.00000</ele>
        <time>2010-01-01T01:39:17Z</time>
      </trkpt>
      <trkpt lat="42.76147700" lon="-1.74168300">
        <ele>509.00000</ele>
        <time>2010-01-01T01:39:21Z</time>
      </trkpt>
      <trkpt lat="42.76137700" lon="-1.74168700">
        <ele>509.00000</ele>
        <time>2010-01-01T01:39:25Z</time>
      </trkpt>
      <trkpt lat="42.76127700" lon="-1.74168700">
        <ele>510.00000</ele>
        <time>2010-01-01T01:39:29Z</time>
      </trkpt>
      <trkpt lat="42.76117900" lon="-1.74168300">
        <ele>510.00000</ele>
        <time>2010-01-01T01:39:33Z</time>
      </trkpt>
      <trkpt lat="42.76108000" lon="-1.74167000">
        <ele>511.00000</ele>
        <time>2010-01-01T01:39:37Z</time>
      </trkpt>
      <trkpt lat="42.76097700" lon="-1.74165700">
        <ele>511.00000</ele>
        <time>2010-01-01T01:39:41Z</time>
      </trkpt>
      <trkpt lat="42.76087000" lon="-1.74163300">
        <ele>512.00000</ele>
        <time>2010-01-01T01:39:46Z</time>
      </trkpt>
      <trkpt lat="42.76076000" lon="-1.74160100">
        <ele>513.00000</ele>
        <time>2010-01-01T01:39:50Z</time>
      </trkpt>
      <trkpt lat="42.76053700" lon="-1.74154500">
        <ele>514.00000</ele>
        <time>2010-01-01T01:39:59Z</time>
      </trkpt>
      <trkpt lat="42.76042500" lon="-1.74151100">
        <ele>514.00000</ele>
        <time>2010-01-01T01:40:04Z</time>
      </trkpt>
      <trkpt lat="42.76031200" lon="-1.74148300">
        <ele>514.00000</ele>
        <time>2010-01-01T01:40:08Z</time>
      </trkpt>
      <trkpt lat="42.76019900" lon="-1.74145200">
        <ele>515.00000</ele>
        <time>2010-01-01T01:40:13Z</time>
      </trkpt>
      <trkpt lat="42.76008200" lon="-1.74142000">
        <ele>515.00000</ele>
        <time>2010-01-01T01:40:18Z</time>
      </trkpt>
      <trkpt lat="42.75999000" lon="-1.74139500">
        <ele>516.00000</ele>
        <time>2010-01-01T01:40:21Z</time>
      </trkpt>
      <trkpt lat="42.75989700" lon="-1.74137300">
        <ele>516.00000</ele>
        <time>2010-01-01T01:40:25Z</time>
      </trkpt>
      <trkpt lat="42.75980300" lon="-1.74134800">
        <ele>516.00000</ele>
        <time>2010-01-01T01:40:29Z</time>
      </trkpt>
      <trkpt lat="42.75970900" lon="-1.74132000">
        <ele>517.00000</ele>
        <time>2010-01-01T01:40:33Z</time>
      </trkpt>
      <trkpt lat="42.75961400" lon="-1.74129500">
        <ele>518.00000</ele>
        <time>2010-01-01T01:40:37Z</time>
      </trkpt>
      <trkpt lat="42.75951900" lon="-1.74127100">
        <ele>518.00000</ele>
        <time>2010-01-01T01:40:41Z</time>
      </trkpt>
      <trkpt lat="42.75942500" lon="-1.74124700">
        <ele>519.00000</ele>
        <time>2010-01-01T01:40:44Z</time>
      </trkpt>
      <trkpt lat="42.75933000" lon="-1.74122200">
        <ele>519.00000</ele>
        <time>2010-01-01T01:40:48Z</time>
      </trkpt>
      <trkpt lat="42.75923700" lon="-1.74119800">
        <ele>519.00000</ele>
        <time>2010-01-01T01:40:52Z</time>
      </trkpt>
      <trkpt lat="42.75914500" lon="-1.74117500">
        <ele>520.00000</ele>
        <time>2010-01-01T01:40:56Z</time>
      </trkpt>
      <trkpt lat="42.75905400" lon="-1.74114800">
        <ele>520.00000</ele>
        <time>2010-01-01T01:41:00Z</time>
      </trkpt>
      <trkpt lat="42.75896200" lon="-1.74112300">
        <ele>520.00000</ele>
        <time>2010-01-01T01:41:03Z</time>
      </trkpt>
      <trkpt lat="42.75887300" lon="-1.74109800">
        <ele>520.00000</ele>
        <time>2010-01-01T01:41:07Z</time>
      </trkpt>
      <trkpt lat="42.75869200" lon="-1.74105100">
        <ele>520.00000</ele>
        <time>2010-01-01T01:41:14Z</time>
      </trkpt>
      <trkpt lat="42.75860000" lon="-1.74103000">
        <ele>520.00000</ele>
        <time>2010-01-01T01:41:18Z</time>
      </trkpt>
      <trkpt lat="42.75851000" lon="-1.74100200">
        <ele>520.00000</ele>
        <time>2010-01-01T01:41:22Z</time>
      </trkpt>
      <trkpt lat="42.75841800" lon="-1.74098000">
        <ele>521.00000</ele>
        <time>2010-01-01T01:41:26Z</time>
      </trkpt>
      <trkpt lat="42.75832800" lon="-1.74096000">
        <ele>522.00000</ele>
        <time>2010-01-01T01:41:29Z</time>
      </trkpt>
      <trkpt lat="42.75823800" lon="-1.74093600">
        <ele>522.00000</ele>
        <time>2010-01-01T01:41:33Z</time>
      </trkpt>
      <trkpt lat="42.75815000" lon="-1.74091000">
        <ele>522.00000</ele>
        <time>2010-01-01T01:41:36Z</time>
      </trkpt>
      <trkpt lat="42.75803700" lon="-1.74088000">
        <ele>523.00000</ele>
        <time>2010-01-01T01:41:41Z</time>
      </trkpt>
      <trkpt lat="42.75791800" lon="-1.74085600">
        <ele>523.00000</ele>
        <time>2010-01-01T01:41:46Z</time>
      </trkpt>
      <trkpt lat="42.75780200" lon="-1.74081600">
        <ele>523.00000</ele>
        <time>2010-01-01T01:41:51Z</time>
      </trkpt>
      <trkpt lat="42.75770900" lon="-1.74079500">
        <ele>524.00000</ele>
        <time>2010-01-01T01:41:54Z</time>
      </trkpt>
      <trkpt lat="42.75761900" lon="-1.74075600">
        <ele>524.00000</ele>
        <time>2010-01-01T01:41:58Z</time>
      </trkpt>
      <trkpt lat="42.75750200" lon="-1.74072800">
        <ele>524.00000</ele>
        <time>2010-01-01T01:42:03Z</time>
      </trkpt>
      <trkpt lat="42.75741300" lon="-1.74070000">
        <ele>524.00000</ele>
        <time>2010-01-01T01:42:07Z</time>
      </trkpt>
      <trkpt lat="42.75731800" lon="-1.74068000">
        <ele>524.00000</ele>
        <time>2010-01-01T01:42:11Z</time>
      </trkpt>
      <trkpt lat="42.75720500" lon="-1.74066500">
        <ele>524.00000</ele>
        <time>2010-01-01T01:42:15Z</time>
      </trkpt>
      <trkpt lat="42.75711300" lon="-1.74066500">
        <ele>524.00000</ele>
        <time>2010-01-01T01:42:19Z</time>
      </trkpt>
      <trkpt lat="42.75702200" lon="-1.74067200">
        <ele>525.00000</ele>
        <time>2010-01-01T01:42:22Z</time>
      </trkpt>
      <trkpt lat="42.75683400" lon="-1.74070500">
        <ele>526.00000</ele>
        <time>2010-01-01T01:42:30Z</time>
      </trkpt>
      <trkpt lat="42.75668000" lon="-1.74083500">
        <ele>528.00000</ele>
        <time>2010-01-01T01:42:37Z</time>
      </trkpt>
      <trkpt lat="42.75660000" lon="-1.74092800">
        <ele>529.00000</ele>
        <time>2010-01-01T01:42:41Z</time>
      </trkpt>
      <trkpt lat="42.75653700" lon="-1.74103600">
        <ele>529.00000</ele>
        <time>2010-01-01T01:42:46Z</time>
      </trkpt>
      <trkpt lat="42.75655300" lon="-1.74090800">
        <ele>529.00000</ele>
        <time>2010-01-01T01:42:49Z</time>
      </trkpt>
      <trkpt lat="42.75637900" lon="-1.74087800">
        <ele>529.00000</ele>
        <time>2010-01-01T01:42:56Z</time>
      </trkpt>
      <trkpt lat="42.75622300" lon="-1.74081000">
        <ele>529.00000</ele>
        <time>2010-01-01T01:43:03Z</time>
      </trkpt>
      <trkpt lat="42.75602400" lon="-1.74080200">
        <ele>528.00000</ele>
        <time>2010-01-01T01:43:11Z</time>
      </trkpt>
      <trkpt lat="42.75591000" lon="-1.74081500">
        <ele>528.00000</ele>
        <time>2010-01-01T01:43:15Z</time>
      </trkpt>
      <trkpt lat="42.75580200" lon="-1.74083300">
        <ele>528.00000</ele>
        <time>2010-01-01T01:43:20Z</time>
      </trkpt>
      <trkpt lat="42.75570000" lon="-1.74084800">
        <ele>528.00000</ele>
        <time>2010-01-01T01:43:24Z</time>
      </trkpt>
      <trkpt lat="42.75560700" lon="-1.74088000">
        <ele>528.00000</ele>
        <time>2010-01-01T01:43:28Z</time>
      </trkpt>
      <trkpt lat="42.75549200" lon="-1.74090300">
        <ele>527.00000</ele>
        <time>2010-01-01T01:43:32Z</time>
      </trkpt>
      <trkpt lat="42.75538400" lon="-1.74092800">
        <ele>526.00000</ele>
        <time>2010-01-01T01:43:37Z</time>
      </trkpt>
      <trkpt lat="42.75528200" lon="-1.74094600">
        <ele>525.00000</ele>
        <time>2010-01-01T01:43:41Z</time>
      </trkpt>
      <trkpt lat="42.75517800" lon="-1.74095100">
        <ele>525.00000</ele>
        <time>2010-01-01T01:43:45Z</time>
      </trkpt>
      <trkpt lat="42.75508200" lon="-1.74097500">
        <ele>525.00000</ele>
        <time>2010-01-01T01:43:49Z</time>
      </trkpt>
      <trkpt lat="42.75498000" lon="-1.74096800">
        <ele>525.00000</ele>
        <time>2010-01-01T01:43:53Z</time>
      </trkpt>
      <trkpt lat="42.75487700" lon="-1.74093300">
        <ele>525.00000</ele>
        <time>2010-01-01T01:43:57Z</time>
      </trkpt>
      <trkpt lat="42.75485700" lon="-1.74079500">
        <ele>524.00000</ele>
        <time>2010-01-01T01:44:01Z</time>
      </trkpt>
      <trkpt lat="42.75491400" lon="-1.74064500">
        <ele>524.00000</ele>
        <time>2010-01-01T01:44:06Z</time>
      </trkpt>
      <trkpt lat="42.75498200" lon="-1.74049600">
        <ele>523.00000</ele>
        <time>2010-01-01T01:44:12Z</time>
      </trkpt>
      <trkpt lat="42.75501900" lon="-1.74038000">
        <ele>523.00000</ele>
        <time>2010-01-01T01:44:15Z</time>
      </trkpt>
      <trkpt lat="42.75510800" lon="-1.74038500">
        <ele>523.00000</ele>
        <time>2010-01-01T01:44:19Z</time>
      </trkpt>
      <trkpt lat="42.75522000" lon="-1.74013600">
        <ele>522.00000</ele>
        <time>2010-01-01T01:44:27Z</time>
      </trkpt>
      <trkpt lat="42.75528700" lon="-1.73999200">
        <ele>521.00000</ele>
        <time>2010-01-01T01:44:32Z</time>
      </trkpt>
      <trkpt lat="42.75536400" lon="-1.73984100">
        <ele>521.00000</ele>
        <time>2010-01-01T01:44:38Z</time>
      </trkpt>
      <trkpt lat="42.75535900" lon="-1.73968600">
        <ele>520.00000</ele>
        <time>2010-01-01T01:44:42Z</time>
      </trkpt>
      <trkpt lat="42.75524700" lon="-1.73961800">
        <ele>520.00000</ele>
        <time>2010-01-01T01:44:47Z</time>
      </trkpt>
      <trkpt lat="42.75503500" lon="-1.73954300">
        <ele>521.00000</ele>
        <time>2010-01-01T01:44:56Z</time>
      </trkpt>
      <trkpt lat="42.75494400" lon="-1.73949600">
        <ele>522.00000</ele>
        <time>2010-01-01T01:45:00Z</time>
      </trkpt>
      <trkpt lat="42.75484500" lon="-1.73945800">
        <ele>522.00000</ele>
        <time>2010-01-01T01:45:04Z</time>
      </trkpt>
      <trkpt lat="42.75474500" lon="-1.73941800">
        <ele>522.00000</ele>
        <time>2010-01-01T01:45:08Z</time>
      </trkpt>
      <trkpt lat="42.75464500" lon="-1.73938300">
        <ele>523.00000</ele>
        <time>2010-01-01T01:45:12Z</time>
      </trkpt>
      <trkpt lat="42.75454700" lon="-1.73934800">
        <ele>523.00000</ele>
        <time>2010-01-01T01:45:16Z</time>
      </trkpt>
      <trkpt lat="42.75445200" lon="-1.73931000">
        <ele>523.00000</ele>
        <time>2010-01-01T01:45:20Z</time>
      </trkpt>
      <trkpt lat="42.75435500" lon="-1.73926600">
        <ele>524.00000</ele>
        <time>2010-01-01T01:45:25Z</time>
      </trkpt>
      <trkpt lat="42.75426000" lon="-1.73923000">
        <ele>524.00000</ele>
        <time>2010-01-01T01:45:28Z</time>
      </trkpt>
      <trkpt lat="42.75416800" lon="-1.73918600">
        <ele>525.00000</ele>
        <time>2010-01-01T01:45:32Z</time>
      </trkpt>
      <trkpt lat="42.75407700" lon="-1.73915100">
        <ele>525.00000</ele>
        <time>2010-01-01T01:45:36Z</time>
      </trkpt>
      <trkpt lat="42.75398300" lon="-1.73911600">
        <ele>526.00000</ele>
        <time>2010-01-01T01:45:40Z</time>
      </trkpt>
      <trkpt lat="42.75389500" lon="-1.73907500">
        <ele>526.00000</ele>
        <time>2010-01-01T01:45:44Z</time>
      </trkpt>
      <trkpt lat="42.75380900" lon="-1.73903600">
        <ele>527.00000</ele>
        <time>2010-01-01T01:45:47Z</time>
      </trkpt>
      <trkpt lat="42.75369500" lon="-1.73898800">
        <ele>528.00000</ele>
        <time>2010-01-01T01:45:52Z</time>
      </trkpt>
      <trkpt lat="42.75358200" lon="-1.73894100">
        <ele>529.00000</ele>
        <time>2010-01-01T01:45:57Z</time>
      </trkpt>
      <trkpt lat="42.75347200" lon="-1.73888500">
        <ele>530.00000</ele>
        <time>2010-01-01T01:46:02Z</time>
      </trkpt>
      <trkpt lat="42.75335900" lon="-1.73884300">
        <ele>531.00000</ele>
        <time>2010-01-01T01:46:06Z</time>
      </trkpt>
      <trkpt lat="42.75315400" lon="-1.73869500">
        <ele>533.00000</ele>
        <time>2010-01-01T01:46:16Z</time>
      </trkpt>
      <trkpt lat="42.75307700" lon="-1.73863000">
        <ele>534.00000</ele>
        <time>2010-01-01T01:46:19Z</time>
      </trkpt>
      <trkpt lat="42.75300000" lon="-1.73856300">
        <ele>534.00000</ele>
        <time>2010-01-01T01:46:23Z</time>
      </trkpt>
      <trkpt lat="42.75292500" lon="-1.73849500">
        <ele>534.00000</ele>
        <time>2010-01-01T01:46:26Z</time>
      </trkpt>
      <trkpt lat="42.75285000" lon="-1.73842500">
        <ele>534.00000</ele>
        <time>2010-01-01T01:46:30Z</time>
      </trkpt>
      <trkpt lat="42.75277200" lon="-1.73836000">
        <ele>534.00000</ele>
        <time>2010-01-01T01:46:34Z</time>
      </trkpt>
      <trkpt lat="42.75267200" lon="-1.73827100">
        <ele>535.00000</ele>
        <time>2010-01-01T01:46:39Z</time>
      </trkpt>
      <trkpt lat="42.75257400" lon="-1.73818500">
        <ele>535.00000</ele>
        <time>2010-01-01T01:46:43Z</time>
      </trkpt>
      <trkpt lat="42.75247400" lon="-1.73810500">
        <ele>536.00000</ele>
        <time>2010-01-01T01:46:48Z</time>
      </trkpt>
      <trkpt lat="42.75237900" lon="-1.73802000">
        <ele>536.00000</ele>
        <time>2010-01-01T01:46:52Z</time>
      </trkpt>
      <trkpt lat="42.75228300" lon="-1.73793100">
        <ele>537.00000</ele>
        <time>2010-01-01T01:46:57Z</time>
      </trkpt>
      <trkpt lat="42.75219000" lon="-1.73784200">
        <ele>537.00000</ele>
        <time>2010-01-01T01:47:02Z</time>
      </trkpt>
      <trkpt lat="42.75211000" lon="-1.73772600">
        <ele>537.00000</ele>
        <time>2010-01-01T01:47:06Z</time>
      </trkpt>
      <trkpt lat="42.75206000" lon="-1.73762000">
        <ele>538.00000</ele>
        <time>2010-01-01T01:47:10Z</time>
      </trkpt>
      <trkpt lat="42.75202200" lon="-1.73749800">
        <ele>539.00000</ele>
        <time>2010-01-01T01:47:14Z</time>
      </trkpt>
      <trkpt lat="42.75200400" lon="-1.73736100">
        <ele>539.00000</ele>
        <time>2010-01-01T01:47:18Z</time>
      </trkpt>
      <trkpt lat="42.75200000" lon="-1.73722200">
        <ele>539.00000</ele>
        <time>2010-01-01T01:47:22Z</time>
      </trkpt>
      <trkpt lat="42.75200000" lon="-1.73691600">
        <ele>539.00000</ele>
        <time>2010-01-01T01:47:31Z</time>
      </trkpt>
      <trkpt lat="42.75196000" lon="-1.73677200">
        <ele>539.00000</ele>
        <time>2010-01-01T01:47:36Z</time>
      </trkpt>
      <trkpt lat="42.75191200" lon="-1.73666000">
        <ele>540.00000</ele>
        <time>2010-01-01T01:47:39Z</time>
      </trkpt>
      <trkpt lat="42.75193500" lon="-1.73635700">
        <ele>539.00000</ele>
        <time>2010-01-01T01:47:48Z</time>
      </trkpt>
      <trkpt lat="42.75183000" lon="-1.73613000">
        <ele>539.00000</ele>
        <time>2010-01-01T01:47:56Z</time>
      </trkpt>
      <trkpt lat="42.75176000" lon="-1.73603500">
        <ele>539.00000</ele>
        <time>2010-01-01T01:48:00Z</time>
      </trkpt>
      <trkpt lat="42.75172700" lon="-1.73591600">
        <ele>539.00000</ele>
        <time>2010-01-01T01:48:04Z</time>
      </trkpt>
      <trkpt lat="42.75173300" lon="-1.73579100">
        <ele>539.00000</ele>
        <time>2010-01-01T01:48:08Z</time>
      </trkpt>
      <trkpt lat="42.75176500" lon="-1.73566500">
        <ele>539.00000</ele>
        <time>2010-01-01T01:48:12Z</time>
      </trkpt>
      <trkpt lat="42.75180400" lon="-1.73553800">
        <ele>538.00000</ele>
        <time>2010-01-01T01:48:16Z</time>
      </trkpt>
      <trkpt lat="42.75184800" lon="-1.73540800">
        <ele>538.00000</ele>
        <time>2010-01-01T01:48:20Z</time>
      </trkpt>
      <trkpt lat="42.75189900" lon="-1.73528000">
        <ele>538.00000</ele>
        <time>2010-01-01T01:48:24Z</time>
      </trkpt>
      <trkpt lat="42.75195000" lon="-1.73515300">
        <ele>538.00000</ele>
        <time>2010-01-01T01:48:28Z</time>
      </trkpt>
      <trkpt lat="42.75200200" lon="-1.73503000">
        <ele>538.00000</ele>
        <time>2010-01-01T01:48:33Z</time>
      </trkpt>
      <trkpt lat="42.75205700" lon="-1.73490300">
        <ele>538.00000</ele>
        <time>2010-01-01T01:48:37Z</time>
      </trkpt>
      <trkpt lat="42.75210500" lon="-1.73477100">
        <ele>539.00000</ele>
        <time>2010-01-01T01:48:41Z</time>
      </trkpt>
      <trkpt lat="42.75215400" lon="-1.73464000">
        <ele>539.00000</ele>
        <time>2010-01-01T01:48:45Z</time>
      </trkpt>
      <trkpt lat="42.75217500" lon="-1.73449700">
        <ele>539.00000</ele>
        <time>2010-01-01T01:48:50Z</time>
      </trkpt>
      <trkpt lat="42.75220200" lon="-1.73421500">
        <ele>538.00000</ele>
        <time>2010-01-01T01:48:58Z</time>
      </trkpt>
      <trkpt lat="42.75221500" lon="-1.73407500">
        <ele>538.00000</ele>
        <time>2010-01-01T01:49:02Z</time>
      </trkpt>
      <trkpt lat="42.75222500" lon="-1.73393700">
        <ele>537.00000</ele>
        <time>2010-01-01T01:49:06Z</time>
      </trkpt>
      <trkpt lat="42.75223700" lon="-1.73380100">
        <ele>538.00000</ele>
        <time>2010-01-01T01:49:10Z</time>
      </trkpt>
      <trkpt lat="42.75225500" lon="-1.73366300">
        <ele>540.00000</ele>
        <time>2010-01-01T01:49:15Z</time>
      </trkpt>
      <trkpt lat="42.75226000" lon="-1.73352700">
        <ele>541.00000</ele>
        <time>2010-01-01T01:49:19Z</time>
      </trkpt>
      <trkpt lat="42.75226400" lon="-1.73339700">
        <ele>542.00000</ele>
        <time>2010-01-01T01:49:22Z</time>
      </trkpt>
      <trkpt lat="42.75227300" lon="-1.73323600">
        <ele>543.00000</ele>
        <time>2010-01-01T01:49:27Z</time>
      </trkpt>
      <trkpt lat="42.75227500" lon="-1.73308700">
        <ele>544.00000</ele>
        <time>2010-01-01T01:49:31Z</time>
      </trkpt>
      <trkpt lat="42.75228200" lon="-1.73294200">
        <ele>544.00000</ele>
        <time>2010-01-01T01:49:36Z</time>
      </trkpt>
      <trkpt lat="42.75228700" lon="-1.73280100">
        <ele>544.00000</ele>
        <time>2010-01-01T01:49:40Z</time>
      </trkpt>
      <trkpt lat="42.75229300" lon="-1.73266800">
        <ele>544.00000</ele>
        <time>2010-01-01T01:49:44Z</time>
      </trkpt>
      <trkpt lat="42.75230200" lon="-1.73253700">
        <ele>543.00000</ele>
        <time>2010-01-01T01:49:48Z</time>
      </trkpt>
      <trkpt lat="42.75230800" lon="-1.73240700">
        <ele>543.00000</ele>
        <time>2010-01-01T01:49:51Z</time>
      </trkpt>
      <trkpt lat="42.75231500" lon="-1.73227800">
        <ele>544.00000</ele>
        <time>2010-01-01T01:49:55Z</time>
      </trkpt>
      <trkpt lat="42.75233000" lon="-1.73214700">
        <ele>544.00000</ele>
        <time>2010-01-01T01:49:59Z</time>
      </trkpt>
      <trkpt lat="42.75233500" lon="-1.73200800">
        <ele>544.00000</ele>
        <time>2010-01-01T01:50:03Z</time>
      </trkpt>
      <trkpt lat="42.75231200" lon="-1.73172200">
        <ele>545.00000</ele>
        <time>2010-01-01T01:50:12Z</time>
      </trkpt>
      <trkpt lat="42.75227000" lon="-1.73159800">
        <ele>546.00000</ele>
        <time>2010-01-01T01:50:16Z</time>
      </trkpt>
      <trkpt lat="42.75222200" lon="-1.73148800">
        <ele>547.00000</ele>
        <time>2010-01-01T01:50:20Z</time>
      </trkpt>
      <trkpt lat="42.75217200" lon="-1.73138300">
        <ele>548.00000</ele>
        <time>2010-01-01T01:50:23Z</time>
      </trkpt>
      <trkpt lat="42.75211400" lon="-1.73126000">
        <ele>549.00000</ele>
        <time>2010-01-01T01:50:27Z</time>
      </trkpt>
      <trkpt lat="42.75206000" lon="-1.73114200">
        <ele>549.00000</ele>
        <time>2010-01-01T01:50:32Z</time>
      </trkpt>
      <trkpt lat="42.75201200" lon="-1.73102500">
        <ele>550.00000</ele>
        <time>2010-01-01T01:50:36Z</time>
      </trkpt>
      <trkpt lat="42.75196500" lon="-1.73091000">
        <ele>550.00000</ele>
        <time>2010-01-01T01:50:39Z</time>
      </trkpt>
      <trkpt lat="42.75191000" lon="-1.73080200">
        <ele>551.00000</ele>
        <time>2010-01-01T01:50:43Z</time>
      </trkpt>
      <trkpt lat="42.75185700" lon="-1.73069300">
        <ele>552.00000</ele>
        <time>2010-01-01T01:50:47Z</time>
      </trkpt>
      <trkpt lat="42.75180000" lon="-1.73057000">
        <ele>553.00000</ele>
        <time>2010-01-01T01:50:51Z</time>
      </trkpt>
      <trkpt lat="42.75174500" lon="-1.73044500">
        <ele>554.00000</ele>
        <time>2010-01-01T01:50:56Z</time>
      </trkpt>
      <trkpt lat="42.75168700" lon="-1.73032100">
        <ele>554.00000</ele>
        <time>2010-01-01T01:51:00Z</time>
      </trkpt>
      <trkpt lat="42.75158200" lon="-1.73006000">
        <ele>556.00000</ele>
        <time>2010-01-01T01:51:09Z</time>
      </trkpt>
      <trkpt lat="42.75152300" lon="-1.72993300">
        <ele>557.00000</ele>
        <time>2010-01-01T01:51:13Z</time>
      </trkpt>
      <trkpt lat="42.75148400" lon="-1.72982300">
        <ele>557.00000</ele>
        <time>2010-01-01T01:51:17Z</time>
      </trkpt>
      <trkpt lat="42.75142700" lon="-1.72969500">
        <ele>558.00000</ele>
        <time>2010-01-01T01:51:21Z</time>
      </trkpt>
      <trkpt lat="42.75137200" lon="-1.72956800">
        <ele>559.00000</ele>
        <time>2010-01-01T01:51:25Z</time>
      </trkpt>
      <trkpt lat="42.75131000" lon="-1.72944100">
        <ele>559.00000</ele>
        <time>2010-01-01T01:51:30Z</time>
      </trkpt>
      <trkpt lat="42.75126700" lon="-1.72933300">
        <ele>560.00000</ele>
        <time>2010-01-01T01:51:34Z</time>
      </trkpt>
      <trkpt lat="42.75121000" lon="-1.72920800">
        <ele>561.00000</ele>
        <time>2010-01-01T01:51:38Z</time>
      </trkpt>
      <trkpt lat="42.75115500" lon="-1.72908200">
        <ele>561.00000</ele>
        <time>2010-01-01T01:51:42Z</time>
      </trkpt>
      <trkpt lat="42.75109900" lon="-1.72895500">
        <ele>562.00000</ele>
        <time>2010-01-01T01:51:47Z</time>
      </trkpt>
      <trkpt lat="42.75104700" lon="-1.72882800">
        <ele>563.00000</ele>
        <time>2010-01-01T01:51:51Z</time>
      </trkpt>
      <trkpt lat="42.75099000" lon="-1.72870300">
        <ele>563.00000</ele>
        <time>2010-01-01T01:51:55Z</time>
      </trkpt>
      <trkpt lat="42.75088500" lon="-1.72845100">
        <ele>564.00000</ele>
        <time>2010-01-01T01:52:04Z</time>
      </trkpt>
      <trkpt lat="42.75083300" lon="-1.72832600">
        <ele>565.00000</ele>
        <time>2010-01-01T01:52:08Z</time>
      </trkpt>
      <trkpt lat="42.75078500" lon="-1.72822000">
        <ele>565.00000</ele>
        <time>2010-01-01T01:52:12Z</time>
      </trkpt>
      <trkpt lat="42.75073500" lon="-1.72810800">
        <ele>566.00000</ele>
        <time>2010-01-01T01:52:15Z</time>
      </trkpt>
      <trkpt lat="42.75068500" lon="-1.72798600">
        <ele>567.00000</ele>
        <time>2010-01-01T01:52:20Z</time>
      </trkpt>
      <trkpt lat="42.75063700" lon="-1.72786600">
        <ele>568.00000</ele>
        <time>2010-01-01T01:52:24Z</time>
      </trkpt>
      <trkpt lat="42.75058700" lon="-1.72775000">
        <ele>568.00000</ele>
        <time>2010-01-01T01:52:27Z</time>
      </trkpt>
      <trkpt lat="42.75054200" lon="-1.72763100">
        <ele>569.00000</ele>
        <time>2010-01-01T01:52:31Z</time>
      </trkpt>
      <trkpt lat="42.75048700" lon="-1.72753000">
        <ele>569.00000</ele>
        <time>2010-01-01T01:52:35Z</time>
      </trkpt>
      <trkpt lat="42.75044000" lon="-1.72742500">
        <ele>570.00000</ele>
        <time>2010-01-01T01:52:39Z</time>
      </trkpt>
      <trkpt lat="42.75039300" lon="-1.72729800">
        <ele>571.00000</ele>
        <time>2010-01-01T01:52:43Z</time>
      </trkpt>
      <trkpt lat="42.75029000" lon="-1.72705200">
        <ele>574.00000</ele>
        <time>2010-01-01T01:52:51Z</time>
      </trkpt>
      <trkpt lat="42.75024400" lon="-1.72693500">
        <ele>576.00000</ele>
        <time>2010-01-01T01:52:55Z</time>
      </trkpt>
      <trkpt lat="42.75020200" lon="-1.72681800">
        <ele>577.00000</ele>
        <time>2010-01-01T01:52:59Z</time>
      </trkpt>
      <trkpt lat="42.75014800" lon="-1.72671300">
        <ele>579.00000</ele>
        <time>2010-01-01T01:53:03Z</time>
      </trkpt>
      <trkpt lat="42.75010200" lon="-1.72658700">
        <ele>581.00000</ele>
        <time>2010-01-01T01:53:07Z</time>
      </trkpt>
      <trkpt lat="42.75005000" lon="-1.72647000">
        <ele>582.00000</ele>
        <time>2010-01-01T01:53:11Z</time>
      </trkpt>
      <trkpt lat="42.75000700" lon="-1.72634800">
        <ele>583.00000</ele>
        <time>2010-01-01T01:53:15Z</time>
      </trkpt>
      <trkpt lat="42.74995700" lon="-1.72623500">
        <ele>584.00000</ele>
        <time>2010-01-01T01:53:19Z</time>
      </trkpt>
      <trkpt lat="42.74991200" lon="-1.72612200">
        <ele>585.00000</ele>
        <time>2010-01-01T01:53:23Z</time>
      </trkpt>
      <trkpt lat="42.74981800" lon="-1.72588800">
        <ele>589.00000</ele>
        <time>2010-01-01T01:53:30Z</time>
      </trkpt>
      <trkpt lat="42.74977700" lon="-1.72577100">
        <ele>591.00000</ele>
        <time>2010-01-01T01:53:34Z</time>
      </trkpt>
      <trkpt lat="42.74972800" lon="-1.72566100">
        <ele>592.00000</ele>
        <time>2010-01-01T01:53:38Z</time>
      </trkpt>
      <trkpt lat="42.74967700" lon="-1.72555000">
        <ele>594.00000</ele>
        <time>2010-01-01T01:53:42Z</time>
      </trkpt>
      <trkpt lat="42.74963200" lon="-1.72543300">
        <ele>595.00000</ele>
        <time>2010-01-01T01:53:46Z</time>
      </trkpt>
      <trkpt lat="42.74959300" lon="-1.72530500">
        <ele>595.00000</ele>
        <time>2010-01-01T01:53:50Z</time>
      </trkpt>
      <trkpt lat="42.74953700" lon="-1.72518600">
        <ele>596.00000</ele>
        <time>2010-01-01T01:53:54Z</time>
      </trkpt>
      <trkpt lat="42.74948000" lon="-1.72507800">
        <ele>597.00000</ele>
        <time>2010-01-01T01:53:58Z</time>
      </trkpt>
      <trkpt lat="42.74938500" lon="-1.72484800">
        <ele>598.00000</ele>
        <time>2010-01-01T01:54:06Z</time>
      </trkpt>
      <trkpt lat="42.74933900" lon="-1.72473300">
        <ele>599.00000</ele>
        <time>2010-01-01T01:54:09Z</time>
      </trkpt>
      <trkpt lat="42.74929200" lon="-1.72460800">
        <ele>600.00000</ele>
        <time>2010-01-01T01:54:14Z</time>
      </trkpt>
      <trkpt lat="42.74923900" lon="-1.72450500">
        <ele>601.00000</ele>
        <time>2010-01-01T01:54:17Z</time>
      </trkpt>
      <trkpt lat="42.74919200" lon="-1.72440000">
        <ele>602.00000</ele>
        <time>2010-01-01T01:54:21Z</time>
      </trkpt>
      <trkpt lat="42.74913800" lon="-1.72428000">
        <ele>603.00000</ele>
        <time>2010-01-01T01:54:25Z</time>
      </trkpt>
      <trkpt lat="42.74909500" lon="-1.72415200">
        <ele>605.00000</ele>
        <time>2010-01-01T01:54:29Z</time>
      </trkpt>
      <trkpt lat="42.74903700" lon="-1.72404000">
        <ele>606.00000</ele>
        <time>2010-01-01T01:54:33Z</time>
      </trkpt>
      <trkpt lat="42.74895700" lon="-1.72380000">
        <ele>609.00000</ele>
        <time>2010-01-01T01:54:41Z</time>
      </trkpt>
      <trkpt lat="42.74894000" lon="-1.72367000">
        <ele>611.00000</ele>
        <time>2010-01-01T01:54:45Z</time>
      </trkpt>
      <trkpt lat="42.74892200" lon="-1.72353600">
        <ele>612.00000</ele>
        <time>2010-01-01T01:54:49Z</time>
      </trkpt>
      <trkpt lat="42.74891000" lon="-1.72339800">
        <ele>613.00000</ele>
        <time>2010-01-01T01:54:53Z</time>
      </trkpt>
      <trkpt lat="42.74888900" lon="-1.72326300">
        <ele>614.00000</ele>
        <time>2010-01-01T01:54:57Z</time>
      </trkpt>
      <trkpt lat="42.74881700" lon="-1.72316300">
        <ele>615.00000</ele>
        <time>2010-01-01T01:55:01Z</time>
      </trkpt>
      <trkpt lat="42.74873500" lon="-1.72309800">
        <ele>616.00000</ele>
        <time>2010-01-01T01:55:05Z</time>
      </trkpt>
      <trkpt lat="42.74865700" lon="-1.72303200">
        <ele>618.00000</ele>
        <time>2010-01-01T01:55:09Z</time>
      </trkpt>
      <trkpt lat="42.74848800" lon="-1.72290500">
        <ele>620.00000</ele>
        <time>2010-01-01T01:55:16Z</time>
      </trkpt>
      <trkpt lat="42.74840700" lon="-1.72283300">
        <ele>622.00000</ele>
        <time>2010-01-01T01:55:20Z</time>
      </trkpt>
      <trkpt lat="42.74832000" lon="-1.72277200">
        <ele>624.00000</ele>
        <time>2010-01-01T01:55:24Z</time>
      </trkpt>
      <trkpt lat="42.74824000" lon="-1.72270800">
        <ele>625.00000</ele>
        <time>2010-01-01T01:55:28Z</time>
      </trkpt>
      <trkpt lat="42.74816000" lon="-1.72263500">
        <ele>627.00000</ele>
        <time>2010-01-01T01:55:32Z</time>
      </trkpt>
      <trkpt lat="42.74818700" lon="-1.72276500">
        <ele>626.00000</ele>
        <time>2010-01-01T01:55:36Z</time>
      </trkpt>
      <trkpt lat="42.74810700" lon="-1.72285100">
        <ele>626.00000</ele>
        <time>2010-01-01T01:55:40Z</time>
      </trkpt>
      <trkpt lat="42.74802000" lon="-1.72294000">
        <ele>627.00000</ele>
        <time>2010-01-01T01:55:44Z</time>
      </trkpt>
    </trkseg>
  </trk>
</gpx>
